[[{"header":{"parameterUnit":"m.s-1","parameterCategory":1,"la1":30.6,"la2":28.766,"lo1":-90.7593,"lo2":-88.6598,"dy":0.0162,"dx":0.0183,"nx":116,"ny":114,"refTime":"2023-04-09T12:00:00:Z","depth":0,"parameterNumber":2,"parameterNumberName":"U-component_of_WINDS"},"data":[0.0,0.0,0.0,0.0,0.0,0.0,0.0,0.0,0.0,0.0,0.0,0.0,0.0,0.0,0.0,0.0,0.0,0.0,0.0,0.0,0.0,0.0,0.0,0.0,0.0,0.0,0.0,0.0,0.0,0.0,0.0,0.0,0.0,0.0,0.0,0.0,0.0,0.0,0.0,0.0,0.0,0.0,0.0,0.0,0.0,0.0,0.0,0.0,0.0,0.0,0.0,0.0,0.0,0.0,0.0,0.0,0.0,0.0,0.0,0.0,0.0,0.0,0.0,0.0,0.0,0.0,0.0,0.0,0.0,0.0,0.0,0.0,0.0,0.0,0.0,0.0,0.0,0.0,0.0,0.0,0.0,0.0,0.0,0.0,0.0,0.0,0.0,0.0,0.0,0.0,0.0,0.0,0.0,0.0,0.0,0.0,0.0,0.0,0.0,0.0,0.0,0.0,0.0,0.0,0.0,0.0,0.0,0.0,0.0,0.0,0.0,0.0,0.0,0.0,0.0,0.0,0.0,0.0,0.0,0.0,0.0,0.0,0.0,0.0,0.0,0.0,0.0,0.0,0.0,0.0,0.0,0.0,0.0,0.0,0.0,0.0,0.0,0.0,0.0,0.0,0.0,0.0,0.0,0.0,0.0,0.0,0.0,0.0,0.0,0.0,0.0,0.0,0.0,0.0,0.0,0.0,0.0,0.0,0.0,0.0,0.0,0.0,0.0,0.0,0.0,0.0,0.0,0.0,0.0,0.0,0.0,0.0,0.0,0.0,0.0,0.0,0.0,0.0,0.0,0.0,0.0,0.0,0.0,0.0,0.0,0.0,0.0,0.0,0.0,0.0,0.0,0.0,0.0,0.0,0.0,0.0,0.0,0.0,0.0,0.0,0.0,0.0,0.0,0.0,0.0,0.0,0.0,0.0,0.0,0.0,0.0,0.0,0.0,0.0,0.0,0.0,0.0,0.0,0.0,0.0,0.0,0.0,0.0,0.0,0.0,0.0,0.0,0.0,0.0,0.0,0.0,0.0,0.0,0.0,0.0,0.0,0.0,0.0,0.0,0.0,0.0,0.0,0.0,0.0,0.0,0.0,0.0,0.0,0.0,0.0,0.0,0.0,0.0,0.0,0.0,0.0,0.0,0.0,0.0,0.0,0.0,0.0,0.0,0.0,0.0,0.0,0.0,0.0,0.0,0.0,0.0,0.0,0.0,0.0,0.0,0.0,0.0,0.0,0.0,0.0,0.0,0.0,0.0,0.0,0.0,0.0,0.0,0.0,0.0,0.0,0.0,0.0,0.0,0.0,0.0,0.0,0.0,0.0,0.0,0.0,0.0,0.0,0.0,0.0,0.0,0.0,0.0,0.0,0.0,0.0,0.0,0.0,0.0,0.0,0.0,0.0,0.0,0.0,0.0,0.0,0.0,0.0,0.0,0.0,0.0,0.0,0.0,0.0,0.0,0.0,0.0,0.0,0.0,0.0,0.0,0.0,0.0,0.0,0.0,0.0,0.0,0.0,0.0,0.0,0.0,0.0,0.0,0.0,0.0,0.0,0.0,0.0,0.0,0.0,0.0,0.0,0.0,0.0,0.0,0.0,0.0,0.0,0.0,0.0,0.0,0.0,0.0,0.0,0.0,0.0,0.0,0.0,0.0,0.0,0.0,0.0,0.0,0.0,0.0,0.0,0.0,0.0,0.0,0.0,0.0,0.0,0.0,0.0,0.0,0.0,0.0,0.0,0.0,0.0,0.0,0.0,0.0,0.0,0.0,0.0,0.0,0.0,0.0,0.0,0.0,0.0,0.0,0.0,0.0,0.0,0.0,0.0,0.0,0.0,0.0,0.0,0.0,0.0,0.0,0.0,0.0,0.0,0.0,0.0,0.0,0.0,0.0,0.0,0.0,0.0,0.0,0.0,0.0,0.0,0.0,0.0,0.0,0.0,0.0,0.0,0.0,0.0,0.0,0.0,0.0,0.0,0.0,0.0,0.0,0.0,0.0,0.0,0.0,0.0,0.0,0.0,0.0,0.0,0.0,0.0,0.0,0.0,0.0,0.0,0.0,0.0,0.0,0.0,0.0,0.0,0.0,0.0,0.0,0.0,0.0,0.0,0.0,0.0,0.0,0.0,0.0,0.0,0.0,0.0,0.0,0.0,0.0,0.0,0.0,0.0,0.0,0.0,0.0,0.0,0.0,0.0,0.0,0.0,0.0,0.0,0.0,0.0,0.0,0.0,0.0,0.0,0.0,0.0,0.0,0.0,0.0,0.0,0.0,0.0,0.0,0.0,0.0,0.0,0.0,0.0,0.0,0.0,0.0,0.0,0.0,0.0,0.0,0.0,0.0,0.0,0.0,0.0,0.0,0.0,0.0,0.0,0.0,0.0,0.0,0.0,0.0,0.0,0.0,0.0,0.0,0.0,0.0,0.0,0.0,0.0,0.0,0.0,0.0,0.0,0.0,0.0,0.0,0.0,0.0,0.0,0.0,0.0,0.0,0.0,0.0,0.0,0.0,0.0,0.0,0.0,0.0,0.0,0.0,0.0,0.0,0.0,0.0,0.0,0.0,0.0,0.0,0.0,0.0,0.0,0.0,0.0,0.0,0.0,0.0,0.0,0.0,0.0,0.0,0.0,0.0,0.0,0.0,0.0,0.0,0.0,0.0,0.0,0.0,0.0,0.0,0.0,0.0,0.0,0.0,0.0,0.0,0.0,0.0,0.0,0.0,0.0,0.0,0.0,0.0,0.0,0.0,0.0,0.0,0.0,0.0,0.0,0.0,0.0,0.0,0.0,0.0,0.0,0.0,0.0,0.0,0.0,0.0,0.0,0.0,0.0,0.0,0.0,0.0,0.0,0.0,0.0,0.0,0.0,0.0,0.0,0.0,0.0,0.0,0.0,0.0,0.0,0.0,0.0,0.0,0.0,0.0,0.0,0.0,0.0,0.0,0.0,0.0,0.0,0.0,0.0,0.0,0.0,0.0,0.0,0.0,0.0,0.0,0.0,0.0,0.0,0.0,0.0,0.0,0.0,0.0,0.0,0.0,0.0,0.0,0.0,0.0,0.0,0.0,0.0,0.0,0.0,0.0,0.0,0.0,0.0,0.0,0.0,0.0,0.0,0.0,0.0,0.0,0.0,0.0,0.0,0.0,0.0,0.0,0.0,0.0,0.0,0.0,0.0,0.0,0.0,0.0,0.0,0.0,0.0,0.0,0.0,0.0,0.0,0.0,0.0,0.0,0.0,0.0,0.0,0.0,0.0,0.0,0.0,0.0,0.0,0.0,0.0,0.0,0.0,0.0,0.0,0.0,0.0,0.0,0.0,0.0,0.0,0.0,0.0,0.0,0.0,0.0,0.0,0.0,0.0,0.0,0.0,0.0,0.0,0.0,0.0,0.0,0.0,0.0,0.0,0.0,0.0,0.0,0.0,0.0,0.0,0.0,0.0,0.0,0.0,0.0,0.0,0.0,0.0,0.0,0.0,0.0,0.0,0.0,0.0,0.0,0.0,0.0,0.0,0.0,0.0,0.0,0.0,0.0,0.0,0.0,0.0,0.0,0.0,0.0,0.0,0.0,0.0,0.0,0.0,0.0,0.0,0.0,0.0,0.0,0.0,0.0,0.0,0.0,0.0,0.0,0.0,0.0,0.0,0.0,0.0,0.0,0.0,0.0,0.0,0.0,0.0,0.0,0.0,0.0,0.0,0.0,0.0,0.0,0.0,0.0,0.0,0.0,0.0,0.0,0.0,0.0,0.0,0.0,0.0,0.0,0.0,0.0,0.0,0.0,0.0,0.0,0.0,0.0,0.0,0.0,0.0,0.0,0.0,0.0,0.0,0.0,0.0,0.0,0.0,0.0,0.0,0.0,0.0,0.0,0.0,0.0,0.0,0.0,0.0,0.0,0.0,0.0,0.0,0.0,0.0,0.0,0.0,0.0,0.0,0.0,0.0,0.0,0.0,0.0,0.0,0.0,0.0,0.0,0.0,0.0,0.0,0.0,0.0,0.0,0.0,0.0,0.0,0.0,0.0,0.0,0.0,0.0,0.0,0.0,0.0,0.0,0.0,0.0,0.0,0.0,0.0,0.0,0.0,0.0,0.0,0.0,0.0,0.0,0.0,0.0,0.0,0.0,0.0,0.0,0.0,0.0,0.0,0.0,0.0,0.0,0.0,0.0,0.0,0.0,0.0,0.0,0.0,0.0,0.0,0.0,0.0,0.0,0.0,0.0,0.0,0.0,0.0,0.0,0.0,0.0,0.0,0.0,0.0,0.0,0.0,0.0,0.0,0.0,0.0,0.0,0.0,0.0,0.0,0.0,0.0,0.0,0.0,0.0,0.0,0.0,0.0,0.0,0.0,0.0,0.0,0.0,0.0,0.0,0.0,0.0,0.0,0.0,0.0,0.0,0.0,0.0,0.0,0.0,0.0,0.0,0.0,0.0,0.0,0.0,0.0,0.0,0.0,0.0,0.0,0.0,0.0,0.0,0.0,0.0,0.0,0.0,0.0,0.0,0.0,0.0,0.0,0.0,0.0,0.0,0.0,0.0,0.0,0.0,0.0,0.0,0.0,0.0,0.0,0.0,0.0,0.0,0.0,0.0,0.0,0.0,0.0,0.0,0.0,0.0,0.0,0.0,0.0,0.0,0.0,0.0,0.0,0.0,0.0,0.0,0.0,0.0,0.0,0.0,0.0,0.0,0.0,0.0,0.0,0.0,0.0,0.0,0.0,0.0,0.0,0.0,0.0,0.0,0.0,0.0,0.0,0.0,0.0,0.0,0.0,0.0,0.0,0.0,0.0,0.0,0.0,0.0,0.0,0.0,0.0,0.0,0.0,0.0,0.0,0.0,0.0,0.0,0.0,0.0,0.0,0.0,0.0,0.0,0.0,0.0,0.0,0.0,0.0,0.0,0.0,0.0,0.0,0.0,0.0,0.0,0.0,0.0,0.0,0.0,0.0,0.0,0.0,0.0,0.0,0.0,0.0,0.0,0.0,0.0,0.0,0.0,0.0,0.0,0.0,0.0,0.0,0.0,0.0,0.0,0.0,0.0,0.0,0.0,0.0,0.0,0.0,0.0,0.0,0.0,0.0,0.0,0.0,0.0,0.0,0.0,0.0,0.0,0.0,0.0,0.0,0.0,0.0,0.0,0.0,0.0,0.0,0.0,0.0,0.0,0.0,0.0,0.0,0.0,0.0,0.0,0.0,0.0,0.0,0.0,0.0,0.0,0.0,0.0,0.0,0.0,0.0,0.0,0.0,0.0,0.0,0.0,0.0,0.0,0.0,0.0,0.0,0.0,0.0,0.0,0.0,0.0,0.0,0.0,0.0,0.0,0.0,0.0,0.0,0.0,0.0,0.0,0.0,0.0,0.0,0.0,0.0,0.0,0.0,0.0,0.0,0.0,0.0,0.0,0.0,0.0,0.0,0.0,0.0,0.0,0.0,0.0,0.0,0.0,0.0,0.0,0.0,0.0,0.0,0.0,0.0,0.0,0.0,0.0,0.0,0.0,0.0,0.0,0.0,0.0,0.0,0.0,0.0,0.0,0.0,0.0,0.0,0.0,0.0,0.0,0.0,0.0,0.0,0.0,0.0,0.0,0.0,0.0,0.0,0.0,0.0,0.0,0.0,0.0,0.0,0.0,0.0,0.0,0.0,0.0,0.0,0.0,0.0,0.0,0.0,0.0,0.0,0.0,0.0,0.0,0.0,0.0,0.0,0.0,0.0,0.0,0.0,0.0,0.0,0.0,0.0,0.0,0.0,0.0,0.0,0.0,0.0,0.0,0.0,0.0,0.0,0.0,0.0,0.0,0.0,0.0,0.0,0.0,0.0,0.0,0.0,0.0,0.0,0.0,0.0,0.0,0.0,0.0,0.0,0.0,0.0,0.0,0.0,0.0,0.0,0.0,0.0,0.0,0.0,0.0,0.0,0.0,0.0,0.0,0.0,0.0,0.0,0.0,0.0,0.0,0.0,0.0,0.0,0.0,0.0,0.0,0.0,0.0,0.0,0.0,0.0,0.0,0.0,0.0,0.0,0.0,0.0,0.0,0.0,0.0,0.0,0.0,0.0,0.0,0.0,0.0,0.0,0.0,0.0,0.0,0.0,1.7207,1.7883,0.0,0.0,0.0,0.0,0.0,0.0,0.0,0.0,0.0,0.0,0.0,0.0,0.0,0.0,0.0,0.0,0.0,0.0,0.0,0.0,0.0,0.0,0.0,2.337,2.3862,2.3846,2.4048,2.4202,2.4202,2.4385,2.4489,2.4489,2.4654,2.4856,2.5076,2.5095,2.5278,2.5682,2.5682,2.5884,2.627,2.609,2.5999,2.5994,0.0,0.0,0.0,0.0,0.0,0.0,0.0,0.0,0.0,0.0,0.0,0.0,0.0,0.0,0.0,0.0,0.0,0.0,0.0,0.0,0.0,0.0,0.0,0.0,0.0,0.0,0.0,0.0,0.0,0.0,0.0,0.0,0.0,0.0,0.0,0.0,0.0,0.0,0.0,0.0,0.0,0.0,0.0,0.0,0.0,0.0,0.0,0.0,0.0,0.0,0.0,0.0,0.0,0.0,0.0,0.0,0.0,0.0,0.0,0.0,0.0,0.0,0.0,0.0,0.0,0.0,0.0,0.0,0.0,0.0,1.7355,1.7337,0.0,0.0,0.0,0.0,0.0,0.0,0.0,0.0,0.0,0.0,0.0,0.0,0.0,0.0,0.0,0.0,0.0,0.0,0.0,0.0,0.0,2.3176,2.3015,2.3666,2.4165,2.4275,2.4385,2.4422,2.4422,2.4709,2.4911,2.4911,2.5223,2.5425,2.5499,2.5572,2.5811,2.6196,2.6416,2.682,2.7407,2.7459,2.7189,2.6675,2.6521,0.0,0.0,0.0,0.0,0.0,0.0,0.0,0.0,0.0,0.0,0.0,0.0,0.0,0.0,0.0,0.0,0.0,0.0,0.0,0.0,0.0,0.0,0.0,0.0,0.0,0.0,0.0,0.0,0.0,0.0,0.0,0.0,0.0,0.0,0.0,0.0,0.0,0.0,0.0,0.0,0.0,0.0,0.0,0.0,0.0,0.0,0.0,0.0,0.0,0.0,0.0,0.0,0.0,0.0,0.0,0.0,0.0,0.0,0.0,0.0,0.0,0.0,0.0,1.8309,1.8383,1.8707,1.862,1.7969,1.6952,1.7377,1.6592,1.5124,1.6148,0.0,0.0,0.0,0.0,0.0,0.0,0.0,0.0,0.0,0.0,0.0,0.0,0.0,0.0,0.0,0.0,0.0,0.0,0.0,2.3945,2.3479,2.4332,2.4888,2.4709,2.504,2.5242,2.5242,2.5297,2.5315,2.5315,2.537,2.5554,2.5902,2.627,2.6655,2.7041,2.8105,2.8487,2.8226,2.8183,2.7773,2.6987,2.6244,2.5919,2.5874,0.0,0.0,0.0,0.0,0.0,0.0,0.0,0.0,0.0,0.0,0.0,0.0,0.0,0.0,0.0,0.0,0.0,0.0,0.0,0.0,0.0,0.0,0.0,0.0,0.0,0.0,0.0,0.0,0.0,0.0,0.0,0.0,0.0,0.0,0.0,0.0,0.0,0.0,0.0,0.0,0.0,1.6648,1.5039,0.0,0.0,0.0,0.0,0.0,0.0,0.0,0.0,0.0,0.0,0.0,0.0,0.0,1.8336,1.879,1.7961,1.7759,1.8148,1.7112,1.6784,1.7111,1.6677,1.6548,1.6609,1.6261,0.0,1.5274,1.5198,0.0,0.0,0.0,0.0,0.0,0.0,0.0,0.0,0.0,0.0,0.0,0.0,0.0,0.0,0.0,0.0,0.0,0.0,0.0,0.0,0.0,2.4711,2.5308,2.5443,2.6251,2.6453,2.5774,2.6582,2.6784,2.6104,2.6508,2.682,2.7004,2.7327,2.7594,2.7741,2.8571,2.8616,2.8013,2.7758,2.7625,2.7445,2.6261,2.5561,2.5203,2.4283,0.0,0.0,0.0,0.0,0.0,0.0,0.0,0.0,0.0,0.0,0.0,0.0,0.0,0.0,0.0,0.0,0.0,0.0,0.0,0.0,0.0,0.0,0.0,0.0,0.0,0.0,0.0,0.0,0.0,0.0,0.0,0.0,0.0,0.0,0.0,0.0,0.0,0.0,0.0,1.7227,1.702,1.6371,1.654,1.7023,0.0,0.0,0.0,0.0,0.0,0.0,0.0,0.0,0.0,1.7617,1.8099,1.8273,1.8061,1.7757,1.7785,1.8161,1.7271,1.7047,1.7394,1.6988,1.683,1.6966,1.6827,1.6495,1.5955,1.5176,1.4592,1.4129,0.0,0.0,0.0,0.0,1.3266,1.3667,0.0,0.0,0.0,0.0,0.0,0.0,0.0,0.0,0.0,0.0,0.0,0.0,2.4649,2.5724,2.6543,2.6756,2.7683,2.783,2.682,2.761,2.7673,2.6774,2.7224,2.7536,2.7646,2.794,2.8096,2.813,2.8727,2.8636,2.7931,2.7848,2.786,2.7881,2.666,2.5734,2.5056,2.433,2.3385,2.2306,0.0,0.0,0.0,0.0,0.0,0.0,0.0,0.0,0.0,0.0,0.0,0.0,0.0,0.0,0.0,0.0,0.0,0.0,0.0,0.0,0.0,0.0,0.0,0.0,0.0,0.0,0.0,0.0,0.0,0.0,0.0,0.0,0.0,0.0,0.0,0.0,0.0,1.6775,1.6965,1.6623,1.6543,1.6894,0.0,0.0,0.0,0.0,0.0,0.0,1.7605,1.8176,1.8292,1.7742,1.8287,1.8186,1.7447,1.7706,1.7969,1.8224,1.7745,1.7754,1.8053,1.7682,1.7477,1.744,1.7401,1.7106,1.6574,1.5537,1.4712,1.4061,1.3535,1.3323,1.3316,1.2995,1.3301,1.3867,0.0,0.0,0.0,0.0,0.0,0.0,0.0,0.0,0.0,0.0,0.0,2.5763,2.59,2.7929,2.9175,2.8888,2.9262,2.9317,2.8895,2.7867,2.7243,2.7169,2.6857,2.6857,2.7224,2.7578,2.781,2.8003,2.8877,2.906,2.8652,2.9232,2.9041,2.8249,2.7554,2.6865,2.6097,2.4176,2.3194,2.2857,2.1654,0.0,0.0,0.0,0.0,0.0,0.0,0.0,0.0,0.0,0.0,0.0,0.0,0.0,0.0,0.0,0.0,0.0,0.0,0.0,0.0,0.0,0.0,0.0,0.0,0.0,0.0,0.0,0.0,0.0,0.0,0.0,0.0,0.0,0.0,0.0,0.0,0.0,0.0,1.4134,1.5445,0.0,0.0,0.0,0.0,1.7076,1.6836,1.6782,1.7104,1.7339,1.7436,1.732,1.807,1.8184,1.7526,1.8187,1.8439,1.8269,1.8262,1.8358,1.8537,1.8174,1.7896,1.7761,1.739,1.7024,1.6728,1.6131,1.5475,1.4906,1.4425,1.4211,1.4234,1.4091,1.4146,1.4289,0.0,0.0,0.0,0.0,0.0,2.4173,2.4433,2.4182,2.4122,2.4628,2.54,2.6349,2.7426,2.8983,3.023,3.0864,3.1286,3.1121,3.0204,2.9507,2.8883,2.8399,2.7575,2.727,2.7589,2.7752,2.7962,2.8254,2.8836,2.8971,2.8634,2.8841,2.8862,2.8722,2.8299,2.7891,2.7397,2.5531,2.4134,2.3152,2.2693,2.1691,0.0,0.0,0.0,0.0,0.0,0.0,0.0,0.0,0.0,0.0,0.0,0.0,0.0,0.0,0.0,0.0,0.0,0.0,0.0,0.0,0.0,0.0,0.0,0.0,0.0,0.0,0.0,0.0,0.0,0.0,0.0,0.0,0.0,0.0,0.0,0.0,0.0,1.6662,1.6897,0.0,1.7673,1.7332,1.7236,1.7576,1.7758,1.8031,1.8516,1.88,1.8929,1.8843,1.9182,1.9158,1.8655,1.915,1.9345,1.9248,1.9024,1.8834,1.8798,1.8398,1.806,1.788,1.7813,1.7704,1.7487,1.7122,1.6492,1.5649,1.5303,1.516,1.51,1.4991,1.4912,1.4852,0.0,0.0,0.0,0.0,0.0,2.4627,2.4671,2.4399,2.4435,2.5097,2.6106,2.7336,2.8828,3.0665,3.2044,3.2753,3.3046,3.2625,3.1286,3.0111,2.913,2.8336,2.7482,2.7133,2.7404,2.7838,2.8171,2.8364,2.8898,2.9076,2.8911,2.9112,2.9299,2.9472,2.9285,2.9032,2.87,2.7388,2.5825,2.4168,2.3674,2.2766,2.1689,0.0,0.0,0.0,0.0,0.0,0.0,0.0,0.0,0.0,0.0,0.0,0.0,0.0,0.0,0.0,0.0,0.0,0.0,0.0,0.0,0.0,0.0,0.0,0.0,0.0,0.0,0.0,0.0,0.0,0.0,0.0,0.0,0.0,0.0,1.6893,1.7144,1.8072,1.7948,1.8074,1.8629,1.8046,1.7849,1.8387,1.8656,1.9024,1.9551,1.9855,1.9854,1.956,1.9858,1.9705,1.9043,1.9478,1.9665,1.9454,1.9213,1.8979,1.8888,1.8635,1.8409,1.8235,1.8378,1.8287,1.8014,1.7033,1.6178,1.5517,1.5765,1.5788,1.5671,1.4724,1.4346,1.4199,0.0,0.0,0.0,0.0,0.0,2.4745,2.4276,2.422,2.4514,2.5315,2.7058,2.8764,3.0125,3.3058,3.4795,3.4512,3.444,3.3743,3.2115,2.9568,2.7735,2.6885,2.6472,2.639,2.6613,2.7784,2.8377,2.8371,2.9168,2.9539,2.9579,3.0154,3.0375,3.0375,3.033,3.0111,2.9774,2.9513,2.8063,2.5868,2.4462,2.387,2.3629,0.0,0.0,0.0,0.0,0.0,0.0,0.0,0.0,0.0,0.0,0.0,0.0,0.0,0.0,0.0,0.0,0.0,0.0,0.0,0.0,0.0,0.0,0.0,0.0,0.0,0.0,0.0,0.0,0.0,0.0,0.0,0.0,0.0,1.7221,1.7497,1.7712,1.7867,1.839,1.868,1.855,1.8277,1.8525,1.9464,1.9458,1.9659,2.0171,2.0349,2.0041,1.9241,1.9919,1.972,1.8565,1.9228,1.9356,1.8854,1.8854,1.8841,1.8841,1.8938,1.8918,1.8782,1.8938,1.8713,1.8194,1.5647,1.4443,1.4332,1.5608,1.6014,1.5664,1.3309,1.2427,1.2147,0.0,0.0,0.0,2.4947,2.4671,2.4399,2.4406,2.4534,2.5006,2.5982,2.7937,3.0002,3.2069,3.4154,3.5595,3.6109,3.5321,3.3958,3.1901,2.9734,2.7693,2.5817,2.6032,2.6515,2.7178,2.7888,2.8763,2.981,3.0258,3.0755,3.1336,3.0359,3.0013,3.0141,2.8728,2.7962,2.7688,2.7202,2.6409,2.5509,2.585,2.5224,2.3981,0.0,0.0,0.0,0.0,0.0,0.0,0.0,0.0,0.0,0.0,0.0,0.0,0.0,0.0,0.0,0.0,0.0,0.0,0.0,0.0,0.0,0.0,0.0,0.0,0.0,0.0,0.0,0.0,0.0,0.0,0.0,1.6976,1.7195,1.7111,1.7722,1.815,1.8108,1.9096,1.9557,1.9038,1.9174,1.9452,1.9819,1.9981,2.0234,2.0609,2.067,2.0443,1.9889,2.0216,2.0006,1.9183,1.9511,1.96,1.9473,1.9473,1.9359,1.9257,1.9291,1.8933,1.8385,1.8418,1.7261,1.5399,1.4653,1.345,1.1968,1.2018,1.1974,1.1882,1.106,1.0475,0.9987,0.0,0.0,0.0,2.5113,2.4926,2.474,2.4765,2.4935,2.5511,2.6739,2.8629,3.0733,3.3111,3.4838,3.5869,3.5836,3.4918,3.3162,3.0446,2.8278,2.6658,2.5672,2.6185,2.7074,2.8276,2.8944,2.9838,3.0962,3.0729,3.0902,3.1331,2.9824,2.9155,2.919,2.815,2.7486,2.7195,2.6965,2.6554,2.6106,2.6367,2.5537,2.4099,2.3629,2.3045,2.2508,2.2529,2.2465,2.2265,2.1515,0.0,0.0,0.0,0.0,0.0,0.0,0.0,0.0,0.0,0.0,0.0,0.0,0.0,0.0,0.0,0.0,0.0,0.0,0.0,0.0,0.0,0.0,0.0,0.0,1.78,1.8491,1.8533,1.8907,1.9181,1.915,1.9969,2.0306,1.9789,1.9751,1.9919,2.0308,2.0364,2.043,2.0678,2.0751,2.0553,2.0114,2.0204,2.0071,1.9712,1.98,1.9902,1.9841,1.9602,1.9345,1.9185,1.8895,1.8514,1.8005,1.8005,1.6593,1.431,1.3284,1.1539,0.9697,0.0,0.0,0.0,0.0,0.7831,0.6787,0.0,0.0,0.0,2.5015,2.5257,2.5421,2.5125,2.533,2.6025,2.7409,2.9165,3.1038,3.3166,3.4862,3.5442,3.4356,3.3533,3.1675,2.8397,2.6127,2.5305,2.6158,2.6785,2.7934,2.9686,3.0536,3.1156,3.1625,3.0859,3.039,3.0201,2.8795,2.8042,2.7891,2.7934,2.7715,2.732,2.7493,2.7242,2.6698,2.5957,2.5111,2.4154,2.3802,2.3699,2.3729,2.3712,2.3396,2.2846,2.234,0.0,0.0,0.0,0.0,0.0,0.0,0.0,0.0,0.0,0.0,0.0,0.0,0.0,0.0,0.0,0.0,0.0,0.0,0.0,0.0,0.0,0.0,0.0,0.0,1.8551,1.965,2.0441,2.0473,2.0412,2.0434,2.0724,2.0785,2.0459,2.0108,2.0157,2.0709,2.0481,2.0409,2.0558,2.0685,0.0,0.0,0.0,2.007,2.0008,2.0028,1.9959,1.9883,1.9273,1.8946,1.8799,1.8182,1.7695,1.7256,1.7256,1.59,1.3471,1.1277,0.9101,0.7337,0.8881,0.9438,0.9008,0.6825,0.4995,0.3611,0.0,0.0,0.0,2.5211,2.5406,2.5472,2.5151,2.5726,2.6544,2.7474,2.9405,3.0874,3.1384,3.2932,3.3587,3.2746,3.1711,3.0053,2.7497,2.5911,2.5561,2.6703,2.7917,2.9212,3.0526,3.1417,3.1609,3.1064,3.0876,3.0349,2.9377,2.7954,2.7208,2.7176,2.6032,2.5306,2.4957,2.5006,2.462,2.4052,2.3884,2.4259,2.4846,2.4185,2.3648,2.3219,2.3228,2.319,2.3161,2.3275,2.3339,2.3493,2.3648,2.2565,0.0,0.0,0.0,0.0,0.0,0.0,0.0,0.0,0.0,0.0,0.0,0.0,0.0,0.0,0.0,0.0,0.0,0.0,0.0,1.826,1.9147,1.9945,2.0311,2.0629,2.0802,2.0609,2.0533,2.0364,1.9882,1.9859,2.0004,2.0189,2.0182,2.0168,2.0203,2.0223,2.0195,2.0098,2.0227,1.9974,1.9452,1.957,1.9267,1.8648,1.8565,0.0,1.8262,1.8185,1.6886,1.4704,1.4704,1.2287,0.8309,0.7876,0.6462,0.462,0.4997,0.5076,0.492,0.4436,0.4055,0.3737,0.0,0.0,0.0,2.5479,2.5697,2.564,2.5058,2.542,2.5918,2.627,2.7593,2.8853,2.9602,3.0495,3.0731,2.9913,2.8264,2.6914,2.6206,2.5907,2.6542,2.8322,2.9373,3.0116,3.0594,3.1171,3.1002,2.9947,2.9377,2.8845,2.8359,2.6932,2.6221,2.6078,2.5493,2.4958,2.4633,2.4693,2.4438,2.3946,2.3842,2.4099,2.4538,2.4215,2.375,2.3299,2.3765,2.3813,2.3596,2.3559,2.3598,2.3645,2.3647,2.249,2.098,0.0,0.0,0.0,0.0,0.0,0.0,0.0,0.0,0.0,0.0,0.0,0.0,0.0,0.0,1.6548,1.6828,0.0,1.8384,1.8855,1.9681,2.0433,2.078,2.055,2.0388,2.0421,2.0553,2.0429,1.9936,2.001,2.0139,2.0207,2.0349,2.0304,1.9932,1.9934,1.984,1.9528,1.9529,1.9446,1.912,1.9182,1.9002,1.8607,1.823,1.8036,1.7835,1.6422,1.4964,1.3533,1.2416,1.0054,0.6895,0.5833,0.4869,0.397,0.3956,0.3904,0.3838,0.3838,0.3827,0.3877,0.0,0.0,0.0,2.5693,2.6019,2.594,2.4961,2.512,2.5277,2.4952,2.5716,2.6627,2.7571,2.7944,2.7735,2.6729,2.513,2.451,2.5335,2.6246,2.7736,2.9993,3.0755,3.0947,3.0551,3.0947,3.0351,2.8721,2.7834,2.7326,2.7159,2.608,2.5477,2.5336,2.5534,2.5411,2.508,2.526,2.508,2.4693,2.4513,2.4324,2.417,2.4177,2.3825,2.3463,2.4163,2.4,2.3533,2.3512,2.3413,2.3269,2.3339,2.2288,2.0818,1.9959,1.8347,0.0,0.0,0.0,0.0,0.0,0.0,0.0,0.0,1.5674,1.5698,1.6414,1.6765,1.7165,1.7777,1.8548,1.9129,1.9082,1.9856,2.0479,2.0647,2.0052,1.9669,1.9949,2.0277,2.0395,2.0033,2.0091,2.0115,2.0015,2.0284,2.018,1.9599,1.963,1.9446,1.8943,1.889,1.889,1.879,1.882,1.8487,1.7868,1.734,1.6815,1.6182,1.3906,1.2585,1.1911,0.9719,0.7906,0.6316,0.4672,0.3978,0.3978,0.3978,0.3981,0.3893,0.3947,0.3947,0.3943,0.0,0.0,0.0,0.0,0.0,2.6404,2.5013,2.5469,2.5647,2.4668,2.5538,2.5802,2.4696,2.5502,2.5446,2.3726,2.4533,2.5368,2.5954,2.7243,2.8807,3.0608,3.1805,3.1998,3.1131,3.1597,3.0517,2.7739,2.7617,2.6949,2.5756,2.5741,2.5723,2.5723,2.5921,2.5931,2.5676,2.5695,2.5469,2.5128,2.5109,2.4986,2.4756,2.4223,2.375,2.3269,2.3048,2.2423,2.1972,2.3102,2.3,2.2571,2.393,2.3283,2.1708,1.9964,1.8356,1.6753,1.4985,1.4653,1.4824,1.5139,1.535,1.553,0.0,1.6287,1.6769,1.7351,1.7548,1.7906,1.8976,1.9167,1.9042,1.8733,1.9106,1.9226,1.8535,1.8586,1.8663,1.8808,1.9197,1.9557,1.9715,1.9747,1.9548,1.9099,1.9065,1.9077,1.9012,1.9031,1.9027,1.9018,1.8964,1.8761,1.8271,1.8393,1.7105,1.4338,1.4516,1.3435,1.1214,1.0999,0.9821,0.7866,0.5697,0.4616,0.4397,0.4113,0.3978,0.3978,0.3978,0.3971,0.4016,0.3988,0.3981,0.3978,0.0,0.0,0.0,0.0,0.0,2.6146,2.4316,2.4634,2.4468,2.2814,2.3001,2.315,2.2736,2.2941,2.2804,2.2003,2.3447,2.4884,2.5961,2.7874,2.9713,3.1476,3.2407,3.2481,3.1802,3.1133,2.9927,2.814,2.7095,2.632,2.5818,2.595,2.595,2.6007,2.6082,2.6082,2.595,2.595,2.5827,2.5525,2.5525,2.5383,2.5005,2.4372,2.3805,2.3149,2.2179,2.1414,0.0,2.141,2.1302,2.1095,2.2009,2.1481,2.0245,1.8907,1.7561,1.6236,1.5033,1.4536,1.4574,1.5253,1.5539,1.5868,1.655,1.6924,1.7337,1.8084,1.844,1.8628,1.8815,1.9029,1.8926,1.8199,1.844,1.8617,1.8371,1.8191,1.8194,1.864,1.8479,1.8607,1.9197,1.9297,1.926,1.9133,1.9151,1.9008,1.877,1.8639,1.8451,1.8121,1.6901,1.611,1.5885,1.4643,1.3358,1.2026,1.2166,1.1645,1.0567,0.9343,0.759,0.5432,0.4557,0.4137,0.411,0.4099,0.4029,0.4029,0.4029,0.4029,0.4022,0.4041,0.4023,0.4016,0.0,0.0,0.0,0.0,0.0,0.0,0.0,0.0,2.3676,2.1603,2.1349,2.1438,2.1678,2.1314,2.1078,2.1091,2.2502,2.4071,2.5636,2.7776,2.9847,3.1784,3.2666,3.2846,3.2301,3.0844,2.959,2.8592,2.6789,2.5978,2.6129,2.6129,2.6129,2.6129,2.6129,2.6129,2.6129,2.6129,2.6007,2.577,2.577,2.5553,2.5033,2.4353,2.3545,2.2557,2.1442,2.0555,1.9894,1.9621,1.9459,1.9414,1.9825,1.9527,1.8785,1.7793,1.6581,1.5473,1.5105,1.4852,1.4844,1.5682,1.6114,1.6491,1.7212,1.7567,1.793,1.866,1.887,1.8818,1.862,1.8634,1.8458,1.7648,1.7818,1.8031,1.7971,1.7622,1.7586,1.7972,1.7611,1.7511,1.809,1.8576,1.8791,1.8759,1.8759,1.8384,1.7454,1.7316,1.6779,1.5733,1.4159,1.3338,1.3371,1.1718,1.0618,1.0002,0.9977,0.9669,0.9008,0.738,0.574,0.4197,0.4197,0.4177,0.4142,0.4152,0.4146,0.4131,0.4137,0.4137,0.4124,0.4018,0.3998,0.4048,0.0,0.0,0.0,0.0,0.0,0.0,0.0,0.0,0.0,2.1945,2.1684,2.1685,2.1692,2.1104,2.0835,2.1074,2.1913,2.3207,2.5021,2.6774,2.8804,3.1156,3.2603,3.3095,3.252,3.1289,3.0032,2.8786,2.6966,2.6072,2.6129,2.6129,2.6129,2.6129,2.6129,2.6129,2.6129,2.6129,2.6007,2.577,2.577,2.5458,2.4806,2.3965,2.2638,2.1201,2.0759,1.9923,1.8937,1.8148,1.7723,1.7634,1.8033,1.8147,1.7922,1.6783,1.5495,1.456,1.5136,1.5524,1.5897,1.6491,1.7138,1.769,1.786,1.8258,1.8682,1.9106,1.8576,1.8222,1.8964,1.8351,1.7598,1.718,1.7304,1.7268,1.6743,1.6641,1.6554,1.6394,1.6253,1.6242,1.6351,1.7436,1.7954,1.7466,1.7493,1.6518,1.4448,1.4325,1.3398,1.1285,1.1144,1.1182,1.132,1.125,1.0065,0.7906,0.7925,0.6726,0.4577,0.4516,0.4455,0.4327,0.4327,0.4292,0.4173,0.4204,0.4184,0.4135,0.4162,0.4155,0.4131,0.4128,0.411,0.4075,0.0,0.0,0.0,0.0,0.0,0.0,0.0,0.0,0.0,0.0,0.0,0.0,0.0,0.0,0.0,0.0,2.189,2.2926,2.4165,2.64,2.8323,2.9668,3.1557,3.2809,3.3407,3.218,3.1083,3.0154,2.8474,2.7054,2.5931,2.6016,2.6129,2.6129,2.6129,2.6129,2.6072,2.5978,2.5921,2.5921,2.5279,2.4873,2.4532,2.2789,2.1396,2.0171,0.0,1.7524,1.6972,1.6704,1.639,1.6193,1.6641,1.6551,1.6063,1.5077,1.4672,1.4604,1.5294,1.5676,1.6097,1.707,1.7569,1.7818,1.7804,1.8017,1.8174,1.8098,1.7625,1.7168,1.7052,1.6803,1.6424,1.6021,1.641,1.6761,1.6625,1.6712,1.6614,1.6217,1.6206,1.6179,1.6065,1.659,1.7021,1.7382,1.5935,1.4828,1.4433,1.2938,1.1772,1.1153,0.9692,0.8868,0.8957,0.7491,0.6374,0.5606,0.5567,0.5124,0.4414,0.4372,0.4388,0.4331,0.4331,0.424,0.4204,0.4215,0.4193,0.4159,0.417,0.4155,0.4131,0.4131,0.4124,0.411,0.0,0.0,0.0,0.0,0.0,0.0,0.0,0.0,0.0,0.0,0.0,0.0,0.0,0.0,0.0,0.0,0.0,2.2338,2.3233,2.517,2.6787,2.7896,2.9606,3.1036,3.2131,3.0922,2.9888,2.918,2.7706,2.6283,2.4903,2.5232,2.5383,2.5458,2.5534,2.5534,2.5458,2.5336,2.5184,2.4875,2.3893,2.3259,2.274,2.095,1.95,0.0,1.6808,1.5719,1.4928,1.5081,1.4897,1.4686,1.5035,1.4968,1.4612,1.4121,1.4335,1.4878,1.5768,1.6084,1.6402,1.7351,1.7575,1.7586,1.7593,1.7724,1.7719,1.7341,1.6859,1.6298,1.5929,1.5573,1.5297,1.5265,1.57,1.5879,1.5388,1.539,1.5029,1.3957,1.3819,1.3795,1.3701,1.3819,1.4549,1.6035,1.4049,1.2564,1.2119,1.0647,0.9544,0.8817,0.7419,0.6654,0.6654,0.5186,0.4477,0.4456,0.4446,0.4417,0.4369,0.4358,0.4395,0.4281,0.4281,0.4264,0.4236,0.4247,0.4225,0.4191,0.4191,0.4173,0.4146,0.4135,0.4137,0.4142,0.0,0.0,0.0,0.0,0.0,0.0,0.0,0.0,0.0,0.0,0.0,0.0,0.0,0.0,0.0,0.0,0.0,0.0,2.2265,2.3233,2.4405,2.5797,2.6987,2.8043,2.8881,2.7813,2.6898,2.6211,2.5109,2.4147,2.332,2.3677,2.397,2.416,2.4368,2.4296,2.415,2.4141,2.3635,2.281,2.1779,2.0805,1.9786,1.8576,1.7007,1.5507,1.5611,1.4477,1.3043,1.3459,1.3435,1.3252,1.343,1.3542,1.3663,1.3962,1.4481,1.5234,1.6384,1.6688,1.6839,1.746,1.7276,1.7094,1.7234,1.7343,1.7313,1.6917,1.6224,1.563,1.5438,1.4592,1.4153,1.4749,1.4863,1.4446,1.3058,1.2858,1.2075,0.9948,0.9632,0.9554,0.9675,0.962,1.065,1.3243,1.1767,0.9894,0.7893,0.7678,0.6654,0.4558,0.4488,0.4488,0.4488,0.4488,0.4459,0.4403,0.4432,0.4397,0.4316,0.4345,0.4337,0.4313,0.4309,0.4292,0.4267,0.4298,0.4274,0.4222,0.4218,0.4202,0.417,0.4142,0.4148,0.4166,0.0,0.0,0.0,0.0,0.0,0.0,0.0,0.0,0.0,0.0,0.0,0.0,0.0,0.0,0.0,0.0,0.0,0.0,2.143,2.2699,2.3607,2.3981,2.5745,2.7041,2.7709,2.7859,2.7439,2.6438,2.5742,2.4611,2.3147,2.2552,2.2327,2.2336,2.2154,2.2057,2.2,2.1782,2.1489,2.1122,2.006,1.9407,1.8953,1.7478,1.6233,1.5149,1.4838,1.38,1.2692,1.348,1.3544,1.3308,1.3498,1.3645,1.3863,1.4558,1.4919,1.5276,1.6086,1.6445,1.6756,1.7265,1.7388,1.7254,1.6957,1.6672,1.632,1.5602,1.4703,1.3984,1.3918,1.277,1.1928,1.2321,1.1909,1.1431,1.1085,1.1157,1.0916,1.0019,0.9962,0.9946,0.9859,0.8572,0.8058,0.8822,0.8457,0.8094,0.7824,0.6213,0.5116,0.4488,0.4488,0.4488,0.4488,0.4488,0.448,0.4466,0.4448,0.4363,0.4407,0.4372,0.4419,0.4341,0.432,0.4305,0.4298,0.4305,0.4289,0.4249,0.4229,0.4202,0.417,0.4142,0.4148,0.417,0.0,0.0,0.0,0.0,0.0,0.0,0.0,0.0,0.0,0.0,0.0,0.0,0.0,0.0,0.0,0.0,0.0,0.0,0.0,2.1851,2.2438,2.2726,2.3848,2.4767,2.5355,2.5824,2.5595,2.4666,2.4217,2.3348,2.2169,2.1198,2.0783,2.0914,2.0619,2.0431,2.0337,2.0037,1.9676,0.0,0.0,1.7416,1.7048,1.6116,1.5108,1.4222,1.4463,1.3824,1.3015,1.351,1.3551,1.3402,1.3739,1.4061,1.4496,1.5316,1.5635,1.5865,1.6756,1.6793,1.6656,1.7055,1.6867,1.6544,1.5974,1.5705,1.5268,1.4266,1.3607,1.314,1.2982,1.1596,1.0684,1.1138,1.0379,0.9497,0.8877,0.8887,0.8603,0.7553,0.7524,0.7536,0.7473,0.646,0.593,0.5971,0.5961,0.6082,0.6304,0.5168,0.4488,0.4488,0.4488,0.4488,0.4488,0.4488,0.448,0.4466,0.4448,0.4365,0.4421,0.4376,0.4422,0.4422,0.4323,0.4309,0.4309,0.4309,0.4298,0.4281,0.4249,0.4229,0.4208,0.418,0.4187,0.4211,0.0,0.0,0.0,0.0,0.0,0.0,0.0,0.0,0.0,0.0,2.313,2.2296,2.0614,2.0755,0.0,0.0,0.0,0.0,0.0,0.0,2.1336,2.1844,2.1951,2.2251,2.2773,2.3086,2.2971,2.2382,2.1989,2.1494,2.0928,1.9896,1.9519,1.9624,1.9519,1.9292,1.9005,1.883,1.8276,1.7478,1.6324,1.5544,1.5058,0.0,1.4164,1.3271,1.4166,1.4052,1.3523,1.361,1.3634,1.3695,1.4227,1.4813,1.5432,1.6192,1.6406,1.6635,1.7555,1.7097,1.6446,1.6731,1.6149,1.5374,1.4855,1.4586,1.4195,1.3091,1.2803,1.2661,1.2427,1.101,1.007,1.0519,0.9453,0.806,0.6582,0.6534,0.6042,0.4438,0.4267,0.4282,0.4282,0.4282,0.4305,0.4429,0.4341,0.4361,0.4369,0.447,0.4488,0.4488,0.4488,0.4488,0.4488,0.4488,0.4473,0.4379,0.4376,0.4432,0.441,0.4376,0.4429,0.4426,0.433,0.4313,0.4309,0.4309,0.4309,0.4305,0.4274,0.4331,0.426,0.4229,0.424,0.4331,0.0,0.0,0.0,0.0,0.0,0.0,0.0,0.0,0.0,0.0,2.382,2.2183,0.0,0.0,0.0,0.0,0.0,0.0,0.0,0.0,0.0,2.1256,2.1724,2.2064,2.2138,2.2706,2.2924,2.2809,2.2147,2.1429,2.0721,1.9609,1.8787,1.8238,1.8487,1.8233,1.7703,1.8575,1.7995,1.6475,1.6506,1.5919,1.5023,1.5172,1.4717,0.0,1.3409,1.3211,1.3255,1.3609,1.4204,1.4821,1.5561,1.6225,1.6826,1.6929,1.6834,1.6747,1.6763,1.634,1.5944,1.602,1.5663,1.5179,1.4771,1.414,1.3466,1.2863,1.2346,1.2047,1.2178,1.1055,0.9808,0.896,0.7766,0.6404,0.4994,0.4762,0.4643,0.4429,0.4372,0.4376,0.4376,0.4376,0.439,0.4424,0.4421,0.4355,0.4372,0.447,0.4488,0.4488,0.4488,0.4488,0.4488,0.4488,0.4484,0.448,0.4452,0.4452,0.447,0.4417,0.4392,0.439,0.4361,0.4334,0.4309,0.4309,0.4309,0.4305,0.4274,0.4331,0.426,0.4229,0.424,0.4331,0.0,0.0,0.0,0.0,0.0,0.0,0.0,2.8038,2.7745,2.6708,2.5332,2.3756,2.1855,2.1409,2.1051,0.0,0.0,0.0,0.0,0.0,0.0,2.1336,2.1636,2.193,2.2205,2.2485,2.2779,2.31,0.0,2.1698,2.1453,1.9981,1.9231,1.9041,1.8838,1.8548,1.8223,1.8528,1.8072,1.7062,1.6628,1.6098,1.563,1.5615,1.5274,0.0,1.3544,1.3245,1.3375,1.3535,1.4373,1.5452,1.6198,1.689,1.7412,1.754,1.7303,1.6971,1.6831,1.6384,1.5951,1.6005,1.5613,1.501,1.4211,1.3564,1.2884,1.1966,1.1699,1.1645,1.1739,1.0716,0.9742,0.9381,0.7329,0.5635,0.548,0.4522,0.3997,0.4386,0.4428,0.4446,0.4446,0.4446,0.4452,0.4463,0.4466,0.4466,0.4466,0.448,0.4488,0.4488,0.4488,0.4488,0.4488,0.4488,0.4488,0.4488,0.4473,0.4466,0.4463,0.4435,0.4403,0.4376,0.4429,0.4337,0.4309,0.4309,0.4309,0.4309,0.4292,0.4289,0.4285,0.4271,0.4274,0.4289,0.0,0.0,0.0,0.0,0.0,0.0,0.0,2.7985,2.7933,2.7392,2.6958,2.573,2.3259,2.2651,2.1949,0.0,0.0,0.0,0.0,0.0,0.0,0.0,2.1555,2.1796,2.2218,0.0,0.0,2.3012,2.2245,0.0,0.0,0.0,0.0,0.0,1.9701,1.9416,1.9159,1.9123,1.8727,0.0,0.0,1.683,1.6638,0.0,0.0,0.0,0.0,1.3643,1.3626,1.3562,1.4251,1.5247,1.6018,1.6862,1.7533,1.7461,1.7268,1.7025,1.6913,1.6489,1.6108,1.6108,1.5613,1.4841,1.3684,1.3064,1.239,1.1172,1.1166,1.1406,1.1363,1.0657,1.0143,1.0201,0.7757,0.5992,0.6354,0.4827,0.3863,0.4379,0.4452,0.4488,0.4488,0.4488,0.4488,0.4488,0.4488,0.4488,0.4488,0.4488,0.4488,0.4488,0.4488,0.4488,0.4488,0.4488,0.4488,0.4488,0.4488,0.4473,0.4452,0.4376,0.4414,0.4433,0.4426,0.4337,0.4309,0.4309,0.4309,0.4309,0.4309,0.4309,0.4309,0.4309,0.4309,0.4309,0.0,0.0,0.0,0.0,0.0,0.0,0.0,2.8567,2.8703,2.8394,2.8111,2.7419,2.6053,2.4445,2.3053,0.0,0.0,0.0,0.0,0.0,0.0,0.0,0.0,0.0,0.0,0.0,0.0,2.2111,2.2051,0.0,0.0,0.0,0.0,0.0,0.0,2.0539,1.9723,2.0958,0.0,0.0,0.0,0.0,0.0,0.0,0.0,0.0,0.0,1.419,1.373,1.3901,1.3806,1.3744,1.4594,1.6054,1.7148,1.5945,1.6052,1.6478,1.6248,1.6171,1.6108,1.6108,1.5488,1.4686,1.3645,1.2808,1.1987,1.1101,1.1036,1.1199,1.1444,1.1627,1.142,1.0359,0.927,0.7996,0.6516,0.5436,0.4687,0.4444,0.4452,0.4488,0.4488,0.4488,0.4488,0.4488,0.4488,0.4488,0.4488,0.4488,0.4488,0.4488,0.4488,0.4488,0.4488,0.4488,0.4488,0.4488,0.4488,0.4488,0.4484,0.4456,0.4424,0.4392,0.4433,0.4337,0.4309,0.4309,0.4309,0.4309,0.4309,0.4309,0.4309,0.4309,0.4309,0.4309,0.0,0.0,0.0,0.0,0.0,0.0,2.7878,2.8128,2.828,2.8202,2.7983,2.7567,2.6909,2.6021,2.4703,2.2798,0.0,0.0,0.0,0.0,0.0,0.0,0.0,0.0,0.0,0.0,2.1836,2.1991,2.1991,0.0,0.0,0.0,0.0,0.0,0.0,2.1201,2.0764,2.112,0.0,0.0,0.0,0.0,0.0,0.0,0.0,0.0,0.0,0.0,1.3518,1.312,1.3043,1.312,1.2814,1.3657,1.4817,1.5184,1.5571,1.5841,1.5921,1.6108,1.6206,1.6119,1.5472,1.4648,1.3553,1.2667,1.1846,1.1079,1.1014,1.115,1.1357,1.1565,1.1402,1.0519,0.9017,0.7582,0.6606,0.5058,0.4119,0.4197,0.4305,0.439,0.4477,0.4488,0.4488,0.4488,0.4488,0.4488,0.4488,0.4488,0.4488,0.4488,0.4488,0.4488,0.4488,0.4488,0.4488,0.4488,0.4488,0.447,0.4435,0.4439,0.4407,0.4345,0.4352,0.4337,0.4309,0.4309,0.4309,0.4309,0.4309,0.4309,0.4309,0.4309,0.4309,0.4309,0.0,0.0,0.0,0.0,0.0,2.7168,2.7624,2.7912,2.8079,2.8009,2.7771,2.7512,2.7234,2.6873,2.5935,2.4072,2.3132,0.0,0.0,0.0,0.0,0.0,0.0,0.0,0.0,0.0,2.1555,2.1724,2.1724,2.1724,0.0,0.0,2.1643,2.1984,0.0,0.0,0.0,0.0,0.0,0.0,0.0,0.0,0.0,0.0,0.0,0.0,0.0,0.0,0.0,0.0,0.0,1.2326,1.1614,1.1818,1.2558,1.3957,1.4696,1.5197,1.5609,1.5967,1.6206,1.6076,1.5401,1.4477,1.3433,1.2542,1.1743,1.1058,1.1014,1.1053,1.0899,1.0976,1.083,1.0087,0.8374,0.7038,0.6816,0.5022,0.3896,0.4245,0.4243,0.4229,0.4379,0.4452,0.4488,0.4488,0.4488,0.4488,0.4488,0.4488,0.4488,0.4488,0.4488,0.4488,0.4488,0.4488,0.4488,0.4488,0.4488,0.4459,0.4414,0.4424,0.439,0.4323,0.4337,0.433,0.4309,0.4309,0.4309,0.4309,0.4309,0.4309,0.4309,0.4309,0.4309,0.4309,0.0,0.0,0.0,0.0,0.0,0.0,2.7624,2.8157,2.835,2.8047,2.7752,2.7521,2.7234,2.683,2.6455,2.609,2.4195,0.0,0.0,0.0,0.0,0.0,0.0,0.0,0.0,0.0,2.1122,2.1122,2.1122,2.1122,2.1122,2.1122,2.1122,2.1136,0.0,0.0,0.0,0.0,0.0,0.0,0.0,0.0,1.8307,0.0,0.0,0.0,0.0,0.0,0.0,0.0,0.0,0.0,0.0,1.1057,1.0828,1.1919,1.3205,1.4461,1.5064,1.5657,1.6076,1.5951,1.5206,1.4249,1.3344,1.2422,1.165,1.1004,1.1014,1.0837,0.9986,0.9915,0.9751,0.8948,0.7609,0.6824,0.7133,0.558,0.4459,0.4686,0.4202,0.4012,0.4162,0.4365,0.4488,0.4488,0.4488,0.4488,0.4488,0.4488,0.4488,0.4488,0.4488,0.4488,0.4488,0.4488,0.4488,0.4488,0.4488,0.447,0.4372,0.4414,0.4383,0.4419,0.4323,0.4309,0.4309,0.4309,0.4309,0.4309,0.4309,0.4309,0.4309,0.4309,0.4309,0.4309,0.0,0.0,0.0,0.0,0.0,0.0,0.0,2.8106,2.8079,2.8009,2.7508,2.7178,2.7197,2.6857,2.6464,2.6136,2.5158,0.0,0.0,0.0,0.0,0.0,0.0,0.0,0.0,2.0668,2.0846,2.0846,2.1015,2.1109,2.1109,2.1109,2.1216,2.1435,2.1296,2.0978,0.0,0.0,0.0,0.0,0.0,2.0063,1.9006,0.0,0.0,0.0,0.0,0.0,0.0,0.0,0.0,0.0,0.0,0.0,0.0,1.1041,1.2036,1.3107,1.3705,1.4178,1.4488,1.4363,1.3863,1.3232,1.2651,1.1998,1.1471,1.1118,1.1074,1.0858,1.0082,0.9962,0.9414,0.7656,0.7002,0.6296,0.518,0.4201,0.3592,0.337,0.3441,0.3813,0.4317,0.4448,0.4488,0.4488,0.4488,0.4488,0.4488,0.4488,0.4488,0.4488,0.4488,0.4488,0.4488,0.4488,0.4488,0.4488,0.4466,0.4441,0.4414,0.4383,0.4352,0.4323,0.4313,0.4309,0.4309,0.4309,0.4309,0.4309,0.4309,0.4309,0.4309,0.4309,0.4309,0.4309,0.0,0.0,0.0,0.0,0.0,0.0,0.0,2.797,2.7868,2.7782,2.7302,2.6974,2.6976,2.6738,2.6537,2.63,2.5882,0.0,0.0,0.0,0.0,0.0,0.0,0.0,2.0037,2.0361,2.0561,2.0712,2.0855,2.1002,2.1109,2.1109,2.1203,2.1408,2.1189,2.0834,0.0,0.0,0.0,0.0,2.0446,1.99,1.8606,0.0,0.0,0.0,0.0,0.0,0.0,0.0,0.0,0.0,0.0,0.0,0.0,0.0,1.1177,1.1982,1.2759,1.327,1.3575,1.3542,1.314,1.264,1.2199,1.1777,1.1379,1.1145,1.1101,1.0782,0.9682,0.9496,0.8718,0.6444,0.5941,0.5401,0.4147,0.3368,0.2916,0.2737,0.3092,0.3583,0.4335,0.4452,0.4488,0.4488,0.4488,0.4488,0.4488,0.4488,0.4488,0.4488,0.4488,0.4488,0.4488,0.4488,0.448,0.447,0.4452,0.4421,0.4383,0.4429,0.4337,0.4309,0.4309,0.4309,0.0,0.4309,0.4309,0.4309,0.4309,0.4309,0.4309,0.4309,0.4309,0.4309,0.0,0.0,0.0,0.0,0.0,0.0,0.0,2.775,2.7726,2.7384,2.7133,2.6899,2.6646,2.6591,2.6591,2.6591,0.0,0.0,0.0,0.0,0.0,0.0,0.0,0.0,1.9773,2.0024,2.0317,2.0672,2.0699,2.0828,2.1109,2.1109,2.1109,2.1109,2.1077,2.0697,2.0049,0.0,0.0,0.0,2.0281,1.937,0.0,0.0,0.0,0.0,0.0,0.0,0.0,0.0,0.0,0.0,0.0,0.0,0.0,0.0,0.0,0.0,0.0,1.2672,1.3051,1.3216,1.278,1.2282,1.1987,1.1574,0.0,1.1123,1.1064,1.0531,0.8886,0.8514,0.7665,0.5356,0.4657,0.4293,0.3871,0.2986,0.2468,0.277,0.3033,0.3453,0.42,0.4403,0.4488,0.4488,0.4488,0.4488,0.4488,0.4488,0.4488,0.4488,0.4488,0.4488,0.4484,0.4484,0.447,0.4369,0.4369,0.4407,0.4422,0.4419,0.4337,0.4309,0.4309,0.4309,0.4309,0.4309,0.4309,0.4309,0.4309,0.4309,0.4309,0.4309,0.4309,0.4309,0.0,0.0,0.0,0.0,0.0,0.0,0.0,0.0,0.0,0.0,2.6795,2.6673,2.6618,2.6591,2.6591,0.0,0.0,0.0,0.0,0.0,0.0,0.0,0.0,0.0,1.9495,1.976,2.001,2.0304,2.0561,2.0828,2.1109,2.1109,2.1109,2.1077,2.0824,2.0348,1.9704,1.9618,0.0,0.0,1.9468,1.9073,0.0,0.0,0.0,0.0,1.2611,1.1679,0.0,0.0,0.0,0.0,0.0,0.0,0.0,0.0,1.0498,1.0771,1.0976,0.0,1.1471,1.1498,1.1361,1.1275,0.0,1.1156,1.1134,1.1107,1.0565,0.9809,0.8848,0.7746,0.6477,0.4863,0.4268,0.3733,0.2861,0.2353,0.2276,0.2991,0.326,0.3595,0.4341,0.4428,0.4488,0.4488,0.4488,0.4488,0.4488,0.4488,0.4488,0.4488,0.4488,0.4477,0.4452,0.4452,0.4439,0.441,0.4386,0.4369,0.4422,0.433,0.4316,0.4309,0.4309,0.4309,0.4309,0.4309,0.4309,0.4309,0.4309,0.4309,0.4309,0.4309,0.4309,0.4309,0.0,0.0,0.0,0.0,0.0,0.0,0.0,0.0,0.0,0.0,0.0,2.6386,2.6068,2.5973,0.0,0.0,0.0,0.0,0.0,0.0,0.0,0.0,0.0,1.9401,1.9401,1.9548,1.9746,2.004,2.0334,2.0628,2.0909,2.1042,2.1109,2.1077,2.057,2.003,1.9422,1.9496,1.9431,1.9317,1.9149,0.0,0.0,0.0,0.0,0.0,1.2533,1.1556,0.0,1.1052,1.0639,1.0051,0.0,0.0,0.0,0.0,1.034,1.0492,1.0481,1.0655,1.0809,1.0863,1.096,1.1003,1.1003,1.1096,1.1053,1.0618,1.0141,0.9348,0.7971,0.7018,0.5971,0.437,0.3733,0.315,0.2248,0.1975,0.2188,0.3123,0.3286,0.3609,0.4348,0.4459,0.4488,0.4488,0.4488,0.4488,0.4488,0.4488,0.4488,0.4488,0.4488,0.4473,0.4372,0.4372,0.4421,0.4379,0.4429,0.4415,0.4334,0.4316,0.4309,0.4309,0.4309,0.4309,0.4309,0.4309,0.4309,0.4309,0.4309,0.4309,0.4309,0.4309,0.4309,0.4309,0.0,0.0,0.0,0.0,0.0,0.0,0.0,0.0,0.0,0.0,0.0,0.0,0.0,0.0,0.0,0.0,0.0,0.0,0.0,0.0,0.0,0.0,1.9851,1.9401,1.9401,1.9441,1.9573,1.9867,2.013,2.0454,2.0779,2.0989,2.1046,2.0919,2.0297,1.9713,1.9211,1.9378,1.931,1.9068,1.891,0.0,0.0,0.0,0.0,0.0,0.0,0.0,0.0,1.0735,1.0335,0.9818,1.0101,0.0,0.0,0.0,0.0,0.0,1.0378,1.0359,1.0367,1.0752,1.0854,1.0859,1.0859,1.0874,1.0613,0.9781,0.9444,0.8734,0.686,0.6252,0.5517,0.3892,0.3249,0.2731,0.2031,0.1924,0.2127,0.294,0.3056,0.3368,0.425,0.434,0.4348,0.4488,0.4488,0.4488,0.4488,0.4488,0.4488,0.4488,0.4484,0.4466,0.4435,0.4365,0.4407,0.4415,0.4415,0.4334,0.4309,0.4309,0.4309,0.4309,0.4309,0.4309,0.4309,0.4309,0.4309,0.4309,0.4309,0.4309,0.4309,0.4309,0.4309,0.4309,0.0,0.0,0.0,0.0,0.0,0.0,0.0,0.0,0.0,0.0,0.0,0.0,0.0,0.0,0.0,0.0,0.0,0.0,0.0,0.0,0.0,2.0414,1.9735,1.9401,1.9401,1.9613,1.988,2.0144,2.0468,2.0762,2.1042,2.1082,2.0792,2.0234,1.9839,1.9463,1.912,1.916,1.914,1.9012,1.7972,0.0,0.0,0.0,0.0,0.0,0.0,0.0,0.0,1.0742,1.0315,0.9737,0.9976,0.0,0.0,0.0,0.0,0.0,1.0538,0.9455,0.8731,1.033,1.0219,0.9748,0.9748,0.9294,0.8811,0.8636,0.7769,0.6905,0.6573,0.5216,0.4032,0.3826,0.3138,0.2656,0.2705,0.2403,0.2201,0.2279,0.2339,0.2639,0.3355,0.3472,0.3859,0.4488,0.4488,0.4488,0.4488,0.4488,0.4488,0.4488,0.4463,0.4435,0.4407,0.4407,0.4376,0.4316,0.4316,0.4313,0.4309,0.4309,0.4309,0.4309,0.4309,0.4309,0.4309,0.4309,0.4309,0.4309,0.4309,0.4309,0.4309,0.4309,0.4309,0.4309,0.0,0.0,0.0,0.0,0.0,0.0,0.0,0.0,0.0,0.0,0.0,0.0,0.0,0.0,0.0,0.0,0.0,0.0,0.0,0.0,2.0802,2.0068,1.962,1.9401,1.9401,1.9653,1.9867,1.997,2.0615,2.0895,2.0882,2.0853,2.0492,1.9877,1.9668,1.9338,1.8911,1.9044,1.888,1.8422,0.0,0.0,0.0,0.0,0.0,0.0,0.0,0.0,0.0,0.0,1.0096,0.9736,0.9867,0.0,0.0,0.0,0.0,0.0,1.0335,0.946,0.866,0.9418,0.8455,0.7331,0.7337,0.7122,0.687,0.6645,0.6129,0.5576,0.5085,0.4353,0.3679,0.3262,0.2889,0.2539,0.2409,0.214,0.1995,0.2076,0.211,0.227,0.2626,0.2721,0.2876,0.3227,0.3227,0.3437,0.3859,0.3929,0.4066,0.4488,0.4459,0.4428,0.4401,0.4383,0.4354,0.4309,0.3905,0.3702,0.3702,0.3299,0.3366,0.3702,0.3702,0.3905,0.4309,0.4309,0.4298,0.4285,0.4302,0.4298,0.4285,0.4285,0.4296,0.4305,0.0,0.0,0.0,0.0,0.0,0.0,0.0,0.0,0.0,0.0,0.0,0.0,0.0,0.0,0.0,0.0,0.0,0.0,0.0,2.0716,2.0357,1.9735,1.9504,1.9428,1.9495,1.976,1.9973,2.0107,2.0775,2.0957,2.0664,2.0542,2.0106,1.945,1.9422,1.9062,1.8562,1.8864,1.8564,1.7819,0.0,0.0,0.0,0.0,0.0,0.0,0.0,0.0,0.0,0.0,0.0,0.0,0.0,0.0,0.0,0.9975,0.998,0.9974,0.9967,0.9173,0.831,0.787,0.672,0.5667,0.5601,0.5483,0.5325,0.5059,0.4789,0.4426,0.383,0.3733,0.358,0.301,0.2783,0.2522,0.2068,0.1776,0.162,0.1623,0.1631,0.1714,0.189,0.1964,0.2035,0.2175,0.2175,0.2455,0.3087,0.3087,0.3365,0.3916,0.4101,0.4072,0.3909,0.4018,0.4198,0.4309,0.3568,0.3229,0.3156,0.2485,0.2482,0.2948,0.2948,0.3283,0.3819,0.3819,0.3877,0.4067,0.402,0.4151,0.4331,0.4331,0.4278,0.4296,0.0,0.0,0.0,0.0,0.0,0.0,0.0,0.0,0.0,0.0,0.0,0.0,0.0,0.0,0.0,0.0,0.0,0.0,0.0,2.0173,2.0053,1.9446,1.9417,1.9522,1.976,2.0024,2.0437,2.1015,2.1082,2.0938,2.0608,2.0284,1.9603,1.8672,1.8743,1.8514,1.8095,1.8554,1.8273,1.7475,1.6785,0.0,0.0,0.0,0.0,0.0,0.0,0.0,0.0,0.0,0.0,0.0,0.0,0.0,0.9834,0.9948,0.998,0.9873,0.9342,0.7898,0.6348,0.5334,0.5613,0.6099,0.5821,0.5165,0.4592,0.4633,0.3887,0.335,0.3731,0.3614,0.3456,0.3586,0.3184,0.2719,0.2193,0.1481,0.0818,0.0209,0.014,0.042,0.1122,0.1192,0.1473,0.2175,0.2175,0.2245,0.2315,0.2315,0.2307,0.2363,0.3036,0.3017,0.2382,0.2974,0.3638,0.4309,0.3568,0.3221,0.32,0.2533,0.2259,0.2246,0.2246,0.2312,0.2378,0.2378,0.2717,0.3264,0.3266,0.3667,0.4331,0.4331,0.4331,0.4271,0.0,0.0,0.0,0.0,0.0,0.0,0.0,0.0,0.0,0.0,0.0,0.0,0.0,0.0,0.0,0.0,0.0,0.0,0.0,2.0102,2.0025,1.943,1.9401,1.9586,2.0024,2.0144,2.0397,2.0842,2.0808,2.0821,2.0831,1.969,1.888,1.8344,1.7842,1.7479,1.7212,1.7522,1.7076,1.6148,1.5694,1.4586,0.0,0.0,0.0,0.0,0.0,0.0,0.0,0.0,0.9623,0.9654,0.9704,0.9835,0.9921,0.997,0.998,0.9862,0.9149,0.7718,0.6215,0.5376,0.4667,0.3977,0.3399,0.3037,0.2939,0.3275,0.3074,0.3011,0.3535,0.3283,0.3196,0.3736,0.2998,0.2287,0.2092,0.1094,0.0277,0.0,0.0,0.014,0.0421,0.0421,0.0561,0.0842,0.0842,0.105,0.1464,0.1534,0.1737,0.2208,0.2466,0.2455,0.2177,0.2026,0.2019,0.2289,0.2011,0.1871,0.1865,0.1127,0.1058,0.1517,0.1517,0.178,0.2177,0.2177,0.2306,0.2497,0.2497,0.271,0.3061,0.343,0.3571,0.3664,0.0,0.0,0.0,0.0,0.0,0.0,0.0,0.0,0.0,0.0,0.0,0.0,0.0,0.0,0.0,0.0,0.0,0.0,1.964,1.9863,1.9828,1.9417,1.9401,1.9629,2.005,2.0157,2.0468,2.098,2.08,2.0573,2.0199,1.9112,1.8198,1.7496,1.7119,1.6786,1.6498,1.6711,1.6191,1.5206,1.488,1.3973,0.0,0.0,0.0,0.0,0.0,0.0,0.0,0.0,0.9416,0.96,0.9638,0.9748,0.9916,0.9915,0.9677,0.9222,0.8462,0.7159,0.5772,0.4774,0.3824,0.2937,0.2183,0.2183,0.2431,0.2858,0.2946,0.3027,0.3221,0.3129,0.3165,0.3509,0.2669,0.192,0.1825,0.0755,0.0,0.0,0.0,0.0,0.0,0.0,0.0,0.0,0.0,0.0209,0.0692,0.0761,0.0966,0.1507,0.1704,0.1629,0.1216,0.0874,0.0536,0.0067,0.0066,0.0331,0.0731,0.0,0.0066,0.0721,0.0721,0.1048,0.1507,0.1507,0.1635,0.1827,0.2022,0.21,0.2248,0.2619,0.2954,0.3242,0.0,0.0,0.0,0.0,0.0,0.0,0.0,0.0,0.0,0.0,0.0,0.0,0.0,0.0,0.0,0.0,0.0,0.0,1.9291,1.9361,1.9394,1.9403,1.9388,1.9535,1.9786,2.005,2.0637,2.1582,2.1181,2.0167,1.8568,1.8579,1.7636,1.5996,1.6613,1.6548,1.5996,1.6266,1.5801,1.4847,1.453,1.3752,1.2732,0.0,0.0,0.0,0.0,0.0,0.0,0.0,0.9307,0.9329,0.9449,0.9611,0.9731,0.9769,0.8997,0.7933,0.7116,0.6077,0.4779,0.3052,0.3148,0.3531,0.2838,0.3099,0.3554,0.3652,0.3611,0.3332,0.2801,0.3243,0.3489,0.2884,0.2336,0.1775,0.1209,0.0477,0.0,0.0,0.0,0.0,0.0,0.0,0.0,0.0,0.0,0.0,0.0,0.0,0.0,0.0,0.068,0.0405,-0.1,-0.0333,-0.073,-0.2111,-0.2094,-0.1376,-0.0066,-0.072,-0.065,0.0,0.0,0.0,0.0,0.0,0.0389,0.1109,0.1827,0.2087,0.2087,0.2087,0.2479,0.3069,0.0,0.0,0.0,0.0,0.0,0.0,0.0,0.0,0.0,0.0,0.0,0.0,0.0,0.0,0.0,0.0,0.0,0.0,1.8754,1.8933,1.9053,1.9038,1.9052,1.9292,1.9786,1.9404,1.9458,1.9966,1.9587,1.8665,1.7252,1.6488,1.5731,1.5003,1.4855,1.4609,1.4336,1.454,1.4382,1.3977,1.3886,1.3293,1.2414,0.0,0.0,0.0,0.0,0.0,0.0,0.0,0.0,0.0,0.9476,0.9682,0.9905,0.9813,0.9284,0.8467,0.7284,0.5843,0.448,0.3522,0.3061,0.2949,0.3209,0.3399,0.3549,0.382,0.3457,0.3131,0.3451,0.3325,0.3132,0.2936,0.2359,0.1788,0.1218,0.0478,0.0,0.0,0.0,0.0,0.0,0.0,-0.0207,-0.0758,-0.0275,-0.0205,-0.0745,-0.027,0.0,0.0,-0.0266,-0.0598,-0.0992,-0.1785,-0.2378,-0.2833,-0.3336,-0.2808,-0.1505,-0.1689,-0.1357,-0.071,-0.071,-0.0452,-0.0065,-0.0516,-0.0907,-0.1108,-0.0908,-0.0586,-0.0066,0.0455,0.1364,0.2479,0.0,0.0,0.0,0.0,0.0,0.0,0.0,0.0,0.0,0.0,1.9828,1.9776,0.0,0.0,0.0,0.0,0.0,0.0,1.8522,1.8646,1.8778,1.8905,1.9038,1.9227,1.9558,1.894,1.8385,1.7964,1.784,1.7135,1.5885,1.5305,1.4812,1.4451,1.4383,1.4147,1.3849,1.4057,1.3832,1.3402,1.3308,1.2793,1.2007,0.0,0.0,0.0,0.0,0.0,0.0,0.0,0.0,0.0,0.947,0.9666,0.9758,0.9234,0.8554,0.7685,0.6357,0.4945,0.3718,0.3211,0.2959,0.2929,0.344,0.3649,0.3744,0.3898,0.3579,0.343,0.3822,0.3348,0.2882,0.2619,0.1994,0.1388,0.074,0.0272,0.0,0.0,0.0,0.0,0.0,0.0,-0.0273,-0.1018,-0.0676,-0.074,-0.147,-0.1064,-0.0728,-0.0396,-0.1055,-0.1448,-0.1445,-0.2559,-0.3211,-0.3529,-0.3971,-0.3701,-0.2859,-0.265,-0.2129,-0.142,-0.142,-0.1033,-0.0452,-0.1162,-0.1682,-0.2077,-0.2068,-0.1881,-0.1437,-0.0971,-0.0129,0.0974,0.0,0.0,0.0,0.0,0.0,0.0,0.0,0.0,0.0,0.0,1.9661,1.9583,0.0,0.0,0.0,0.0,0.0,0.0,0.0,1.8495,1.8624,1.8876,1.9181,1.9269,1.9107,1.8423,1.7288,1.5753,1.6094,1.5669,1.4527,1.4679,1.4517,1.4159,1.4658,1.4597,1.4134,1.4317,1.3884,1.3065,1.2909,1.2333,1.1594,1.1355,0.0,0.0,0.0,0.0,0.0,0.0,0.0,0.0,0.9454,0.9622,0.9532,0.8474,0.7346,0.6194,0.4998,0.3771,0.2791,0.2492,0.2885,0.3422,0.3652,0.3859,0.4005,0.4023,0.3929,0.3908,0.3998,0.34,0.2719,0.2099,0.1422,0.0787,0.0066,0.0,0.0,0.0,0.0,0.0,0.0,-0.0068,-0.0405,-0.1066,-0.1131,-0.1393,-0.2174,-0.2107,-0.1777,-0.1119,-0.1777,-0.2165,-0.2216,-0.2866,-0.3506,-0.4131,-0.4128,-0.4128,-0.4066,-0.3485,-0.2839,-0.2194,-0.2065,-0.1678,-0.1226,-0.1871,-0.2194,-0.2261,-0.2259,-0.2261,-0.2198,-0.2196,-0.1679,-0.0905,0.0,0.0,0.0,0.0,0.0,0.0,0.0,0.0,0.0,0.0,0.0,0.0,0.0,0.0,0.0,0.0,0.0,0.0,0.0,1.8358,1.8624,1.8876,1.8917,1.8778,1.8435,1.6991,1.5691,1.456,1.5006,1.4546,1.3225,1.3498,1.3602,1.3593,1.3674,1.3666,1.3558,1.3614,1.3348,1.2883,1.2986,1.2466,1.1547,1.1188,1.0628,0.0,0.0,0.0,0.0,0.0,0.0,0.0,0.9476,0.9699,0.9855,0.9512,0.83,0.6904,0.624,0.473,0.3322,0.3131,0.3403,0.3712,0.3859,0.3901,0.4012,0.3947,0.3998,0.4058,0.4065,0.3548,0.2794,0.212,0.1427,0.0785,0.0066,0.0,0.0,0.0,0.0,0.0,0.0,-0.0465,-0.1061,-0.1785,-0.184,-0.2162,-0.2878,-0.2406,-0.201,-0.1881,-0.253,-0.2916,-0.2911,-0.3538,-0.3984,-0.4131,-0.4106,-0.4106,-0.4066,-0.3937,-0.355,-0.2839,-0.1742,-0.1742,-0.2646,-0.2259,-0.272,-0.3772,-0.3685,-0.3379,-0.2951,-0.2936,-0.2148,-0.1042,0.0,0.0,0.0,0.0,0.0,0.0,0.0,0.0,0.0,0.0,0.0,0.0,0.0,0.0,0.0,0.0,0.0,0.0,0.0,0.0,1.8891,1.929,1.9236,1.876,1.7937,1.6452,1.5112,1.3911,1.3848,1.3456,1.2822,1.3062,1.3326,1.3506,1.3587,1.3426,1.3144,1.3485,1.321,1.2567,1.2853,1.2394,1.1527,1.0959,1.0419,0.9843,0.9446,0.0,0.0,0.0,0.0,0.0,0.0,0.0,0.9778,0.9151,0.8114,0.6932,0.5857,0.4593,0.3581,0.3475,0.3621,0.382,0.3864,0.3923,0.4009,0.3978,0.4043,0.4106,0.4106,0.3529,0.2894,0.2139,0.1431,0.0785,0.0066,0.0,0.0,0.0,0.0,0.0,0.0,-0.0328,-0.0916,-0.1949,-0.2077,-0.2523,-0.3471,-0.321,-0.2885,-0.2555,-0.3194,-0.3386,-0.3067,-0.3689,-0.4072,-0.4026,-0.4086,-0.4103,-0.4131,-0.4131,-0.3744,-0.3098,-0.2646,-0.271,-0.3098,-0.3097,-0.3491,-0.4152,-0.4137,-0.3899,-0.3669,-0.3657,-0.3202,-0.2493,0.0,0.0,0.0,0.0,0.0,0.0,0.0,0.0,0.0,0.0,0.0,0.0,0.0,0.0,0.0,0.0,0.0,0.0,0.0,0.0,0.0,1.9675,1.9374,1.8582,1.7323,1.6053,1.4763,1.3453,1.2839,1.2637,1.2845,1.3058,1.3336,1.3658,1.3839,1.3522,1.292,1.3597,1.3251,1.2266,1.2634,1.2252,1.1355,1.0743,1.0203,0.9771,0.941,0.9302,0.9323,0.9449,0.0,0.0,0.0,0.0,0.9659,0.8706,0.7793,0.677,0.5317,0.4294,0.3646,0.3596,0.3726,0.3844,0.3864,0.397,0.4003,0.4026,0.4082,0.4124,0.4131,0.355,0.2909,0.2343,0.1563,0.0783,0.0262,0.0066,0.0,0.0,0.0,-0.0066,-0.013,-0.026,-0.084,-0.2104,-0.2305,-0.2877,-0.3917,-0.4065,-0.381,-0.3219,-0.3724,-0.3724,-0.3156,-0.3721,-0.3974,-0.3978,-0.4065,-0.4093,-0.4124,-0.4117,-0.3798,-0.3292,-0.3744,-0.3679,-0.3292,-0.3744,-0.4002,-0.4131,-0.4131,-0.4148,-0.4173,-0.4173,-0.4191,-0.4018,0.0,0.0,0.0,0.0,0.0,0.0,0.0,0.0,0.0,0.0,1.9298,1.931,0.0,0.0,0.0,0.0,0.0,0.0,0.0,0.0,0.0,1.9287,1.8079,1.7008,1.6141,1.48,1.3742,1.2898,1.2537,1.2549,1.2974,1.3229,1.3522,1.3863,1.3888,1.3658,1.3263,1.3702,1.3145,1.2008,1.2572,1.1929,1.0635,1.0527,1.0023,0.9374,0.9302,0.9302,0.9323,0.9449,0.9594,0.0,0.0,0.0,0.9959,0.9781,0.8473,0.6988,0.6399,0.4878,0.3454,0.3558,0.3726,0.3862,0.39,0.3953,0.3994,0.3998,0.405,0.4099,0.4128,0.355,0.3098,0.2974,0.1874,0.097,0.0906,0.039,0.0,0.0,0.0,-0.026,-0.0833,-0.1408,-0.204,-0.2782,-0.3418,-0.3795,-0.3978,-0.398,-0.398,-0.3851,-0.3978,-0.3978,-0.3851,-0.3953,-0.4016,-0.3978,-0.398,-0.4061,-0.409,-0.4065,-0.4018,-0.3937,-0.3421,-0.3485,-0.3937,-0.3421,-0.355,-0.4131,-0.4131,-0.4148,-0.4173,-0.4173,-0.4177,-0.4121,0.0,0.0,0.0,0.0,0.0,0.0,0.0,0.0,0.0,0.0,0.0,1.9299,0.0,0.0,0.0,1.911,0.0,0.0,0.0,0.0,0.0,1.9229,1.8186,1.6976,1.5641,1.4324,1.3251,1.251,1.2273,1.2433,1.3013,1.3086,1.3325,1.3726,1.3837,1.3527,1.2894,1.3399,1.299,1.1994,1.22,1.2015,1.1467,1.0516,1.0142,1.0014,0.9474,0.9302,0.9334,0.9525,0.966,0.9742,0.9883,0.0,0.0,0.0,0.888,0.7212,0.571,0.435,0.3381,0.3569,0.3712,0.3827,0.3891,0.3938,0.3974,0.3992,0.4016,0.405,0.4097,0.385,0.3529,0.3144,0.2575,0.206,0.1595,0.0962,0.0578,0.0574,-0.0128,-0.0511,-0.0444,-0.1015,-0.158,-0.1882,-0.2518,-0.302,-0.3429,-0.3818,-0.4005,-0.3929,-0.3925,-0.3925,-0.3925,-0.3916,-0.3985,-0.4016,-0.4016,-0.403,-0.4061,-0.3984,-0.4011,-0.4066,-0.3792,-0.3856,-0.4066,-0.3808,-0.3808,-0.4131,-0.4131,-0.4148,-0.4173,-0.4173,-0.4184,-0.4073,0.0,0.0,0.0,0.0,0.0,0.0,0.0,0.0,0.0,0.0,0.0,0.0,0.0,0.0,0.0,0.0,1.9421,0.0,0.0,0.0,0.0,1.8822,1.7777,1.6486,1.4926,1.3637,1.2766,1.2305,1.2015,1.2239,1.2968,1.2895,1.3096,1.3542,1.3694,1.3457,1.2932,1.3177,1.2798,1.2023,1.2016,1.1993,1.1816,1.0359,1.0006,1.0172,0.9352,0.904,0.9134,0.9564,0.9709,0.9753,0.9992,1.0128,0.0,0.0,0.0,0.7267,0.496,0.39,0.3397,0.3349,0.3545,0.3771,0.3671,0.3782,0.3885,0.3967,0.3978,0.3998,0.4054,0.4068,0.3884,0.3438,0.3196,0.2877,0.2339,0.1523,0.1016,0.1011,-0.0063,-0.063,-0.0315,-0.0692,-0.1066,-0.1245,-0.1689,-0.2249,-0.2717,-0.3412,-0.3726,-0.3703,-0.3826,-0.3888,-0.3888,-0.3888,-0.3898,-0.3985,-0.3985,-0.3998,-0.403,-0.3956,-0.3987,-0.4106,-0.4093,-0.4103,-0.4131,-0.4131,-0.4131,-0.4131,-0.4131,-0.4146,-0.4162,-0.4162,-0.4177,-0.4069,0.0,0.0,0.0,0.0,0.0,0.0,0.0,0.0,0.0,0.0,0.0,1.9434,1.9752,1.9499,1.9324,1.9377,1.9642,1.9893,2.0144,1.9594,0.0,1.7736,1.6054,0.0,1.3538,1.2437,1.2008,1.2305,1.178,1.2011,1.2904,1.2749,1.2923,1.3337,1.3404,1.3635,1.3988,1.3287,1.2655,1.2124,1.2311,1.1743,1.0694,0.9838,0.9356,0.9035,0.8516,0.8397,0.8572,0.9482,0.9791,0.9834,1.0117,1.0199,1.0226,0.0,0.0,0.0,0.4799,0.3999,0.3582,0.2766,0.3147,0.3586,0.3058,0.3424,0.3907,0.3907,0.3932,0.3898,0.3994,0.4023,0.398,0.398,0.3412,0.2969,0.2967,0.183,0.1011,0.101,0.0379,-0.0315,-0.0875,-0.0999,-0.1245,-0.1914,-0.1976,-0.2037,-0.2036,-0.2715,-0.3023,-0.3023,-0.3579,-0.3888,-0.3888,-0.3888,-0.3888,-0.3892,-0.3892,-0.3967,-0.3994,-0.3905,-0.3925,-0.3984,-0.4075,-0.4103,-0.4131,-0.4131,-0.4131,-0.4131,-0.4131,-0.4131,-0.4135,-0.4135,-0.4135,-0.4012,0.0,0.0,0.0,0.0,0.0,0.0,0.0,0.0,0.0,0.0,0.0,0.0,0.0,1.9357,1.9219,1.9027,1.8859,1.8818,1.8918,1.8649,0.0,1.6624,1.5527,1.4243,1.2717,1.1835,1.1479,1.1578,1.1409,1.1629,1.2273,1.237,1.2689,1.3166,1.3469,1.3422,1.3125,1.2911,1.2265,1.1302,1.026,0.9589,0.9063,0.7422,0.6961,0.7104,0.6907,0.732,0.8087,0.8599,0.9275,0.9959,1.0242,1.0373,1.0251,0.9218,0.8173,0.6886,0.4797,0.396,0.3546,0.3085,0.2982,0.3058,0.3294,0.3284,0.3366,0.3728,0.3887,0.3925,0.3936,0.3978,0.4012,0.4012,0.3774,0.3648,0.3614,0.2811,0.2127,0.168,0.0684,-0.0124,-0.031,-0.074,-0.0922,-0.0736,-0.1103,-0.1348,-0.1348,-0.1969,-0.2344,-0.2344,-0.2961,-0.3518,-0.3888,-0.3888,-0.3888,-0.3888,-0.3888,-0.3894,-0.3905,-0.3892,-0.3908,-0.4012,-0.4023,-0.4043,-0.4008,-0.4008,-0.4086,-0.4103,-0.4103,-0.4114,-0.4131,-0.4131,-0.4131,-0.407,0.0,0.0,0.0,0.0,0.0,0.0,0.0,0.0,2.015,1.9999,0.0,0.0,0.0,0.0,1.9034,1.8458,1.8146,1.7875,1.7613,1.7332,1.6658,1.5413,1.4548,1.346,1.2126,1.1612,1.1341,1.137,1.1393,1.1613,1.2087,1.2185,1.2471,1.2926,1.3147,1.3211,1.3101,1.2777,1.2125,1.1186,0.9388,0.8938,0.9126,0.6779,0.627,0.6847,0.6482,0.6487,0.672,0.7215,0.7786,0.8398,0.8942,0.9404,0.9472,0.8044,0.7428,0.6744,0.4735,0.3992,0.3656,0.3005,0.2815,0.2861,0.3209,0.3196,0.321,0.3661,0.3835,0.388,0.39,0.3936,0.3905,0.3666,0.3807,0.3807,0.3338,0.2913,0.2421,0.1729,0.0677,0.0,0.0,-0.0428,-0.0486,-0.0061,-0.0427,-0.0671,-0.0671,-0.1291,-0.1789,-0.1974,-0.2406,-0.2961,-0.3579,-0.3579,-0.3703,-0.3888,-0.3888,-0.3888,-0.3888,-0.3888,-0.3898,-0.3981,-0.3981,-0.4003,-0.3978,-0.3978,-0.4058,-0.4086,-0.4086,-0.4103,-0.4131,-0.4131,-0.4131,-0.4135,0.0,0.0,0.0,0.0,0.0,0.0,0.0,0.0,2.0315,2.0301,0.0,0.0,0.0,0.0,0.0,1.7622,1.7519,1.7177,1.6399,1.5706,1.4964,1.4072,1.3058,1.2233,1.171,1.1627,1.1634,1.1676,1.1743,1.1999,1.2371,1.2164,1.2247,1.2481,1.2352,1.2993,1.4065,1.2929,1.2301,1.1798,0.9925,0.9975,1.0826,0.8023,0.7437,0.8086,0.728,0.5862,0.4519,0.5363,0.5376,0.5203,0.6214,0.7265,0.7935,0.6972,0.6679,0.6314,0.0,0.0,0.0,0.255,0.2646,0.3007,0.2659,0.3037,0.3516,0.3637,0.3768,0.3831,0.3891,0.39,0.3728,0.3079,0.3514,0.3456,0.2219,0.2034,0.1787,0.111,0.0429,0.0061,0.0,0.0,0.0,0.0,0.0,0.0,0.0,-0.0614,-0.1296,-0.1974,-0.1972,-0.228,-0.2959,-0.2959,-0.3267,-0.3884,-0.3884,-0.3885,-0.3888,-0.3888,-0.3888,-0.3888,-0.3888,-0.3923,-0.3974,-0.3974,-0.4058,-0.4086,-0.4086,-0.4103,-0.4131,-0.4131,-0.4131,-0.4131,0.0,0.0,0.0,0.0,0.0,2.1089,2.0756,2.0655,2.0593,0.0,0.0,0.0,1.9495,1.8199,1.698,1.6149,1.5579,1.518,1.4977,1.4427,1.3737,1.2983,1.2535,1.1976,1.1331,1.1316,1.1316,1.1338,1.1431,1.1582,1.1696,1.1812,1.1999,1.2227,1.2257,1.2321,1.2345,1.1884,1.1523,1.114,0.9555,0.8243,0.7129,0.5817,0.4513,0.3415,0.3833,0.4003,0.416,0.4814,0.5555,0.6281,0.6944,0.7596,0.7935,0.6972,0.6469,0.5885,0.4429,0.0,0.0,0.0,0.0,0.0,0.287,0.2827,0.2878,0.3454,0.3614,0.3712,0.3793,0.3842,0.3694,0.3033,0.3476,0.3785,0.3401,0.3397,0.2973,0.1761,0.1515,0.1029,0.0061,0.0,0.0,0.0,0.0,0.0,0.0,-0.0181,-0.0609,-0.1285,-0.1278,-0.1579,-0.2246,-0.2307,-0.255,-0.3157,-0.3157,-0.3409,-0.3918,-0.3918,-0.3929,-0.3888,-0.3888,-0.3898,-0.3912,-0.3912,-0.3943,-0.4054,-0.4054,-0.4086,-0.4131,-0.4131,-0.4131,-0.4131,0.0,0.0,0.0,2.0931,2.1085,2.1136,2.0944,2.0557,2.0297,0.0,0.0,0.0,1.8427,1.7462,1.6338,1.5152,1.4433,1.3834,1.3311,1.2949,1.2522,1.2045,1.1933,1.1734,1.1472,1.154,1.154,1.1443,1.1592,1.1606,1.1491,1.1624,1.1789,1.1884,1.1972,1.1823,1.1539,1.1245,1.102,1.06,0.8371,0.7341,0.6919,0.4905,0.3729,0.3194,0.359,0.3509,0.3282,0.3634,0.4336,0.5043,0.5135,0.5713,0.6298,0.0,0.0,0.0,0.0,0.0,0.3318,0.297,0.0,0.0,0.2731,0.2766,0.2754,0.3075,0.3168,0.3313,0.3637,0.3578,0.3374,0.3268,0.3591,0.3671,0.3135,0.3316,0.2956,0.1629,0.1504,0.1081,0.012,0.0,0.0,0.0,0.0,0.0,0.0,0.0,-0.0181,-0.0546,-0.0605,-0.0905,-0.1569,-0.181,-0.2293,-0.2896,-0.3199,-0.3506,-0.3887,-0.3887,-0.39,-0.387,-0.387,-0.3877,-0.3888,-0.3888,-0.3916,-0.4023,-0.3974,-0.4068,-0.4114,-0.4128,-0.4131,-0.4066,0.0,0.0,2.1186,2.1156,2.116,2.1146,2.1025,2.0254,1.9659,0.0,1.8608,1.7716,1.7104,1.6869,1.6045,1.4378,1.3722,1.2918,1.1772,1.159,1.1482,1.1402,1.145,1.1586,1.1813,1.203,1.1986,1.1793,1.1972,1.1891,1.1584,1.1584,1.1548,1.1476,1.1548,1.1375,1.092,1.0692,1.039,0.9844,0.7103,0.7073,0.8289,0.4921,0.4305,0.5175,0.4909,0.374,0.2312,0.2377,0.2556,0.2735,0.2325,0.2964,0.3887,0.0,0.3919,0.0,0.0,0.0,0.0,0.0,0.2891,0.0,0.2489,0.2756,0.2987,0.273,0.2643,0.2869,0.3475,0.318,0.3034,0.3575,0.373,0.3365,0.2278,0.2585,0.2522,0.126,0.1013,0.0772,0.0178,0.0118,0.0059,0.0,0.0,0.0,0.0,0.0,0.0,0.0,0.0,-0.0301,-0.0902,-0.1442,-0.2044,-0.2768,-0.337,-0.3731,-0.3916,-0.3916,-0.3873,-0.3904,-0.3904,-0.3922,-0.3888,-0.3888,-0.3967,-0.3998,-0.403,-0.4058,-0.409,-0.4121,-0.4131,-0.4002,0.0,2.1397,2.111,2.084,2.0997,2.0852,2.0037,1.9758,1.9399,1.8804,1.7703,1.6598,1.5552,1.4846,1.4079,1.3188,1.2471,1.1956,1.171,1.1615,1.1582,1.1572,1.1803,1.1996,1.205,1.2084,1.1986,1.1793,1.1827,1.1789,1.1584,1.1584,1.1289,1.0743,1.1325,1.0571,0.8823,0.9121,0.8612,0.7592,0.8215,0.7382,0.5662,0.5388,0.4304,0.2981,0.3346,0.2978,0.2451,0.2819,0.2909,0.2928,0.3155,0.3071,0.3094,0.3854,0.0,0.0,0.0,0.0,0.0,0.0,0.0,0.0,0.2776,0.2896,0.2994,0.3005,0.3031,0.313,0.3375,0.3372,0.3393,0.3509,0.3596,0.3568,0.3393,0.346,0.3276,0.244,0.1914,0.139,0.0811,0.0752,0.052,0.0058,0.0,0.0,0.0,0.0,0.0,0.0,0.0,-0.0059,-0.0176,-0.0293,-0.0941,-0.2071,-0.2249,-0.2852,-0.3824,-0.3824,-0.3855,-0.3904,-0.3904,-0.3922,-0.3888,-0.3888,-0.3967,-0.3998,-0.403,-0.4058,-0.409,-0.4121,-0.4131,-0.4002,2.1422,2.1276,2.1113,2.093,2.0802,2.0589,2.0081,1.9362,1.872,1.8249,1.6879,1.5651,1.4877,1.4154,1.3483,1.2952,1.2312,1.1882,1.1775,1.1712,1.1726,1.1837,1.2016,1.2132,1.2213,1.2139,1.2064,1.1945,1.1945,1.187,1.1692,1.1364,1.0804,1.0064,0.999,0.8986,0.7373,0.7691,0.6835,0.5337,0.6221,0.5883,0.48,0.4261,0.3525,0.2781,0.3039,0.3013,0.2829,0.2776,0.2885,0.2941,0.2577,0.2451,0.2521,0.0,0.2727,0.2513,0.0,0.0,0.0,0.2866,0.0,0.0,0.0,0.2736,0.2882,0.2737,0.2692,0.2807,0.3207,0.3044,0.3024,0.3329,0.3465,0.3544,0.3607,0.3667,0.346,0.2804,0.2392,0.1992,0.1428,0.1372,0.1087,0.0517,0.0173,0.0,0.0,0.0,0.0,0.0,0.0,0.0,0.0,-0.0291,-0.0935,-0.1885,-0.2179,-0.2833,-0.3795,-0.3795,-0.3817,-0.3862,-0.3862,-0.3887,-0.3929,-0.3929,-0.3947,-0.3978,-0.396,-0.405,-0.4068,-0.4113,-0.4131,-0.3937,2.1241,2.1173,2.1059,2.0935,2.0617,2.0273,1.9948,1.8848,1.791,1.7389,1.5951,1.4734,1.4172,1.3449,1.269,1.203,1.1449,1.1153,1.1244,1.1126,1.1287,1.187,1.1753,1.175,1.1867,1.1756,1.1678,1.1652,1.1652,1.1573,1.1363,1.0735,0.996,0.9093,0.8394,0.7318,0.6091,0.6179,0.5157,0.3477,0.3545,0.3823,0.4043,0.2852,0.2672,0.309,0.3158,0.3194,0.3067,0.2689,0.2669,0.2709,0.1957,0.1837,0.0,0.0,0.0,0.0,0.0,0.0,0.0,0.0,0.0,0.2828,0.0,0.0,0.0,0.2456,0.2344,0.2474,0.3008,0.2744,0.2632,0.3155,0.3329,0.3395,0.3444,0.3538,0.3434,0.2933,0.2686,0.2458,0.1972,0.1748,0.1416,0.0915,0.0343,0.0,0.0,0.0,0.0,0.0,0.0,0.0,0.0,-0.0464,-0.105,-0.1705,-0.2178,-0.2769,-0.3417,-0.3417,-0.3433,-0.3458,-0.3458,-0.349,-0.3538,-0.3538,-0.3615,-0.3771,-0.3953,-0.3978,-0.3984,-0.3918,-0.3937,-0.3744,2.1505,2.1312,2.0898,2.0315,2.0329,1.9882,1.8345,1.7861,1.708,1.5432,1.461,1.3662,1.2446,1.1371,1.0102,0.8437,0.7586,0.7747,0.9158,0.8685,0.9169,1.1036,1.0576,1.0258,1.0275,1.0258,1.0197,1.0047,1.0047,0.998,0.982,0.935,0.853,0.7482,0.7291,0.6256,0.4539,0.4558,0.3856,0.269,0.249,0.2167,0.1906,0.2344,0.2538,0.2649,0.3124,0.3,0.2633,0.2989,0.2531,0.1976,0.2684,0.2048,0.1326,0.258,0.0,0.0,0.0,0.0,0.0,0.0,0.3017,0.0,0.0,0.0,0.2936,0.2773,0.0,0.2858,0.3011,0.0,0.0,0.3125,0.3178,0.3202,0.3209,0.3296,0.337,0.3393,0.2945,0.2558,0.2524,0.1593,0.0996,0.09,0.0335,0.0,0.0,0.0,0.0,0.0,0.0,0.0,0.0,-0.0057,-0.0405,-0.0991,-0.1057,-0.1473,-0.2121,-0.2121,-0.2131,-0.2087,-0.2087,-0.2166,-0.2197,-0.2197,-0.2575,-0.3153,-0.3765,-0.3978,-0.3921,-0.3403,-0.3227,-0.3098,2.0723,2.0621,2.0355,1.9782,1.9179,1.8506,1.77,1.6592,1.5487,1.4518,1.402,1.3566,1.2996,1.2325,1.1151,0.9243,0.8863,0.8634,0.846,0.8469,0.8853,0.9735,0.9913,0.9786,0.9314,0.9547,0.9452,0.9027,0.9174,0.8996,0.8583,0.8033,0.7123,0.5929,0.5133,0.4239,0.3283,0.3067,0.2729,0.229,0.2236,0.1957,0.161,0.2237,0.269,0.3016,0.3276,0.2991,0.2575,0.3097,0.2745,0.2244,0.2644,0.0,0.0,0.2458,0.0,0.0,0.0,0.0,0.0,0.0,0.0,0.0,0.2865,0.0,0.2945,0.0,0.0,0.0,0.0,0.0,0.0,0.0,0.3056,0.3112,0.3148,0.3164,0.3221,0.3355,0.3107,0.2784,0.2575,0.1556,0.0924,0.0926,0.0329,0.0,0.0,0.0,0.0,0.0,0.0,0.0,0.0,0.0,-0.052,-0.1455,-0.1115,-0.1414,-0.2415,-0.2062,-0.1894,-0.1908,-0.2255,-0.2216,-0.1953,-0.237,-0.2502,-0.2472,-0.32,-0.3661,-0.3921,-0.3339,-0.3098,-0.3033,1.9528,1.9556,1.952,1.9006,1.7983,1.7066,1.652,1.5225,1.4166,1.3748,1.3574,1.3368,1.3051,1.2194,1.0915,0.9072,0.8399,0.7834,0.7167,0.7387,0.7705,0.8014,0.8646,0.863,0.7792,0.8285,0.8338,0.7881,0.7916,0.7695,0.7266,0.6566,0.5691,0.4733,0.3493,0.2764,0.2394,0.2026,0.1858,0.1954,0.2009,0.1678,0.123,0.1625,0.2124,0.2573,0.2119,0.1868,0.1873,0.2412,0.2587,0.2567,0.2665,0.2585,0.2464,0.0,0.0,0.0,0.2946,0.0,0.0,0.0,0.0,0.0,0.0,0.0,0.0,0.0,0.0,0.0,0.0,0.0,0.0,0.0,0.0,0.3022,0.3066,0.3052,0.3086,0.3223,0.3197,0.2898,0.2306,0.1578,0.1013,0.0691,0.0268,0.0,0.0,0.0,0.0,0.0,0.0,0.0,0.0,0.0,-0.0461,-0.1393,-0.1052,-0.1294,-0.2003,-0.177,-0.1542,-0.1431,-0.1841,-0.1858,-0.1709,-0.2183,-0.2318,-0.2287,-0.2447,-0.3156,-0.3921,-0.3146,-0.271,-0.2452,1.7983,1.8206,1.844,1.7758,1.693,1.5835,1.4255,1.3806,1.3472,1.3007,1.3138,1.2855,1.1629,0.9602,0.7677,0.5998,0.3843,0.3164,0.4626,0.4364,0.4656,0.5737,0.6257,0.6097,0.5153,0.595,0.6388,0.6385,0.5922,0.5722,0.5743,0.4894,0.4293,0.3905,0.3002,0.24,0.2001,0.1572,0.1444,0.1547,0.1578,0.0965,0.0052,0.0,0.0369,0.0647,-0.1088,-0.0928,0.0163,0.0636,0.1605,0.2663,0.3149,0.2957,0.2681,0.0,0.0,0.0,0.0,0.0,0.0,0.3125,0.0,0.0,0.0,0.0,0.2996,0.0,0.0,0.0,0.0,0.0,0.0,0.0,0.0,0.0,0.0,0.2935,0.2947,0.3077,0.3144,0.2794,0.1708,0.1661,0.1199,0.0105,0.0,0.0,0.0,0.0,0.0,0.0,0.0,0.0,0.0,0.0,0.0,-0.0058,-0.0638,-0.0643,-0.0118,-0.0653,-0.0596,-0.006,-0.006,-0.0424,-0.1038,-0.1038,-0.1837,-0.2843,-0.1568,-0.2272,-0.3858,-0.2568,-0.1678,-0.1033,1.7455,1.6525,1.593,1.6004,1.5351,1.442,1.3125,1.2873,1.2321,1.0779,1.0814,1.0311,0.8504,0.8072,0.7172,0.5351,0.4928,0.4551,0.404,0.4035,0.4254,0.4677,0.5288,0.5192,0.4369,0.4849,0.496,0.4646,0.4523,0.433,0.4035,0.3731,0.3404,0.3004,0.2433,0.2145,0.2027,0.166,0.1664,0.199,0.1402,0.0669,-0.0105,-0.1318,-0.1385,-0.1025,-0.1624,-0.1037,0.0055,0.0596,0.158,0.2697,0.3244,0.3273,0.3157,0.336,0.3217,0.3079,0.3308,0.2839,0.2398,0.3015,0.257,0.0,0.0,0.0,0.0,0.0,0.0,0.0,0.0,0.0,0.0,0.0,0.0,0.0,0.0,0.2859,0.2852,0.2953,0.2702,0.2269,0.1604,0.1294,0.0803,0.0049,0.0,0.0,0.0,0.0,0.0,0.0,0.0,0.0,0.0,0.0,-0.0228,-0.0571,-0.0405,-0.0408,-0.0585,-0.0415,-0.0179,0.0,-0.0422,-0.0486,-0.0369,-0.0795,-0.0981,-0.0989,-0.0998,-0.1445,-0.1959,-0.1541,-0.1549,-0.1613,1.6162,1.4999,1.4227,1.4735,1.4098,1.3205,1.2428,1.1888,1.1132,0.9871,0.9402,0.8775,0.7504,0.7217,0.6623,0.5441,0.5151,0.4608,0.3535,0.3795,0.3834,0.3484,0.4375,0.4385,0.3367,0.3967,0.408,0.3583,0.3635,0.3513,0.3215,0.3051,0.287,0.2624,0.2376,0.2087,0.1794,0.1551,0.1358,0.104,-0.0563,-0.1358,-0.1744,-0.3677,-0.3595,-0.2592,-0.3652,-0.3138,-0.1833,-0.1266,-0.0166,0.1172,0.2261,0.2515,0.2605,0.3311,0.3431,0.3392,0.342,0.2892,0.2499,0.3097,0.2645,0.2251,0.2928,0.0,0.3103,0.0,0.0,0.0,0.0,0.0,0.0,0.0,0.0,0.0,0.0,0.2801,0.2801,0.2852,0.2478,0.2014,0.1557,0.1208,0.0826,0.0285,0.0239,0.0243,0.0248,0.0102,0.0,0.0,0.0,0.0,0.0,0.0,-0.017,-0.0568,-0.0633,-0.0638,-0.0582,-0.0651,-0.0418,0.0,-0.0423,-0.0487,-0.0369,-0.0798,-0.0861,-0.0741,-0.0933,-0.1126,-0.1385,-0.1407,-0.1545,-0.1549,1.4288,1.3617,1.3411,1.3938,1.3138,1.2353,1.2135,1.0924,1.0037,1.0046,0.8857,0.8101,0.8242,0.6774,0.5774,0.5921,0.4322,0.3255,0.3132,0.3509,0.3339,0.2286,0.3408,0.3386,0.2059,0.3193,0.3583,0.304,0.3213,0.3293,0.3241,0.28,0.2641,0.2698,0.2688,0.2195,0.1372,0.1428,0.0495,-0.1231,-0.3947,-0.4784,-0.4628,-0.6985,-0.62,-0.4166,-0.7056,-0.6892,-0.5265,-0.4723,-0.3359,-0.1584,0.0223,0.078,0.1118,0.2862,0.3454,0.3499,0.3525,0.3464,0.3449,0.3389,0.335,0.325,0.3215,0.0,0.328,0.0,0.0,0.0,0.0,0.0,0.0,0.0,0.0,0.0,0.0,0.0,0.2792,0.2783,0.2404,0.1999,0.0,0.1475,0.1232,0.0704,0.0651,0.0656,0.0675,0.0248,0.0,0.0,0.0,0.0,0.0,0.0,0.0,0.0,-0.1203,-0.1213,-0.0058,-0.1243,-0.1133,-0.006,0.0,-0.0366,-0.0977,-0.0923,-0.1297,-0.1852,-0.1182,-0.1373,-0.1938,-0.2032,-0.1604,-0.0968,1.3676,1.3035,1.2616,1.2726,1.2598,1.246,1.2417,1.1225,0.9792,0.827,0.6697,0.5206,0.373,0.3503,0.3464,0.3518,0.3492,0.3456,0.3409,0.3437,0.3349,0.3108,0.2064,0.1352,0.0973,0.1221,0.1226,0.1059,0.2296,0.2911,0.2854,0.271,0.2722,0.2762,0.2815,0.251,0.1968,0.2063,0.045,-0.2222,-0.3748,-0.4802,-0.5755,-0.8129,-0.8143,-0.6867,-0.7273,-0.63,-0.4806,-0.4628,-0.3392,-0.1813,-0.1355,-0.0225,0.0953,0.135,0.2465,0.3565,0.3558,0.3221,0.2987,0.3373,0.3106,0.2791,0.3199,0.3315,0.3395,0.0,0.0,0.0,0.0,0.0,0.0,0.0,0.0,0.0,0.0,0.0,0.0,0.2316,0.182,0.1515,0.1502,0.1203,0.0739,0.0225,0.018,0.0183,0.0189,0.0048,0.0,0.0,0.0,0.0,0.0,0.0,0.0,0.0,-0.0344,-0.0578,-0.0641,-0.0533,-0.0537,-0.0656,-0.0182,-0.0122,-0.0244,-0.0246,-0.037,-0.0494,-0.0309,-0.0683,-0.1313,-0.1905,-0.1347,-0.0387,1.2971,1.2692,1.2461,1.2393,1.1782,1.1376,1.1466,1.0787,0.9397,0.6889,0.5747,0.4495,0.2632,0.2793,0.2987,0.2978,0.3277,0.3514,0.3474,0.3366,0.3026,0.23,0.1275,0.0201,-0.0755,-0.0633,-0.033,0.0046,0.1199,0.2133,0.2758,0.2701,0.2704,0.2766,0.2841,0.2619,0.2152,0.1262,-0.0455,-0.2697,-0.4567,-0.6065,0.0,-0.8978,-0.9237,-0.8681,-0.8228,-0.7387,-0.6493,-0.6235,-0.5347,-0.4167,-0.3322,-0.1829,-0.0171,0.063,0.2168,0.3628,0.3628,0.3401,0.3225,0.3533,0.3268,0.3061,0.3358,0.345,0.3448,0.3461,0.3231,0.3038,0.3295,0.0,0.0,0.0,0.0,0.0,0.0,0.0,0.0,0.0,0.1476,0.1078,0.116,0.0909,0.0637,0.031,0.0316,0.0322,0.0325,0.0096,0.0,0.0,0.0,0.0,0.0,0.0,0.0,0.0,-0.0573,-0.0866,-0.0931,-0.112,-0.1245,-0.1305,-0.0965,-0.0668,-0.0425,-0.043,-0.0432,-0.0494,-0.1357,-0.1611,-0.1624,-0.2899,-0.2099,-0.0578,1.236,1.2556,1.2679,1.2505,1.0995,0.9788,0.985,0.9585,0.8452,0.5969,0.5392,0.4748,0.3457,0.3415,0.3485,0.3516,0.3513,0.348,0.3454,0.3416,0.266,0.089,0.0574,-0.0571,-0.2783,-0.2301,-0.1553,-0.0519,0.0181,0.1319,0.2782,0.2752,0.2699,0.2711,0.2837,0.2624,0.2069,-0.0196,-0.1778,-0.3106,-0.6121,-0.8023,-0.9125,-0.9776,-1.0108,-1.0189,-0.9711,-0.9257,-0.8823,-0.8372,-0.7815,-0.7133,-0.5503,-0.3716,-0.1917,0.0,0.1792,0.3278,0.3619,0.3619,0.3566,0.3677,0.3656,0.3586,0.3586,0.354,0.3509,0.3589,0.3472,0.3402,0.3414,0.0,0.0,0.0,0.0,0.0,0.0,0.0,0.0,0.0,0.0,0.0,0.0626,0.0588,0.0589,0.0621,0.0596,0.0605,0.0596,0.0241,0.0,0.0,0.0,0.0,0.0,0.0,0.0,0.0,-0.1206,-0.1503,-0.105,-0.2174,-0.2416,-0.2005,-0.1915,-0.1567,-0.1026,-0.1104,-0.1296,-0.1667,-0.3085,-0.3158,-0.2554,-0.4054,-0.3273,-0.1658,1.2413,1.2751,1.2828,1.2403,1.0831,0.928,0.8156,0.6849,0.5949,0.5947,0.472,0.373,0.3506,0.3551,0.358,0.3576,0.3576,0.3569,0.3551,0.3531,0.2692,0.0986,-0.0486,-0.2141,-0.4061,-0.3848,-0.3069,-0.1683,-0.0183,0.1329,0.2782,0.2752,0.2722,0.2771,0.2856,0.269,0.2061,-0.1068,-0.3037,-0.4419,-0.8199,-1.0167,-1.0901,-1.1636,-1.1942,-1.1979,-1.1917,-1.0363,-0.8325,-0.8218,-0.7815,-0.7357,-0.7023,-0.5645,-0.3865,-0.1973,-0.0463,0.1033,0.3078,0.3263,0.2984,0.3478,0.366,0.3674,0.3674,0.3645,0.3564,0.3625,0.3185,0.2952,0.3341,0.3194,0.0,0.0,0.0,0.0,0.0,0.0,0.0,0.0,0.0,0.0557,0.0,0.0139,0.0137,0.0134,0.0136,0.0138,0.014,0.0048,0.0,0.0,0.0,0.0,0.0,0.0,0.0,0.0,-0.0757,-0.1283,-0.1705,-0.1942,-0.2297,-0.2595,-0.2142,-0.1858,-0.1751,-0.1767,-0.27,-0.407,-0.2836,-0.3147,-0.4267,-0.2988,-0.3323,-0.455,1.2712,1.2395,1.1855,1.1121,0.9031,0.7207,0.6384,0.4857,0.3998,0.4543,0.4621,0.4287,0.3529,0.3544,0.3589,0.3589,0.3589,0.3589,0.3589,0.3562,0.2325,-0.0332,-0.1257,-0.2981,-0.5666,-0.5525,-0.433,-0.1997,-0.1072,0.0583,0.2782,0.2769,0.2777,0.2807,0.2601,0.1703,0.019,-0.1862,-0.4168,-0.6664,-0.9074,-1.0766,-1.1913,-1.2291,-1.2463,-1.2463,-1.2511,-1.1395,-0.9974,-1.0023,-0.966,-0.9134,-0.8832,-0.7464,-0.5686,-0.4153,-0.1959,0.0287,0.1437,0.2482,0.3241,0.3183,0.3183,0.3241,0.3241,0.2925,0.2783,0.3067,0.2924,0.2761,0.2933,0.2575,0.2121,0.0,0.0,0.0,0.0,0.0,0.0,0.0,0.0,0.0,0.0,0.0,0.0,0.0,0.0,0.0,0.0,0.0,0.0,0.0,0.0,0.0,0.0,0.0,-0.0173,-0.0466,-0.1106,-0.1754,-0.2356,-0.2711,-0.3064,-0.33,-0.303,-0.2696,-0.2476,-0.3541,-0.4547,-0.5547,-0.6653,-0.7271,-0.7455,-0.7172,-0.7361,-0.7565,1.2115,1.1297,1.0306,0.9507,0.7193,0.5371,0.5185,0.3711,0.2769,0.3267,0.4423,0.474,0.3557,0.3534,0.3589,0.3589,0.3589,0.3589,0.3589,0.3569,0.1942,-0.1553,-0.1706,-0.3328,-0.6821,-0.6749,-0.5255,0.0,-0.1985,-0.0318,0.2312,0.2524,0.2354,0.184,0.1531,0.0,-0.2479,-0.3666,-0.6009,-0.8958,-1.0216,-1.1561,-1.2806,-1.2839,-1.2873,-1.2873,-1.2873,-1.2595,-1.2154,-1.2237,-1.1598,-1.0716,-1.0284,-0.9168,-0.7687,-0.6198,-0.3619,-0.1153,-0.0463,0.128,0.2805,0.2465,0.24,0.2449,0.2561,0.2072,0.1763,0.2215,0.2198,0.2104,0.2038,0.1551,0.1154,0.0,0.0,0.0,0.0,0.0,0.0,0.0,0.0,0.0,0.0,0.0,0.0,0.0,0.0,0.0,0.0,0.0,0.0,0.0,0.0,0.0,0.0,0.0,-0.023,-0.0694,-0.1511,-0.2164,-0.2652,-0.3424,-0.3779,-0.3772,-0.3803,-0.3775,-0.3866,-0.588,-0.696,-0.764,-1.0348,-1.1019,-1.0593,-1.1161,-1.1145,-1.0468,0.9184,0.8877,0.8415,0.7993,0.6344,0.5187,0.5259,0.3799,0.2868,0.3435,0.3648,0.3741,0.3572,0.3583,0.3589,0.3589,0.3589,0.3589,0.3589,0.3587,0.1959,-0.1623,-0.172,-0.3358,-0.6937,-0.6812,-0.5854,0.0,0.0,-0.0918,0.0749,0.1702,0.0922,-0.1296,-0.1267,-0.2775,-0.5477,-0.7721,-0.935,-1.0609,-1.2797,-1.3869,-1.4137,-1.4153,-1.4153,-1.4153,-1.4153,-1.4092,-1.4036,-1.4052,-1.2611,-1.0765,-1.0716,-1.0663,-1.009,-0.7744,-0.6458,-0.5159,-0.2362,-0.064,0.047,0.0934,0.1055,0.1233,0.1866,0.1446,0.0975,0.1081,0.0617,0.022,0.0161,0.0106,0.0052,0.0051,0.0,0.0,0.0,0.0,0.0,0.0,0.0,0.0,0.0,0.0,0.0,0.0,0.0,0.0,0.0,0.0,0.0,0.0,0.0,0.0,0.0,0.0,0.0,-0.0117,-0.1342,-0.193,-0.2003,-0.3265,-0.3795,-0.3772,-0.3803,-0.479,-0.657,-0.8631,-1.0524,-1.2001,-1.0647,-1.1081,-1.2311,-1.0732,-1.1319,-1.286,0.8566,0.7795,0.6947,0.6275,0.5174,0.4261,0.3772,0.3378,0.3264,0.3476,0.3565,0.3589,0.3589,0.3589,0.3589,0.3589,0.3589,0.3589,0.3589,0.3589,0.1963,-0.1624,-0.1788,-0.3378,-0.6946,-0.6891,-0.6163,0.0,0.0,-0.1498,0.0045,0.115,0.0311,-0.2218,-0.3516,-0.56,-0.8262,-0.9544,-1.1021,-1.2606,-1.3747,-1.4221,-1.432,-1.432,-1.432,-1.432,-1.432,-1.432,-1.432,-1.432,-1.3684,-1.2815,-1.2484,-1.2396,-1.1871,-0.9102,-0.7364,-0.586,-0.3498,-0.1444,0.0,-0.0176,-0.0176,-0.0117,0.0174,-0.0287,-0.0626,-0.0282,-0.0393,-0.0555,-0.0602,-0.0863,-0.1118,-0.1106,0.0,0.0,0.0,0.0,0.0,0.0,0.0,0.0,0.0,-0.042,-0.0282,0.0,0.0,0.0,0.0,0.0,0.0,0.0,0.0,0.0,0.0,0.0,-0.0403,-0.1161,-0.1636,-0.2291,-0.3064,-0.3565,-0.382,-0.3943,-0.5094,-0.6082,-0.7099,-1.029,-1.2062,-1.2858,-1.3292,-1.3914,-1.4536,-1.3772,-1.4135,-1.4987,0.7113,0.6262,0.5329,0.4721,0.4207,0.363,0.2955,0.3264,0.3507,0.3513,0.3589,0.36,0.3589,0.3589,0.3589,0.3589,0.3589,0.3589,0.3589,0.3589,0.1963,-0.1624,-0.1793,-0.3451,-0.6973,-0.6967,-0.6589,-0.5816,-0.4315,-0.3073,-0.2082,-0.0956,-0.1871,-0.4469,-0.6022,-0.8253,-1.0863,-1.1366,-1.2436,-1.3863,-1.3594,-1.3814,-1.4264,-1.3698,-1.384,-1.4363,-1.4336,-1.4347,-1.4363,-1.4336,-1.432,-1.4208,-1.3825,-1.3658,-1.3147,-1.0301,-0.8356,-0.6645,-0.468,-0.2525,-0.0922,-0.1341,-0.1456,-0.1389,-0.1205,-0.1653,-0.1927,-0.1517,-0.157,-0.1677,-0.1659,-0.2023,-0.2221,-0.2053,0.0,0.0,0.0,0.0,0.0,0.0,0.0,0.0,-0.0805,-0.0608,-0.0424,-0.0292,-0.0095,0.0,0.0,-0.0149,-0.0251,-0.0252,-0.042,-0.0485,-0.0547,-0.0508,-0.0975,-0.1897,-0.2105,-0.2654,-0.3549,-0.3758,-0.3844,-0.4054,-0.6589,-0.7694,-0.8042,-1.202,-1.3655,-1.3838,-1.5255,-1.5816,-1.5832,-1.5923,-1.6037,-1.6135,0.403,0.3735,0.3481,0.3489,0.3524,0.3485,0.3489,0.3569,0.36,0.3575,0.3579,0.3625,0.3594,0.3589,0.3589,0.3589,0.3589,0.3589,0.3589,0.3589,0.1963,-0.1624,-0.1793,-0.346,-0.7035,-0.7027,-0.7177,-0.7561,0.0,-0.6002,-0.6313,-0.5299,-0.624,-0.8855,-0.9078,-1.0728,-1.3376,-1.3625,-1.3863,-1.3931,-1.2316,-1.2692,-1.4092,-1.2298,-1.281,-1.4488,-1.4363,-1.4407,-1.4488,-1.4363,-1.432,-1.432,-1.4264,-1.4264,-1.3809,-1.1407,-0.985,-0.8438,-0.6013,-0.4056,-0.2645,-0.2702,-0.2702,-0.2525,-0.1935,-0.2272,-0.2664,-0.2697,-0.3141,-0.3572,-0.3458,-0.3448,-0.3273,-0.2704,0.0,0.0,0.0,0.0,0.0,0.0,0.0,0.0,-0.0897,-0.0342,-0.0244,-0.0845,-0.0342,0.0,0.0,-0.0509,-0.0824,-0.091,-0.1425,-0.1735,-0.1751,-0.1794,-0.1767,-0.1783,-0.2515,-0.2901,-0.2922,-0.3604,-0.3876,-0.4148,-0.8033,-0.9737,-1.0105,-1.411,-1.5755,-1.5755,-1.5816,-1.5816,-1.5843,-1.6021,-1.6108,-1.6135,0.3651,0.3531,0.3461,0.3555,0.3587,0.3558,0.3636,0.3645,0.3656,0.3663,0.3649,0.3575,0.3621,0.3621,0.3611,0.3594,0.3589,0.3589,0.3589,0.2467,0.0673,-0.168,-0.2969,-0.4747,-0.7035,-0.7414,-0.774,-0.822,-0.7069,-0.6169,-0.5512,-0.6352,-0.697,-0.7465,-0.9046,-0.9883,-1.0243,-1.1614,-1.2299,-1.2376,-1.1792,-1.1973,-1.2423,-1.1929,-1.2147,-1.2799,-1.4007,-1.4477,-1.4319,-1.2903,-1.2469,-1.2256,-1.1081,-1.1518,-1.2084,-1.0133,-0.8412,-0.6701,-0.4707,-0.3756,-0.3316,-0.3354,-0.3336,-0.3253,-0.3148,-0.3237,-0.3319,-0.3313,-0.3477,-0.3583,-0.3565,-0.3562,-0.3489,-0.3277,-0.337,0.0,0.0,0.0,0.0,0.0,-0.2492,-0.2232,-0.1886,-0.1683,-0.1359,-0.0853,-0.0634,-0.0386,0.0,-0.0553,-0.0869,-0.0875,-0.1487,-0.18,-0.1782,-0.1815,-0.2012,-0.2493,-0.2771,-0.3109,-0.3573,-0.3806,-0.4672,-0.608,-0.8668,-1.0563,-1.2081,-1.4694,-1.5816,-1.5816,-1.5816,-1.5816,-1.5843,-1.6021,-1.6108,-1.6135,0.3513,0.354,0.3572,0.36,0.3621,0.3645,0.3677,0.3681,0.3684,0.3694,0.367,0.3652,0.3652,0.3643,0.3621,0.3594,0.3589,0.3477,0.3253,0.2187,0.0449,-0.2017,-0.3193,-0.4527,-0.6065,-0.6619,-0.6774,-0.6646,-0.6418,-0.5969,-0.5315,-0.6344,-0.682,-0.6783,-0.8222,-0.8793,-0.8773,-1.0014,-1.0579,-1.0571,-0.9906,-1.0018,-1.0639,-1.0748,-1.1187,-1.2067,-1.3875,-1.4043,-1.3301,-1.2097,-1.1214,-1.0404,-0.9352,-0.9289,-0.94,-0.8284,-0.7166,-0.5887,-0.4119,-0.3628,-0.3586,-0.3667,-0.3656,-0.3639,-0.366,-0.3636,-0.3607,-0.3607,-0.3607,-0.36,-0.3576,-0.3572,-0.3562,-0.3524,-0.3499,-0.3454,-0.3367,0.0,0.0,0.0,0.0,-0.2727,-0.2411,-0.2216,-0.189,-0.1477,-0.1248,-0.0989,-0.0648,-0.1002,-0.1319,-0.1556,-0.2131,-0.246,-0.2467,-0.2508,-0.2718,-0.3159,-0.322,-0.3513,-0.3922,-0.39,-0.5012,-0.7029,-0.9007,-1.097,-1.2981,-1.496,-1.5816,-1.5816,-1.5816,-1.5816,-1.5843,-1.6021,-1.6108,-1.6135,0.3489,0.3572,0.3604,0.3579,0.3415,0.3367,0.3393,0.3281,0.3175,0.3202,0.3239,0.3278,0.3451,0.3424,0.3451,0.3594,0.3589,0.3365,0.2748,0.2636,0.1009,-0.2409,-0.2633,-0.3249,-0.4371,-0.4945,-0.4705,-0.3593,-0.4907,-0.5541,-0.5541,-0.5599,-0.5944,-0.6482,-0.6759,-0.7416,-0.8417,-0.8652,-0.879,-0.8678,-0.6943,-0.7281,-0.879,-0.88,-0.9966,-1.1837,-1.366,-1.3255,-1.178,-1.1654,-1.0363,-0.879,-0.8678,-0.7449,-0.6162,-0.6274,-0.6218,-0.5771,-0.4039,-0.3611,-0.3628,-0.3604,-0.3618,-0.3586,-0.3582,-0.3582,-0.3582,-0.3579,-0.3579,-0.3562,-0.3503,-0.3493,-0.3493,-0.3485,-0.3495,-0.3497,-0.3408,-0.3303,-0.3028,-0.2523,-0.2455,-0.2469,-0.2533,-0.2126,-0.2023,-0.249,-0.2022,-0.1757,-0.1743,-0.1766,-0.2025,-0.2599,-0.3203,-0.3561,-0.3596,-0.3652,-0.3712,-0.3838,-0.3862,-0.3922,-0.3888,-0.4073,-0.5181,-0.7214,-0.9241,-1.1203,-1.3169,-1.5021,-1.5816,-1.5816,-1.5816,-1.5816,-1.5843,-1.6021,-1.6108,-1.6135,0.3547,0.3564,0.3472,0.306,0.1792,0.0696,0.0234,-0.0989,-0.1917,-0.199,-0.1506,-0.0689,0.0632,0.1198,0.2036,0.3481,0.3589,0.3365,0.2748,0.185,0.0505,-0.1234,-0.2185,-0.2857,-0.3137,-0.4055,-0.4575,-0.4709,-0.5062,-0.5209,-0.5209,-0.5739,-0.5376,-0.4294,-0.534,-0.5143,-0.4248,-0.5652,-0.65,-0.6836,-0.5994,-0.6162,-0.6951,-0.7055,-0.8203,-0.9966,-1.178,-1.2179,-1.1598,-1.0123,-0.8467,-0.6724,-0.5327,-0.4597,-0.4485,-0.5882,-0.5327,-0.4152,-0.3702,-0.3611,-0.3639,-0.3656,-0.3681,-0.3699,-0.3674,-0.367,-0.3663,-0.3639,-0.3579,-0.3568,-0.3587,-0.358,-0.3565,-0.352,-0.3482,-0.3475,-0.3322,-0.3264,-0.3172,-0.3001,-0.3011,-0.3035,-0.3128,-0.2997,-0.2802,-0.2542,-0.237,-0.2315,-0.2327,-0.2333,-0.2463,-0.262,-0.3162,-0.3569,-0.366,-0.3674,-0.3733,-0.3898,-0.3883,-0.3922,-0.3949,-0.5489,-0.7271,-0.9303,-1.1265,-1.3231,-1.5133,-1.5627,-1.5816,-1.5816,-1.5816,-1.5816,-1.5843,-1.6021,-1.6108,-1.6135,0.0905,0.0681,0.0513,-0.0116,-0.1043,-0.1798,-0.2172,-0.2802,-0.3318,-0.3757,-0.3187,-0.2353,-0.1436,-0.1251,-0.0675,0.0617,0.2467,0.3253,0.2355,0.1682,0.0673,-0.0841,-0.1514,-0.1737,-0.1456,-0.2288,-0.2777,-0.2763,-0.2763,-0.2763,-0.2763,-0.3165,-0.3119,-0.2732,-0.3471,-0.3365,-0.2748,-0.3755,-0.4371,-0.4653,-0.4315,-0.4541,-0.5157,-0.608,-0.699,-0.8065,-0.9899,-1.0571,-1.0363,-0.9398,-0.7808,-0.6106,-0.5157,-0.4264,-0.3814,-0.4765,-0.4371,-0.3594,-0.3607,-0.3632,-0.3663,-0.3694,-0.3694,-0.3688,-0.3699,-0.3701,-0.3699,-0.3681,-0.3619,-0.3663,-0.3618,-0.3611,-0.3587,-0.3513,-0.3478,-0.3468,-0.3344,-0.325,-0.3224,-0.3209,-0.3246,-0.329,-0.3333,-0.3366,-0.3271,-0.2943,-0.2929,-0.2926,-0.2888,-0.2979,-0.3007,-0.3024,-0.3349,-0.3589,-0.3681,-0.3737,-0.3855,-0.392,-0.3904,-0.4363,-0.5304,-0.5428,-0.764,-1.1203,-1.1379,-1.3103,-1.5816,-1.5816,-1.5816,-1.5816,-1.5816,-1.5843,-1.5853,-1.6037,-1.6146,-1.6217,-0.2548,-0.2953,-0.3139,-0.3828,-0.4107,-0.4334,-0.445,-0.42,-0.4193,-0.4797,-0.4281,-0.3727,-0.3494,-0.3795,-0.371,-0.2919,0.0673,0.2414,0.1347,0.1572,0.1066,-0.0561,-0.0561,-0.028,0.028,-0.0336,-0.0449,-0.0112,-0.0112,-0.0112,-0.0112,-0.0224,-0.0786,-0.1684,-0.1852,-0.2189,-0.2579,-0.2579,-0.2636,-0.2692,-0.258,-0.2973,-0.3758,-0.5327,-0.605,-0.6505,-0.8122,-0.8615,-0.8573,-0.8631,-0.7612,-0.6288,-0.6001,-0.5054,-0.3994,-0.3706,-0.3596,-0.3607,-0.3628,-0.366,-0.3694,-0.3726,-0.3692,-0.3606,-0.3715,-0.3726,-0.3726,-0.3719,-0.3723,-0.3708,-0.3652,-0.3636,-0.3604,-0.3524,-0.3468,-0.3453,-0.3296,0.0,-0.3184,-0.3249,-0.33,-0.3359,-0.3419,-0.3449,-0.3453,-0.3427,-0.3426,-0.3426,-0.3426,-0.3479,-0.3495,-0.3525,-0.3527,-0.36,-0.3688,-0.3863,-0.392,-0.392,-0.3922,-0.4934,-0.6845,-0.5428,-0.7701,-1.2732,-1.1391,-1.2683,-1.5816,-1.5816,-1.5816,-1.5816,-1.5816,-1.5825,-1.5923,-1.6065,-1.6173,-1.6277,-0.3481,-0.3549,-0.38,-0.4447,-0.5858,-0.7079,-0.7513,-0.8898,-0.9856,-0.9859,-0.9321,-0.8362,-0.6759,-0.627,-0.5357,-0.3682,-0.1529,-0.0565,-0.1178,0.0673,0.146,0.0673,0.1122,0.1403,0.1516,0.0954,0.0168,-0.0786,-0.0786,-0.0786,-0.0786,-0.1291,-0.1347,-0.1066,-0.2131,-0.2355,-0.1965,-0.1965,-0.2245,-0.2636,-0.2133,-0.2582,-0.3646,-0.3927,-0.4989,-0.6333,-0.662,-0.6732,-0.6724,-0.6732,-0.6594,-0.6167,-0.4553,-0.4981,-0.5711,-0.4055,-0.3625,-0.3663,-0.3643,-0.3677,-0.3726,-0.3757,-0.3737,-0.3715,-0.3723,-0.3726,-0.3719,-0.3694,-0.3708,-0.3715,-0.3681,-0.3632,-0.3583,-0.3489,-0.3427,-0.3336,-0.3317,-0.3265,-0.3258,-0.3336,-0.3377,-0.3422,-0.3483,-0.3493,-0.3493,-0.3489,-0.3489,-0.3489,-0.3489,-0.352,-0.3482,-0.3476,-0.3533,-0.3595,-0.3719,-0.3813,-0.392,-0.392,-0.3922,-0.4934,-0.6968,-0.8252,-1.0337,-1.2858,-1.4271,-1.5255,-1.5816,-1.5816,-1.5816,-1.5816,-1.5816,-1.5832,-1.5809,-1.6021,-1.6119,-1.6163,-0.687,-0.7198,-0.7464,-0.8112,-0.8941,-0.9568,-0.9826,-1.0344,-1.0754,-1.1105,-1.0564,-0.9822,-0.9014,-0.883,-0.8325,-0.7202,-0.5723,-0.4406,-0.3305,-0.0056,0.1684,0.1403,0.1965,0.1963,0.1346,0.0726,0.0,-0.0898,-0.0556,-0.0388,-0.0446,-0.0725,-0.0836,-0.0947,-0.1456,-0.174,-0.1796,-0.1796,-0.2133,-0.2692,-0.2411,-0.2804,-0.3589,-0.3253,-0.3815,-0.4821,-0.4485,-0.5213,-0.6281,-0.6305,-0.6336,-0.6412,-0.6582,-0.6488,-0.6213,-0.543,-0.4441,-0.3677,-0.3663,-0.3681,-0.3708,-0.3739,-0.3723,-0.3708,-0.3744,-0.375,-0.3748,-0.3733,-0.3739,-0.3737,-0.3688,-0.3656,-0.3614,-0.3534,-0.3437,-0.3358,-0.3325,-0.3296,-0.33,-0.3412,-0.3422,-0.3484,-0.3544,-0.3549,-0.3549,-0.3549,-0.3534,-0.3524,-0.3524,-0.3482,-0.3503,-0.3537,-0.3636,-0.3688,-0.375,-0.3824,-0.3927,-0.3883,-0.3929,-0.5551,-0.8498,-0.8322,-1.047,-1.4399,-1.4271,-1.4771,-1.5816,-1.5816,-1.5816,-1.5816,-1.5816,-1.5842,-1.5951,-1.6065,-1.619,-1.6315,-0.9889,-1.0372,-1.0615,-1.1105,-1.1184,-1.1242,-1.1221,-1.0773,-1.0665,-1.1134,-1.0691,-1.0353,-1.043,-1.0672,-1.0644,-1.026,-0.8617,-0.6783,-0.483,-0.0786,0.1628,0.1796,0.2133,0.1794,0.0729,0.0223,-0.0389,-0.1119,-0.0496,-0.0219,-0.0221,-0.0221,-0.0554,-0.1108,-0.1118,-0.1459,-0.2021,-0.2021,-0.2299,-0.2692,-0.2692,-0.3085,-0.3533,-0.3085,-0.3197,-0.3533,-0.3085,-0.4091,-0.5725,-0.6167,-0.6639,-0.7208,-0.8732,-0.8454,-0.7579,-0.7194,-0.6088,-0.476,-0.3918,-0.3692,-0.3699,-0.373,-0.3712,-0.3705,-0.375,-0.3761,-0.3761,-0.3761,-0.3768,-0.3757,-0.3712,-0.3684,-0.3639,-0.3538,-0.3454,-0.3388,-0.3347,-0.3336,-0.3348,-0.3393,-0.3465,-0.3534,-0.3587,-0.3596,-0.36,-0.36,-0.358,-0.3509,-0.3509,-0.3503,-0.3527,-0.3643,-0.3674,-0.3719,-0.3782,-0.3895,-0.3873,-0.3904,-0.3874,-0.5732,-0.918,-0.7578,-0.9914,-1.5021,-1.3476,-1.396,-1.5816,-1.5816,-1.5816,-1.5816,-1.5816,-1.5869,-1.6037,-1.6092,-1.6217,-1.6402,-1.0765,-1.0914,-1.1008,-1.1151,-1.1225,-1.1257,-1.1229,-1.1225,-1.1134,-1.0951,-1.0927,-1.0906,-1.0804,-1.0837,-1.0877,-1.0833,-0.7715,-0.5616,-0.544,-0.1407,0.1235,0.1796,0.1291,0.073,0.0056,0.0,-0.0554,-0.172,-0.1155,-0.0821,-0.0821,-0.0828,-0.1164,-0.1718,-0.1733,-0.2077,-0.2636,-0.2636,-0.2636,-0.2692,-0.2692,-0.3085,-0.3589,-0.3533,-0.3533,-0.3589,-0.3533,-0.3646,-0.4099,-0.5882,-0.7542,-0.8893,-0.9073,-1.0254,-1.1193,-0.937,-0.8737,-0.7914,-0.4575,-0.3723,-0.373,-0.3761,-0.3744,-0.3723,-0.373,-0.373,-0.373,-0.373,-0.375,-0.3772,-0.3823,-0.3694,-0.3625,-0.3589,-0.3463,-0.3378,-0.3401,-0.3381,-0.3396,-0.3482,-0.352,-0.35,-0.3587,-0.3614,-0.3575,-0.3575,-0.3571,-0.3571,-0.3571,-0.36,-0.3614,-0.3674,-0.3705,-0.375,-0.3813,-0.3844,-0.3873,-0.3904,-0.3874,-0.5058,-0.7091,-0.6968,-0.9119,-1.2981,-1.2858,-1.396,-1.5816,-1.5816,-1.5816,-1.5816,-1.5816,-1.5832,-1.5809,-1.6021,-1.6119,-1.6163,-1.0963,-1.1045,-1.1118,-1.1209,-1.1192,-1.1204,-1.1221,-1.1192,-1.1171,-1.1127,-1.0996,-1.0931,-1.0922,-1.0849,-1.0824,-1.089,-0.8617,-0.6506,-0.5008,-0.2708,-0.0451,0.1684,0.1564,0.1002,0.0,0.0384,-0.0055,-0.1265,-0.065,-0.0324,-0.0326,-0.0329,-0.066,-0.1266,-0.1228,-0.1796,-0.2692,-0.2692,-0.2917,-0.3197,-0.2861,-0.3085,-0.3533,-0.2748,-0.2973,-0.3533,-0.3197,-0.3979,-0.5387,-0.611,-0.7622,-0.9373,-1.0506,-1.1439,-1.1868,-1.1077,-1.0079,-0.8873,-0.7588,-0.6315,-0.5096,-0.4052,-0.3748,-0.3739,-0.3795,-0.3795,-0.3788,-0.3806,-0.3803,-0.3793,-0.3775,-0.3712,-0.3652,-0.3621,-0.3524,-0.3454,-0.3467,-0.3459,-0.3469,-0.3524,-0.3516,-0.3564,-0.367,-0.3684,-0.3684,-0.3663,-0.3681,-0.3617,-0.3582,-0.3677,-0.3712,-0.3737,-0.3782,-0.382,-0.3842,-0.3873,-0.39,-0.387,-0.3881,-0.5612,-0.8747,-0.8747,-1.0893,-1.4648,-1.4648,-1.5072,-1.5816,-1.5816,-1.5816,-1.5816,-1.5816,-1.586,-1.5869,-1.5967,-1.6092,-1.6233,-1.0943,-1.1016,-1.109,-1.111,-1.1118,-1.1131,-1.1163,-1.1221,-1.1201,-1.109,-1.1016,-1.0963,-1.0943,-1.0857,-1.086,-1.0849,-0.8698,-0.6589,-0.4873,-0.2987,-0.0902,0.1403,0.1726,0.133,0.0332,0.0708,0.0379,-0.0599,-0.0215,0.0,0.0,0.0,-0.0327,-0.0876,-0.0888,-0.1455,-0.2411,-0.2636,-0.2804,-0.3029,-0.2973,-0.3141,-0.3253,-0.2582,-0.2861,-0.3646,-0.3758,-0.4877,-0.6449,-0.7635,-0.8927,-1.036,-1.2231,-1.2838,-1.2838,-1.2939,-1.2032,-1.0861,-1.0402,-0.9216,-0.7579,-0.5237,-0.4652,-0.4711,-0.4725,-0.5205,-0.5603,-0.5619,-0.5127,-0.4683,-0.4656,-0.4138,-0.3681,-0.3586,-0.3583,-0.354,-0.3531,-0.3538,-0.3555,-0.3583,-0.3625,-0.3663,-0.3694,-0.3705,-0.3701,-0.3681,-0.3701,-0.3694,-0.3652,-0.3726,-0.3772,-0.3772,-0.3838,-0.3873,-0.3873,-0.3893,-0.3918,-0.3888,-0.3888,-0.5366,-0.8012,-0.795,-1.016,-1.3975,-1.3975,-1.4648,-1.5816,-1.5816,-1.5816,-1.5816,-1.5816,-1.586,-1.588,-1.5907,-1.6048,-1.6233,-1.0807,-1.0824,-1.0918,-1.1004,-1.1024,-1.1057,-1.1151,-1.1221,-1.1156,-1.091,-1.1102,-1.1115,-1.084,-1.0837,-1.0857,-1.0763,-0.7505,-0.5377,-0.5377,-0.1963,0.0281,0.0898,0.1504,0.1496,0.0887,0.0926,0.0594,0.0,0.0,0.0,0.0,0.0,-0.0325,-0.0875,-0.0883,-0.1225,-0.1852,-0.2467,-0.2355,-0.1909,-0.3085,-0.3253,-0.2748,-0.3365,-0.3589,-0.3871,-0.5659,-0.6333,-0.69,-1.0563,-1.1837,-1.2137,-1.4067,-1.4673,-1.4727,-1.4967,-1.4869,-1.4322,-1.2689,-1.2147,-1.1134,-0.7527,-0.6727,-0.6787,-0.6668,-0.8153,-0.9551,-0.9424,-0.7937,-0.6645,-0.6645,-0.5031,-0.3705,-0.3645,-0.3636,-0.3625,-0.3594,-0.3618,-0.3645,-0.3677,-0.3681,-0.367,-0.3582,-0.3663,-0.3681,-0.3681,-0.3681,-0.3681,-0.3681,-0.3739,-0.3831,-0.3831,-0.3859,-0.3904,-0.3904,-0.3904,-0.3918,-0.3888,-0.3888,-0.3888,-0.3949,-0.3949,-0.6101,-0.9914,-0.9914,-1.2123,-1.5755,-1.5755,-1.5816,-1.5816,-1.5816,-1.5816,-1.5832,-1.588,-1.5994,-1.6119,-1.0849,-1.0869,-1.0918,-1.1004,-1.0971,-1.0984,-1.1143,-1.111,-1.1069,-1.1135,-1.1069,-1.1037,-1.0951,-1.091,-1.0365,-0.9095,-0.6801,-0.4315,-0.1794,0.0167,0.1335,0.1502,0.1656,0.1479,0.0925,0.1292,0.0963,0.0,0.0,0.0,0.0,0.0,-0.0325,-0.0875,-0.0883,-0.1225,-0.1852,-0.2467,-0.258,-0.2467,-0.2804,-0.3141,-0.3309,-0.3085,-0.4035,-0.5551,-0.6106,-0.789,-1.0197,-1.1403,-1.2734,-1.3974,-1.469,-1.4923,-1.4939,-1.4952,-1.4995,-1.4958,-1.443,-1.336,-1.1797,-0.9338,-0.8713,-0.8766,-0.8803,-0.925,-0.9712,-0.951,-0.9125,-0.8769,-0.8613,-0.7072,-0.5783,-0.5666,-0.454,-0.3663,-0.3656,-0.366,-0.3677,-0.3708,-0.3712,-0.3719,-0.373,-0.3739,-0.3737,-0.3715,-0.3712,-0.373,-0.3775,-0.3813,-0.3842,-0.3862,-0.3911,-0.3874,-0.3874,-0.3874,-0.3877,-0.3888,-0.3888,-0.4629,-0.5984,-0.5984,-0.7455,-0.9914,-0.9914,-1.133,-1.3716,-1.3716,-1.4521,-1.5816,-1.5816,-1.5816,-1.5816,-1.5798,-1.594,-1.6108,-1.0877,-1.0857,-1.0877,-1.1004,-1.0951,-1.0931,-1.1037,-1.1069,-1.1057,-1.1061,-1.1045,-1.1037,-1.0931,-1.0898,-1.0136,-0.8347,-0.5786,-0.3081,-0.0168,0.0891,0.1549,0.1765,0.1696,0.1683,0.1566,0.1446,0.1066,0.0373,0.0106,0.0,0.0,0.0,-0.0215,-0.0544,-0.0549,-0.072,-0.1117,-0.1961,-0.2187,-0.2019,-0.2523,-0.2748,-0.2861,-0.2748,-0.3587,-0.4989,-0.5938,-0.8116,-1.0695,-1.152,-1.3127,-1.4787,-1.4925,-1.4979,-1.4979,-1.4979,-1.5033,-1.5093,-1.5093,-1.4405,-1.336,-1.2197,-1.1407,-1.0884,-1.0871,-1.1472,-1.1957,-1.1809,-1.1208,-1.0715,-1.0556,-0.9025,-0.751,-0.6631,-0.5571,-0.4578,-0.3817,-0.3708,-0.3723,-0.3744,-0.3744,-0.3748,-0.3754,-0.3754,-0.3748,-0.3726,-0.3748,-0.3779,-0.3813,-0.3855,-0.3887,-0.3904,-0.387,-0.3888,-0.3888,-0.3888,-0.3888,-0.3888,-0.3888,-0.4568,-0.5736,-0.5736,-0.6781,-0.8685,-0.8685,-1.0286,-1.2793,-1.2793,-1.3965,-1.5816,-1.5816,-1.5816,-1.5816,-1.5816,-1.5869,-1.6037,-1.0857,-1.0824,-1.0824,-1.0984,-1.0943,-1.089,-1.0898,-1.1037,-1.1102,-1.086,-1.1053,-1.1115,-1.086,-1.0732,-0.9891,-0.8026,-0.4541,-0.1738,-0.0056,0.0668,0.1214,0.1751,0.1736,0.1943,0.2481,0.1445,0.0852,0.0798,0.0264,0.0,0.0,0.0,0.0,0.0,0.0,0.0,-0.0055,-0.123,-0.1403,-0.101,-0.2131,-0.2299,-0.1852,-0.2467,-0.2804,-0.3253,-0.5659,-0.7672,-0.953,-1.1416,-1.3352,-1.4896,-1.4994,-1.4979,-1.4979,-1.4979,-1.4995,-1.4995,-1.5006,-1.5103,-1.5276,-1.5391,-1.423,-1.3028,-1.2903,-1.4215,-1.5374,-1.526,-1.3788,-1.2474,-1.2461,-1.0942,-0.9094,-0.7278,-0.6792,-0.5986,-0.42,-0.3872,-0.3772,-0.3772,-0.3772,-0.3761,-0.3733,-0.373,-0.373,-0.373,-0.3782,-0.3813,-0.3817,-0.3869,-0.39,-0.3904,-0.387,-0.3885,-0.3888,-0.3885,-0.3885,-0.3888,-0.3888,-0.3888,-0.3888,-0.3888,-0.4873,-0.6657,-0.6657,-0.8808,-1.2311,-1.2487,-1.3716,-1.5566,-1.5755,-1.5816,-1.5816,-1.5816,-1.5825,-1.5923,-1.0852,-1.0877,-1.0951,-1.0922,-1.0898,-1.091,-1.0984,-1.0971,-1.0951,-1.0963,-1.1016,-1.1037,-1.0971,-0.966,-0.8048,-0.6223,-0.2699,-0.0224,0.0673,0.1281,0.1822,0.2407,0.2008,0.183,0.1871,0.1227,0.069,0.0211,0.0053,0.0,0.0,0.0,0.0,0.0,0.0,0.0,-0.0055,-0.0783,-0.101,-0.0954,-0.1684,-0.1909,-0.1852,-0.2467,-0.3587,-0.5153,-0.756,-0.9568,-1.1326,-1.3366,-1.4505,-1.4952,-1.5021,-1.4979,-1.4979,-1.4979,-1.5049,-1.5206,-1.5293,-1.5401,-1.5532,-1.5701,-1.5451,-1.5141,-1.4981,-1.5252,-1.5499,-1.5374,-1.5028,-1.4683,-1.4546,-1.3046,-1.1591,-1.1032,-0.8511,-0.6464,-0.6045,-0.4706,-0.3772,-0.3772,-0.3772,-0.3768,-0.3761,-0.3761,-0.3761,-0.3761,-0.3775,-0.3793,-0.3817,-0.3848,-0.388,-0.3904,-0.3911,-0.3925,-0.3888,-0.3925,-0.3925,-0.3888,-0.3888,-0.3888,-0.3888,-0.3888,-0.4134,-0.4568,-0.4568,-0.5916,-0.8319,-0.9853,-1.1629,-1.3589,-1.5194,-1.5816,-1.5816,-1.5816,-1.5825,-1.5951,-1.0872,-1.0857,-1.089,-1.089,-1.089,-1.089,-1.0898,-1.0931,-1.0943,-1.0898,-1.0931,-1.0598,-0.971,-0.876,-0.7103,-0.4397,-0.1631,0.0281,0.0842,0.1448,0.1987,0.2572,0.2062,0.1774,0.1706,0.0906,0.0318,0.0,0.0,0.0,0.0,0.0,0.0,0.0,0.0,0.0,-0.0055,-0.067,-0.0898,-0.0954,-0.1235,-0.1516,-0.1852,-0.2133,-0.3029,-0.4429,-0.6831,-0.9454,-1.2067,-1.4067,-1.4841,-1.4979,-1.4979,-1.4979,-1.4979,-1.4979,-1.5022,-1.5093,-1.5206,-1.5304,-1.5434,-1.5603,-1.569,-1.5673,-1.5718,-1.5674,-1.5543,-1.5418,-1.5347,-1.5276,-1.5151,-1.4297,-1.3342,-1.2344,-1.0567,-0.8934,-0.8054,-0.6297,-0.5123,-0.5123,-0.4357,-0.3772,-0.3772,-0.3772,-0.3772,-0.3772,-0.3786,-0.3806,-0.3835,-0.3851,-0.3873,-0.3904,-0.3891,-0.3898,-0.3929,-0.3911,-0.3918,-0.3888,-0.3888,-0.3888,-0.3888,-0.3888,-0.3888,-0.3888,-0.3888,-0.5058,-0.6968,-0.8012,-1.016,-1.292,-1.3912,-1.4903,-1.5805,-1.5745,-1.5738,-1.5869,-1.0402,-1.0664,-1.0872,-1.0877,-1.089,-1.0752,-1.0388,-1.0716,-1.0805,-1.0376,-1.0371,-0.9824,-0.8244,-0.7449,-0.5715,-0.2353,-0.0617,0.0561,0.1178,0.1617,0.2157,0.2736,0.2119,0.1777,0.1706,0.0585,0.0,0.0,0.0,0.0,0.0,0.0,0.0,0.0,0.0,0.0,-0.0055,-0.0556,-0.0729,-0.073,-0.073,-0.1066,-0.1516,-0.174,-0.2133,-0.2917,-0.5771,-0.9225,-1.2668,-1.4233,-1.4852,-1.4979,-1.4979,-1.4979,-1.4979,-1.4979,-1.4995,-1.5006,-1.5006,-1.5179,-1.5304,-1.5401,-1.5516,-1.569,-1.5789,-1.5718,-1.5543,-1.5472,-1.5331,-1.5189,-1.5108,-1.5006,-1.4501,-1.2915,-1.2393,-1.1633,-1.0107,-0.8292,-0.6941,-0.6645,-0.4938,-0.3764,-0.3772,-0.3768,-0.3764,-0.3772,-0.3795,-0.382,-0.3902,-0.3909,-0.3862,-0.3887,-0.3869,-0.3873,-0.3904,-0.39,-0.3914,-0.3888,-0.3881,-0.3885,-0.3888,-0.3888,-0.3888,-0.3888,-0.3888,-0.4871,-0.6411,-0.7152,-0.9364,-1.236,-1.29,-1.4258,-1.5805,-1.5701,-1.5673,-1.5832,-0.8487,-0.9815,-1.0963,-1.0898,-1.089,-1.0373,-0.877,-0.9862,-1.0276,-0.8685,-0.8471,-0.8356,-0.8122,-0.4815,-0.1849,0.0224,0.1122,0.1796,0.2411,0.2521,0.2836,0.3342,0.2351,0.1789,0.1706,0.0582,0.0,0.0,0.0,0.0,0.0,0.0,0.0,0.0,0.0,0.0,0.0,-0.0111,-0.0111,-0.0112,-0.0112,-0.0168,-0.0337,-0.1403,-0.1852,-0.2523,-0.6999,-1.1087,-1.4409,-1.4741,-1.4923,-1.4979,-1.4979,-1.4979,-1.4979,-1.4979,-1.5108,-1.5189,-1.5189,-1.5363,-1.5532,-1.5543,-1.5641,-1.5805,-1.5816,-1.5718,-1.5603,-1.5745,-1.5445,-1.5249,-1.5331,-1.5179,-1.492,-1.4682,-1.327,-1.2097,-1.1858,-1.0224,-0.8409,-0.6765,-0.4914,-0.3744,-0.3768,-0.3748,-0.3744,-0.3768,-0.3775,-0.3779,-0.3841,-0.381,-0.3824,-0.3827,-0.3848,-0.3873,-0.3904,-0.388,-0.3893,-0.3888,-0.3922,-0.3925,-0.3888,-0.3888,-0.3888,-0.3888,-0.3888,-0.4073,-0.4568,-0.8073,-0.9788,-1.0647,-1.4012,-1.5555,-1.5816,-1.5805,-1.5805,-1.5816,-0.6612,-0.7266,-0.7861,-0.7831,-0.7823,-0.7547,-0.6757,-0.7295,-0.7505,-0.6719,-0.6612,-0.6218,-0.5209,-0.2521,-0.0224,0.1291,0.101,0.1347,0.2636,0.2411,0.2563,0.3452,0.2407,0.1791,0.1706,0.0584,0.0,0.0,0.0,0.0,0.0,0.0,0.0,0.0,0.0,0.0,0.0,0.0,0.0,-0.0056,-0.0393,-0.073,-0.1066,-0.1572,-0.2245,-0.3369,-0.7542,-1.0817,-1.3394,-1.449,-1.4939,-1.4979,-1.4979,-1.4979,-1.4995,-1.5065,-1.5179,-1.5233,-1.5293,-1.5391,-1.5472,-1.5472,-1.5516,-1.557,-1.5641,-1.5613,-1.5647,-1.5701,-1.5472,-1.5304,-1.5293,-1.5151,-1.4979,-1.4979,-1.4326,-1.3742,-1.3742,-1.1278,-0.8277,-0.5326,-0.4274,-0.375,-0.3748,-0.375,-0.3757,-0.3772,-0.3772,-0.3779,-0.3795,-0.3793,-0.3799,-0.3817,-0.3813,-0.3824,-0.3855,-0.3842,-0.3866,-0.3925,-0.3911,-0.3922,-0.3888,-0.3888,-0.3888,-0.3888,-0.3888,-0.4568,-0.5736,-0.7517,-0.9542,-1.169,-1.3354,-1.4679,-1.5718,-1.5789,-1.5772,-1.5718]},{"header":{"parameterUnit":"m.s-1","parameterCategory":1,"la1":30.6,"la2":28.766,"lo1":-90.7593,"lo2":-88.6598,"dy":0.0162,"dx":0.0183,"nx":116,"ny":114,"refTime":"2023-04-09T12:00:00:Z","depth":0,"parameterNumber":3,"parameterNumberName":"V-component_of_WINDS"},"data":[0.0,0.0,0.0,0.0,0.0,0.0,0.0,0.0,0.0,0.0,0.0,0.0,0.0,0.0,0.0,0.0,0.0,0.0,0.0,0.0,0.0,0.0,0.0,0.0,0.0,0.0,0.0,0.0,0.0,0.0,0.0,0.0,0.0,0.0,0.0,0.0,0.0,0.0,0.0,0.0,0.0,0.0,0.0,0.0,0.0,0.0,0.0,0.0,0.0,0.0,0.0,0.0,0.0,0.0,0.0,0.0,0.0,0.0,0.0,0.0,0.0,0.0,0.0,0.0,0.0,0.0,0.0,0.0,0.0,0.0,0.0,0.0,0.0,0.0,0.0,0.0,0.0,0.0,0.0,0.0,0.0,0.0,0.0,0.0,0.0,0.0,0.0,0.0,0.0,0.0,0.0,0.0,0.0,0.0,0.0,0.0,0.0,0.0,0.0,0.0,0.0,0.0,0.0,0.0,0.0,0.0,0.0,0.0,0.0,0.0,0.0,0.0,0.0,0.0,0.0,0.0,0.0,0.0,0.0,0.0,0.0,0.0,0.0,0.0,0.0,0.0,0.0,0.0,0.0,0.0,0.0,0.0,0.0,0.0,0.0,0.0,0.0,0.0,0.0,0.0,0.0,0.0,0.0,0.0,0.0,0.0,0.0,0.0,0.0,0.0,0.0,0.0,0.0,0.0,0.0,0.0,0.0,0.0,0.0,0.0,0.0,0.0,0.0,0.0,0.0,0.0,0.0,0.0,0.0,0.0,0.0,0.0,0.0,0.0,0.0,0.0,0.0,0.0,0.0,0.0,0.0,0.0,0.0,0.0,0.0,0.0,0.0,0.0,0.0,0.0,0.0,0.0,0.0,0.0,0.0,0.0,0.0,0.0,0.0,0.0,0.0,0.0,0.0,0.0,0.0,0.0,0.0,0.0,0.0,0.0,0.0,0.0,0.0,0.0,0.0,0.0,0.0,0.0,0.0,0.0,0.0,0.0,0.0,0.0,0.0,0.0,0.0,0.0,0.0,0.0,0.0,0.0,0.0,0.0,0.0,0.0,0.0,0.0,0.0,0.0,0.0,0.0,0.0,0.0,0.0,0.0,0.0,0.0,0.0,0.0,0.0,0.0,0.0,0.0,0.0,0.0,0.0,0.0,0.0,0.0,0.0,0.0,0.0,0.0,0.0,0.0,0.0,0.0,0.0,0.0,0.0,0.0,0.0,0.0,0.0,0.0,0.0,0.0,0.0,0.0,0.0,0.0,0.0,0.0,0.0,0.0,0.0,0.0,0.0,0.0,0.0,0.0,0.0,0.0,0.0,0.0,0.0,0.0,0.0,0.0,0.0,0.0,0.0,0.0,0.0,0.0,0.0,0.0,0.0,0.0,0.0,0.0,0.0,0.0,0.0,0.0,0.0,0.0,0.0,0.0,0.0,0.0,0.0,0.0,0.0,0.0,0.0,0.0,0.0,0.0,0.0,0.0,0.0,0.0,0.0,0.0,0.0,0.0,0.0,0.0,0.0,0.0,0.0,0.0,0.0,0.0,0.0,0.0,0.0,0.0,0.0,0.0,0.0,0.0,0.0,0.0,0.0,0.0,0.0,0.0,0.0,0.0,0.0,0.0,0.0,0.0,0.0,0.0,0.0,0.0,0.0,0.0,0.0,0.0,0.0,0.0,0.0,0.0,0.0,0.0,0.0,0.0,0.0,0.0,0.0,0.0,0.0,0.0,0.0,0.0,0.0,0.0,0.0,0.0,0.0,0.0,0.0,0.0,0.0,0.0,0.0,0.0,0.0,0.0,0.0,0.0,0.0,0.0,0.0,0.0,0.0,0.0,0.0,0.0,0.0,0.0,0.0,0.0,0.0,0.0,0.0,0.0,0.0,0.0,0.0,0.0,0.0,0.0,0.0,0.0,0.0,0.0,0.0,0.0,0.0,0.0,0.0,0.0,0.0,0.0,0.0,0.0,0.0,0.0,0.0,0.0,0.0,0.0,0.0,0.0,0.0,0.0,0.0,0.0,0.0,0.0,0.0,0.0,0.0,0.0,0.0,0.0,0.0,0.0,0.0,0.0,0.0,0.0,0.0,0.0,0.0,0.0,0.0,0.0,0.0,0.0,0.0,0.0,0.0,0.0,0.0,0.0,0.0,0.0,0.0,0.0,0.0,0.0,0.0,0.0,0.0,0.0,0.0,0.0,0.0,0.0,0.0,0.0,0.0,0.0,0.0,0.0,0.0,0.0,0.0,0.0,0.0,0.0,0.0,0.0,0.0,0.0,0.0,0.0,0.0,0.0,0.0,0.0,0.0,0.0,0.0,0.0,0.0,0.0,0.0,0.0,0.0,0.0,0.0,0.0,0.0,0.0,0.0,0.0,0.0,0.0,0.0,0.0,0.0,0.0,0.0,0.0,0.0,0.0,0.0,0.0,0.0,0.0,0.0,0.0,0.0,0.0,0.0,0.0,0.0,0.0,0.0,0.0,0.0,0.0,0.0,0.0,0.0,0.0,0.0,0.0,0.0,0.0,0.0,0.0,0.0,0.0,0.0,0.0,0.0,0.0,0.0,0.0,0.0,0.0,0.0,0.0,0.0,0.0,0.0,0.0,0.0,0.0,0.0,0.0,0.0,0.0,0.0,0.0,0.0,0.0,0.0,0.0,0.0,0.0,0.0,0.0,0.0,0.0,0.0,0.0,0.0,0.0,0.0,0.0,0.0,0.0,0.0,0.0,0.0,0.0,0.0,0.0,0.0,0.0,0.0,0.0,0.0,0.0,0.0,0.0,0.0,0.0,0.0,0.0,0.0,0.0,0.0,0.0,0.0,0.0,0.0,0.0,0.0,0.0,0.0,0.0,0.0,0.0,0.0,0.0,0.0,0.0,0.0,0.0,0.0,0.0,0.0,0.0,0.0,0.0,0.0,0.0,0.0,0.0,0.0,0.0,0.0,0.0,0.0,0.0,0.0,0.0,0.0,0.0,0.0,0.0,0.0,0.0,0.0,0.0,0.0,0.0,0.0,0.0,0.0,0.0,0.0,0.0,0.0,0.0,0.0,0.0,0.0,0.0,0.0,0.0,0.0,0.0,0.0,0.0,0.0,0.0,0.0,0.0,0.0,0.0,0.0,0.0,0.0,0.0,0.0,0.0,0.0,0.0,0.0,0.0,0.0,0.0,0.0,0.0,0.0,0.0,0.0,0.0,0.0,0.0,0.0,0.0,0.0,0.0,0.0,0.0,0.0,0.0,0.0,0.0,0.0,0.0,0.0,0.0,0.0,0.0,0.0,0.0,0.0,0.0,0.0,0.0,0.0,0.0,0.0,0.0,0.0,0.0,0.0,0.0,0.0,0.0,0.0,0.0,0.0,0.0,0.0,0.0,0.0,0.0,0.0,0.0,0.0,0.0,0.0,0.0,0.0,0.0,0.0,0.0,0.0,0.0,0.0,0.0,0.0,0.0,0.0,0.0,0.0,0.0,0.0,0.0,0.0,0.0,0.0,0.0,0.0,0.0,0.0,0.0,0.0,0.0,0.0,0.0,0.0,0.0,0.0,0.0,0.0,0.0,0.0,0.0,0.0,0.0,0.0,0.0,0.0,0.0,0.0,0.0,0.0,0.0,0.0,0.0,0.0,0.0,0.0,0.0,0.0,0.0,0.0,0.0,0.0,0.0,0.0,0.0,0.0,0.0,0.0,0.0,0.0,0.0,0.0,0.0,0.0,0.0,0.0,0.0,0.0,0.0,0.0,0.0,0.0,0.0,0.0,0.0,0.0,0.0,0.0,0.0,0.0,0.0,0.0,0.0,0.0,0.0,0.0,0.0,0.0,0.0,0.0,0.0,0.0,0.0,0.0,0.0,0.0,0.0,0.0,0.0,0.0,0.0,0.0,0.0,0.0,0.0,0.0,0.0,0.0,0.0,0.0,0.0,0.0,0.0,0.0,0.0,0.0,0.0,0.0,0.0,0.0,0.0,0.0,0.0,0.0,0.0,0.0,0.0,0.0,0.0,0.0,0.0,0.0,0.0,0.0,0.0,0.0,0.0,0.0,0.0,0.0,0.0,0.0,0.0,0.0,0.0,0.0,0.0,0.0,0.0,0.0,0.0,0.0,0.0,0.0,0.0,0.0,0.0,0.0,0.0,0.0,0.0,0.0,0.0,0.0,0.0,0.0,0.0,0.0,0.0,0.0,0.0,0.0,0.0,0.0,0.0,0.0,0.0,0.0,0.0,0.0,0.0,0.0,0.0,0.0,0.0,0.0,0.0,0.0,0.0,0.0,0.0,0.0,0.0,0.0,0.0,0.0,0.0,0.0,0.0,0.0,0.0,0.0,0.0,0.0,0.0,0.0,0.0,0.0,0.0,0.0,0.0,0.0,0.0,0.0,0.0,0.0,0.0,0.0,0.0,0.0,0.0,0.0,0.0,0.0,0.0,0.0,0.0,0.0,0.0,0.0,0.0,0.0,0.0,0.0,0.0,0.0,0.0,0.0,0.0,0.0,0.0,0.0,0.0,0.0,0.0,0.0,0.0,0.0,0.0,0.0,0.0,0.0,0.0,0.0,0.0,0.0,0.0,0.0,0.0,0.0,0.0,0.0,0.0,0.0,0.0,0.0,0.0,0.0,0.0,0.0,0.0,0.0,0.0,0.0,0.0,0.0,0.0,0.0,0.0,0.0,0.0,0.0,0.0,0.0,0.0,0.0,0.0,0.0,0.0,0.0,0.0,0.0,0.0,0.0,0.0,0.0,0.0,0.0,0.0,0.0,0.0,0.0,0.0,0.0,0.0,0.0,0.0,0.0,0.0,0.0,0.0,0.0,0.0,0.0,0.0,0.0,0.0,0.0,0.0,0.0,0.0,0.0,0.0,0.0,0.0,0.0,0.0,0.0,0.0,0.0,0.0,0.0,0.0,0.0,0.0,0.0,0.0,0.0,0.0,0.0,0.0,0.0,0.0,0.0,0.0,0.0,0.0,0.0,0.0,0.0,0.0,0.0,0.0,0.0,0.0,0.0,0.0,0.0,0.0,0.0,0.0,0.0,0.0,0.0,0.0,0.0,0.0,0.0,0.0,0.0,0.0,0.0,0.0,0.0,0.0,0.0,0.0,0.0,0.0,0.0,0.0,0.0,0.0,0.0,0.0,0.0,0.0,0.0,0.0,0.0,0.0,0.0,0.0,0.0,0.0,0.0,0.0,0.0,0.0,0.0,0.0,0.0,0.0,0.0,0.0,0.0,0.0,0.0,0.0,0.0,0.0,0.0,0.0,0.0,0.0,0.0,0.0,0.0,0.0,0.0,0.0,0.0,0.0,0.0,0.0,0.0,0.0,0.0,0.0,0.0,0.0,0.0,0.0,0.0,0.0,0.0,0.0,0.0,0.0,0.0,0.0,0.0,0.0,0.0,0.0,0.0,0.0,0.0,0.0,0.0,0.0,0.0,0.0,0.0,0.0,0.0,0.0,0.0,0.0,0.0,0.0,0.0,0.0,0.0,0.0,0.0,0.0,0.0,0.0,0.0,0.0,0.0,0.0,0.0,0.0,0.0,0.0,0.0,0.0,0.0,0.0,0.0,0.0,0.0,0.0,0.0,0.0,0.0,0.0,0.0,0.0,0.0,0.0,0.0,0.0,0.0,0.0,0.0,0.0,0.0,0.0,0.0,0.0,0.0,0.0,0.0,0.0,0.0,0.0,0.0,0.0,0.0,0.0,0.0,0.0,0.0,0.0,0.0,0.0,0.0,0.0,0.0,0.0,0.0,0.0,0.0,0.0,0.0,0.0,0.0,0.0,0.0,0.0,0.0,0.0,0.0,0.0,0.0,0.0,0.0,0.0,0.0,0.0,0.0,0.0,0.0,0.0,0.0,0.0,0.0,0.0,0.0,0.0,0.0,0.0,0.0,0.0,0.0,0.0,0.0,0.0,0.0,0.0,0.0,0.0,0.0,0.0,0.0,0.0,0.0,0.0,0.0,0.0,0.0,0.0,0.0,0.0,0.0,0.0,0.0,0.0,0.0,0.0,0.0,0.0,0.0,0.0,0.0,0.0,0.0,0.0,0.0,0.0,0.0,0.0,0.0,0.0,0.0,0.0,0.0,0.0,0.0,0.0,0.0,0.0,0.0,0.0,5.7398,5.5552,0.0,0.0,0.0,0.0,0.0,0.0,0.0,0.0,0.0,0.0,0.0,0.0,0.0,0.0,0.0,0.0,0.0,0.0,0.0,0.0,0.0,0.0,0.0,4.3494,4.4294,4.479,4.5169,4.5397,4.5397,4.5742,4.5996,4.5996,4.6307,4.6686,4.71,4.7134,4.7479,4.8238,4.8238,4.8617,4.9341,4.9392,4.9219,4.8824,0.0,0.0,0.0,0.0,0.0,0.0,0.0,0.0,0.0,0.0,0.0,0.0,0.0,0.0,0.0,0.0,0.0,0.0,0.0,0.0,0.0,0.0,0.0,0.0,0.0,0.0,0.0,0.0,0.0,0.0,0.0,0.0,0.0,0.0,0.0,0.0,0.0,0.0,0.0,0.0,0.0,0.0,0.0,0.0,0.0,0.0,0.0,0.0,0.0,0.0,0.0,0.0,0.0,0.0,0.0,0.0,0.0,0.0,0.0,0.0,0.0,0.0,0.0,0.0,0.0,0.0,0.0,0.0,0.0,0.0,6.2316,5.9722,0.0,0.0,0.0,0.0,0.0,0.0,0.0,0.0,0.0,0.0,0.0,0.0,0.0,0.0,0.0,0.0,0.0,0.0,0.0,0.0,0.0,4.2355,4.3285,4.4044,4.4796,4.5535,4.5742,4.5811,4.5811,4.641,4.6789,4.6789,4.7376,4.7755,4.7893,4.8031,4.8479,4.9203,4.9617,5.0641,5.223,5.3172,5.3003,5.1862,5.115,0.0,0.0,0.0,0.0,0.0,0.0,0.0,0.0,0.0,0.0,0.0,0.0,0.0,0.0,0.0,0.0,0.0,0.0,0.0,0.0,0.0,0.0,0.0,0.0,0.0,0.0,0.0,0.0,0.0,0.0,0.0,0.0,0.0,0.0,0.0,0.0,0.0,0.0,0.0,0.0,0.0,0.0,0.0,0.0,0.0,0.0,0.0,0.0,0.0,0.0,0.0,0.0,0.0,0.0,0.0,0.0,0.0,0.0,0.0,0.0,0.0,0.0,0.0,6.8332,6.9363,7.1055,7.1038,7.1406,7.1815,6.8736,6.563,6.2694,6.2438,0.0,0.0,0.0,0.0,0.0,0.0,0.0,0.0,0.0,0.0,0.0,0.0,0.0,0.0,0.0,0.0,0.0,0.0,0.0,4.376,4.41,4.5283,4.6137,4.641,4.7031,4.741,4.741,4.7514,4.7548,4.7548,4.7651,4.7996,4.8651,4.9341,5.0065,5.0789,5.2789,5.4795,5.6768,5.7704,5.8638,5.939,5.5645,5.4416,5.5172,0.0,0.0,0.0,0.0,0.0,0.0,0.0,0.0,0.0,0.0,0.0,0.0,0.0,0.0,0.0,0.0,0.0,0.0,0.0,0.0,0.0,0.0,0.0,0.0,0.0,0.0,0.0,0.0,0.0,0.0,0.0,0.0,0.0,0.0,0.0,0.0,0.0,0.0,0.0,0.0,0.0,5.7115,5.6994,0.0,0.0,0.0,0.0,0.0,0.0,0.0,0.0,0.0,0.0,0.0,0.0,0.0,6.711,6.982,7.0723,7.2063,7.3817,7.4866,7.6301,7.7988,7.8042,7.8908,8.0292,7.9925,0.0,6.9073,6.909,0.0,0.0,0.0,0.0,0.0,0.0,0.0,0.0,0.0,0.0,0.0,0.0,0.0,0.0,0.0,0.0,0.0,0.0,0.0,0.0,0.0,4.6232,4.7286,4.7789,4.9306,4.9686,4.841,4.9927,5.0306,4.9031,4.9789,5.0375,5.072,5.0991,5.2309,5.4739,5.6683,5.8753,6.094,6.1442,6.223,6.3119,6.1588,5.9763,5.779,5.7208,0.0,0.0,0.0,0.0,0.0,0.0,0.0,0.0,0.0,0.0,0.0,0.0,0.0,0.0,0.0,0.0,0.0,0.0,0.0,0.0,0.0,0.0,0.0,0.0,0.0,0.0,0.0,0.0,0.0,0.0,0.0,0.0,0.0,0.0,0.0,0.0,0.0,0.0,0.0,5.6902,5.8512,5.8291,5.9015,5.9487,0.0,0.0,0.0,0.0,0.0,0.0,0.0,0.0,0.0,7.1655,7.2421,7.4149,7.6891,7.7884,7.9199,8.0876,8.1471,8.2635,8.4318,8.4919,8.5587,8.6277,8.6822,8.4857,8.0903,7.6079,7.2531,7.0034,0.0,0.0,0.0,0.0,6.905,7.0723,0.0,0.0,0.0,0.0,0.0,0.0,0.0,0.0,0.0,0.0,0.0,0.0,4.6176,4.8127,4.9593,5.0188,5.1996,5.2272,5.0375,5.1858,5.2046,5.0355,5.1134,5.172,5.1927,5.2965,5.5216,5.8728,6.0823,6.3018,6.5207,6.6006,6.6848,6.7728,6.8008,6.5434,6.0865,5.9937,5.8802,5.7547,0.0,0.0,0.0,0.0,0.0,0.0,0.0,0.0,0.0,0.0,0.0,0.0,0.0,0.0,0.0,0.0,0.0,0.0,0.0,0.0,0.0,0.0,0.0,0.0,0.0,0.0,0.0,0.0,0.0,0.0,0.0,0.0,0.0,0.0,0.0,0.0,0.0,5.9233,6.1046,6.0451,6.2011,6.3049,0.0,0.0,0.0,0.0,0.0,0.0,7.0773,7.2563,7.5109,7.8608,7.9406,8.1191,8.4108,8.4892,8.6154,8.7856,8.7954,8.8749,9.0243,9.1232,9.151,9.1318,9.22,9.2017,9.0526,8.2574,7.7721,7.5181,7.3927,7.345,7.3411,7.3231,7.4486,7.6448,0.0,0.0,0.0,0.0,0.0,0.0,0.0,0.0,0.0,0.0,0.0,4.7573,4.852,5.1775,5.3944,5.4187,5.4961,5.5065,5.4272,5.2341,5.1168,5.103,5.0444,5.0444,5.1134,5.5389,5.8966,6.1803,6.505,6.7741,6.9818,7.2239,7.4081,7.5305,7.4689,7.1026,6.5206,6.4234,6.2765,6.0932,5.8795,0.0,0.0,0.0,0.0,0.0,0.0,0.0,0.0,0.0,0.0,0.0,0.0,0.0,0.0,0.0,0.0,0.0,0.0,0.0,0.0,0.0,0.0,0.0,0.0,0.0,0.0,0.0,0.0,0.0,0.0,0.0,0.0,0.0,0.0,0.0,0.0,0.0,0.0,6.4085,6.7233,0.0,0.0,0.0,0.0,6.9455,7.2925,7.5701,7.735,7.9858,8.2474,8.5131,8.5933,8.7665,9.0426,9.1172,9.2436,9.4261,9.4223,9.4721,9.5642,9.6586,9.6558,9.5829,9.677,9.624,9.4269,8.8106,8.5049,8.4,8.1546,8.0592,8.0469,7.9662,7.9969,8.0777,0.0,0.0,0.0,0.0,0.0,4.4348,4.4249,4.4654,4.5129,4.5478,4.7148,4.9166,5.1513,5.4224,5.6481,5.8047,5.884,5.853,5.6805,5.5495,5.4322,5.3341,5.276,5.3664,5.6255,5.9684,6.3362,6.7276,6.9616,7.2386,7.5578,7.6502,7.7453,7.838,7.7619,7.573,7.2913,6.9439,6.6082,6.3073,6.2242,5.9697,0.0,0.0,0.0,0.0,0.0,0.0,0.0,0.0,0.0,0.0,0.0,0.0,0.0,0.0,0.0,0.0,0.0,0.0,0.0,0.0,0.0,0.0,0.0,0.0,0.0,0.0,0.0,0.0,0.0,0.0,0.0,0.0,0.0,0.0,0.0,0.0,0.0,7.0077,7.3553,0.0,7.3611,7.4334,7.5599,7.7284,8.0726,8.3705,8.5958,8.7974,9.0263,9.2873,9.3761,9.4961,9.6534,9.795,9.8947,9.9602,10.0202,10.0397,10.0205,10.1113,10.0817,9.95,10.0385,10.0087,9.8856,9.6183,9.2645,8.8748,8.6786,8.5978,8.5909,8.5016,8.5942,8.7578,0.0,0.0,0.0,0.0,0.0,4.5123,4.5144,4.5291,4.5715,4.6646,4.8587,5.1074,5.4218,5.7445,6.0029,6.1599,6.2151,6.1358,5.884,5.7384,5.5958,5.4433,5.5044,5.7126,6.0745,6.4311,6.8115,7.2123,7.4431,7.6872,7.9433,7.9984,8.0498,8.0975,8.0461,7.9764,7.872,7.5249,7.0954,6.6402,6.5044,6.2548,5.949,0.0,0.0,0.0,0.0,0.0,0.0,0.0,0.0,0.0,0.0,0.0,0.0,0.0,0.0,0.0,0.0,0.0,0.0,0.0,0.0,0.0,0.0,0.0,0.0,0.0,0.0,0.0,0.0,0.0,0.0,0.0,0.0,0.0,0.0,7.0705,7.4257,7.6006,7.9723,8.1736,8.069,8.1822,8.3304,8.4907,8.8005,9.0961,9.3485,9.4938,9.6773,9.9183,10.012,10.0787,10.151,10.2899,10.3579,10.3699,10.43,10.4303,10.3803,10.4682,10.4405,10.3087,10.3895,10.3712,10.2491,10.1788,9.8999,9.4951,9.2653,9.1579,9.1202,9.041,9.1222,9.2589,0.0,0.0,0.0,0.0,0.0,4.5103,4.5357,4.5432,4.5983,4.7548,5.0292,5.3322,5.6582,6.1525,6.4671,6.4822,6.4772,6.3462,6.0479,5.7797,5.5704,5.4294,5.7177,6.0511,6.4152,6.9201,7.3208,7.6135,7.9464,8.1158,8.1269,8.2847,8.3598,8.3598,8.3614,8.3153,8.2361,8.15,7.7497,7.1313,6.721,6.5472,6.4811,0.0,0.0,0.0,0.0,0.0,0.0,0.0,0.0,0.0,0.0,0.0,0.0,0.0,0.0,0.0,0.0,0.0,0.0,0.0,0.0,0.0,0.0,0.0,0.0,0.0,0.0,0.0,0.0,0.0,0.0,0.0,0.0,0.0,7.139,7.6741,8.0936,8.1862,8.5825,8.812,8.7269,8.8842,9.0546,9.2066,9.4582,9.7172,9.9699,10.0579,10.1915,10.3818,10.4605,10.5119,10.529,10.6004,10.6378,10.6587,10.6587,10.651,10.651,10.7405,10.729,10.6521,10.7405,10.681,10.5196,10.4696,10.4002,10.2794,9.9249,9.7324,9.651,9.5838,9.5602,9.548,0.0,0.0,0.0,4.4947,4.5144,4.5291,4.5243,4.584,4.6783,4.8166,5.1993,5.5983,5.9528,6.373,6.6768,6.7911,6.6516,6.4629,6.244,5.9071,5.7334,5.7647,6.1515,6.5627,6.9776,7.373,7.7574,8.1351,8.2851,8.4499,8.6241,8.7086,8.7784,8.8318,8.809,8.7516,8.6661,8.5299,8.2969,7.9689,7.3766,6.9302,6.5888,0.0,0.0,0.0,0.0,0.0,0.0,0.0,0.0,0.0,0.0,0.0,0.0,0.0,0.0,0.0,0.0,0.0,0.0,0.0,0.0,0.0,0.0,0.0,0.0,0.0,0.0,0.0,0.0,0.0,0.0,0.0,7.6178,7.837,7.7988,8.2053,8.6315,8.9754,9.3858,9.6395,9.626,9.7786,9.9204,10.0207,10.1609,10.3191,10.5108,10.5414,10.6095,10.7313,10.8086,10.8602,10.879,10.9605,11.0105,11.0088,11.0088,10.979,10.9213,10.9406,10.9112,10.8413,10.8605,10.8597,10.8285,10.8113,10.76,10.6596,10.2501,10.0697,10.0393,9.8993,9.8114,9.7576,0.0,0.0,0.0,4.4899,4.5316,4.5684,4.5671,4.6467,4.7665,4.9311,5.3351,5.7497,6.1141,6.5091,6.7906,6.9025,6.7345,6.5173,6.2771,6.0214,6.0052,6.2849,6.6474,7.0529,7.5128,7.8589,8.184,8.4922,8.6625,8.8179,8.9561,9.0444,9.0908,9.102,9.1183,9.061,8.9474,8.8891,8.7709,8.5722,8.0848,7.6185,7.1765,6.8624,6.6222,6.4341,6.2426,6.1618,6.1068,5.9013,0.0,0.0,0.0,0.0,0.0,0.0,0.0,0.0,0.0,0.0,0.0,0.0,0.0,0.0,0.0,0.0,0.0,0.0,0.0,0.0,0.0,0.0,0.0,0.0,8.2196,8.5843,8.7192,8.919,9.1966,9.5999,9.9261,10.1504,10.2402,10.3722,10.4605,10.5087,10.6309,10.7609,10.8914,10.9297,10.9891,11.0886,11.1385,11.1687,11.1791,11.2291,11.2511,11.2522,11.2603,11.2212,11.1288,11.1417,11.1006,11.0179,11.0179,11.0203,11.0089,11.0178,10.9786,10.8787,0.0,0.0,0.0,0.0,10.0907,10.02,0.0,0.0,0.0,4.4954,4.5624,4.6158,4.6275,4.7141,4.8497,5.0547,5.4349,5.822,6.1644,6.5566,6.8173,6.8814,6.7348,6.5214,6.2311,6.1645,6.3629,6.8704,7.1641,7.5339,8.0064,8.3331,8.5891,8.7632,9.0261,9.1656,9.1924,9.3273,9.3543,9.2855,9.3739,9.3192,9.168,9.2444,9.1784,8.995,8.7806,8.4268,7.9783,7.478,7.2802,7.2093,6.814,6.5726,6.418,6.2328,0.0,0.0,0.0,0.0,0.0,0.0,0.0,0.0,0.0,0.0,0.0,0.0,0.0,0.0,0.0,0.0,0.0,0.0,0.0,0.0,0.0,0.0,0.0,0.0,8.7748,9.2945,9.721,9.7363,9.8134,10.1,10.3014,10.4794,10.649,10.751,10.8097,10.8112,10.9507,11.0792,11.1599,11.229,0.0,0.0,0.0,11.4187,11.4198,11.4313,11.4286,11.422,11.4403,11.3983,11.3096,11.3197,11.2919,11.2117,11.2117,11.1805,11.1218,11.1383,11.0994,11.0107,10.8308,10.7202,10.6298,10.5013,10.3981,10.3413,0.0,0.0,0.0,4.4845,4.5541,4.613,4.6261,4.7505,4.9016,5.0601,5.4796,5.8528,6.0773,6.4545,6.7365,6.8557,6.6671,6.4817,6.3523,6.5154,6.7803,7.1421,7.5929,7.9989,8.3585,8.617,8.88,9.1512,9.2111,9.3231,9.4974,9.6298,9.6877,9.6764,9.8008,9.7633,9.6069,9.6258,9.4986,9.2793,9.2352,8.8412,8.2553,7.957,7.7651,7.6393,7.5532,7.4972,7.4163,7.0845,6.9753,6.9207,6.6092,6.4279,0.0,0.0,0.0,0.0,0.0,0.0,0.0,0.0,0.0,0.0,0.0,0.0,0.0,0.0,0.0,0.0,0.0,0.0,0.0,8.9005,9.3848,9.8309,10.2698,10.4905,10.5786,10.5108,10.7192,10.9211,11.0292,11.1209,11.2017,11.2698,11.3017,11.3297,11.3489,11.3604,11.3808,11.3984,11.4714,11.5116,11.5086,11.5779,11.5909,11.5298,11.5984,0.0,11.4094,11.4819,11.4701,11.4095,11.4095,11.3909,11.3485,11.3516,11.2705,11.1388,11.0316,10.9413,10.8599,10.8386,10.7697,10.7005,0.0,0.0,0.0,4.4692,4.5826,4.6795,4.7065,4.8508,5.0055,5.128,5.4595,5.7634,5.9617,6.2008,6.3979,6.5354,6.4424,6.428,6.5583,6.8382,7.2189,7.7028,8.0429,8.4024,8.7915,8.9575,9.1657,9.4263,9.5342,9.6606,9.8092,9.9425,9.9816,9.949,10.0609,10.0099,9.857,9.9038,9.8015,9.6044,9.5627,9.3184,8.9429,8.5504,8.2997,8.1419,8.0389,7.9437,7.8401,7.6166,7.5417,7.4993,7.2778,7.0524,6.8622,0.0,0.0,0.0,0.0,0.0,0.0,0.0,0.0,0.0,0.0,0.0,0.0,0.0,0.0,7.7231,8.1124,0.0,8.9857,9.5062,9.9796,10.3908,10.6905,10.9216,11.0001,10.8207,10.9891,11.1583,11.2703,11.3483,11.4214,11.4599,11.5407,11.5891,11.5995,11.6391,11.6605,11.6697,11.7093,11.7384,11.7398,11.7784,11.7892,11.7481,11.8014,11.7609,11.6296,11.6386,11.611,11.542,11.5113,11.4912,11.4793,11.4891,11.4388,11.368,11.329,11.1807,10.9894,10.9894,10.9581,10.9306,0.0,0.0,0.0,4.4615,4.6048,4.7344,4.7823,4.9367,5.0906,5.2021,5.4296,5.6458,5.8129,5.9335,6.0423,6.1472,6.269,6.4692,6.7762,7.1382,7.6203,8.2406,8.4499,8.7542,9.1808,9.2829,9.4462,9.6765,9.8486,9.9803,10.0699,10.1991,10.2184,10.1616,10.2411,10.1919,10.0592,10.1312,10.0592,9.9038,9.8318,9.756,9.627,9.1427,8.853,8.6807,8.4788,8.2843,8.1067,8.0341,7.9678,7.9028,7.8478,7.6466,7.4124,7.2741,7.2076,0.0,0.0,0.0,0.0,0.0,0.0,0.0,0.0,7.3543,7.4856,7.8058,8.0379,8.3209,8.7868,9.2455,9.672,10.0509,10.4895,10.8514,11.039,11.2286,11.2988,11.1709,11.2484,11.3494,11.4709,11.5413,11.5924,11.61,11.7282,11.8212,11.8309,11.8898,11.9403,11.9603,11.969,11.969,11.9904,12.0097,12.0109,12.0005,12.0516,12.0118,11.8904,11.8601,11.7885,11.7012,11.6196,11.5785,11.5687,11.5687,11.5713,11.5713,11.5713,11.3993,11.1494,11.1297,11.1297,11.118,0.0,0.0,0.0,0.0,0.0,4.7087,4.7796,4.9188,5.0676,5.2156,5.438,5.5808,5.5794,5.7701,5.8962,5.9002,6.3805,6.7625,6.9533,7.4095,7.9014,8.4095,8.7234,9.0361,9.355,9.5124,9.7156,9.9811,10.0007,10.0795,10.2114,10.3004,10.3411,10.3411,10.4207,10.4003,10.3221,10.3297,10.2387,10.0782,10.0706,10.0213,9.9063,9.6257,9.416,9.2468,9.0752,8.8089,8.5342,8.4921,8.2762,8.0367,8.0625,8.0204,7.8945,7.5329,7.3967,7.2744,6.8657,6.8569,6.993,7.1221,7.2215,7.3853,0.0,8.0278,8.2652,8.5284,8.8472,9.1586,9.4321,9.719,10.0596,10.4903,10.801,11.0805,11.3417,11.5308,11.6601,11.7093,11.5881,11.5702,11.7419,11.7611,11.8001,11.8905,11.9109,11.9186,11.9196,11.9312,11.9708,12.05,12.0588,12.1015,12.1801,12.2612,12.268,12.2287,12.38,12.3293,12.1318,12.1887,12.14,12.0016,11.8613,11.7487,11.6792,11.5981,11.5713,11.5713,11.5713,11.5517,11.5008,11.4188,11.3993,11.3915,0.0,0.0,0.0,0.0,0.0,4.723,4.8111,4.9611,5.1083,5.2312,5.3295,5.4209,5.506,5.6075,5.6888,5.7412,6.2296,6.6888,7.0488,7.6194,8.1636,8.6481,8.8886,9.1723,9.522,9.6714,9.885,10.1686,10.201,10.2696,10.379,10.4079,10.4321,10.4307,10.461,10.461,10.4321,10.4321,10.3586,10.2615,10.2615,10.1805,10.0289,9.7749,9.5475,9.3062,8.8956,8.6289,0.0,8.3349,8.2368,8.1937,8.3596,8.2321,7.9897,7.8377,7.6446,7.4581,7.3478,7.3498,7.4327,7.6462,7.8795,8.1397,8.4647,8.6564,8.8672,9.2228,9.4865,9.7534,10.0599,10.3301,10.5979,10.9118,11.1691,11.3918,11.558,11.6913,11.7782,11.8108,11.7501,11.7481,11.8692,11.9309,11.9908,12.0799,12.0914,12.1293,12.2397,12.1982,12.209,12.3087,12.3182,12.3406,12.3789,12.4296,12.448,12.4184,12.4917,12.4495,12.3102,12.3005,12.1912,11.9916,11.9288,11.8482,11.7701,11.7389,11.7196,11.7196,11.7196,11.7196,11.7001,11.571,11.5203,11.5008,0.0,0.0,0.0,0.0,0.0,0.0,0.0,0.0,5.1283,5.2317,5.2674,5.3396,5.4856,5.5166,5.5633,5.6504,6.0689,6.5357,7.0316,7.6313,8.2003,8.7325,8.9748,9.2754,9.6536,9.8199,10.0296,10.3101,10.3584,10.4193,10.4799,10.4799,10.4799,10.4799,10.4799,10.4799,10.4799,10.4799,10.4307,10.36,10.36,10.2487,10.0403,9.7674,9.4654,9.1318,8.6604,8.3805,8.2076,8.0374,8.0092,8.0866,8.3178,8.2124,7.9972,7.9438,7.7384,7.5421,7.6372,7.7535,7.9127,8.1871,8.5129,8.8436,9.1202,9.2805,9.4724,9.8283,10.0589,10.2784,10.5597,10.8093,11.0302,11.2214,11.452,11.6306,11.7184,11.7909,11.8112,11.7619,11.7397,11.7609,11.8391,11.9818,12.1208,12.232,12.232,12.3009,12.4682,12.4189,12.4302,12.5305,12.5492,12.5582,12.5893,12.6019,12.6116,12.6206,12.5894,12.5487,12.491,12.3999,12.2287,12.02,12.02,11.9614,11.8599,11.8912,11.8716,11.8287,11.8482,11.8482,11.8092,11.6884,11.6298,11.5906,0.0,0.0,0.0,0.0,0.0,0.0,0.0,0.0,0.0,5.2174,5.3086,5.4012,5.4893,5.5247,5.5725,5.6553,5.9699,6.3759,6.8628,7.356,7.914,8.56,8.9729,9.3619,9.7369,9.9615,10.1795,10.402,10.4506,10.4814,10.4799,10.4799,10.4799,10.4799,10.4799,10.4799,10.4799,10.4799,10.4307,10.36,10.36,10.2108,9.9493,9.612,9.1861,8.7467,8.5645,8.2391,7.8691,7.7072,7.6008,7.5627,7.7339,7.8997,7.9809,7.75,7.5736,7.4688,7.545,7.8718,8.2744,8.6091,8.9467,9.2901,9.6366,9.9113,10.1418,10.3088,10.5684,10.7807,10.8591,11.0399,11.2301,11.4104,11.5784,11.729,11.8195,11.8406,11.7787,11.6193,11.5187,11.511,11.5883,11.8884,12.1493,12.33,12.3493,12.3903,12.4988,12.512,12.5497,12.6607,12.658,12.7008,12.7781,12.7787,12.7886,12.8115,12.7292,12.7009,12.7105,12.5387,12.3709,12.1993,12.1993,12.1017,11.9497,12.0395,11.981,11.8404,11.9185,11.899,11.8287,11.8209,11.7701,11.6686,0.0,0.0,0.0,0.0,0.0,0.0,0.0,0.0,0.0,0.0,0.0,0.0,0.0,0.0,0.0,0.0,6.004,6.2989,6.6279,7.2532,7.7818,8.1652,8.6701,9.1067,9.4503,9.67,9.9148,10.1799,10.289,10.3676,10.4003,10.4586,10.4799,10.4799,10.4799,10.4799,10.4814,10.4193,10.4207,10.4207,10.1388,9.9758,9.8394,9.291,8.8063,8.3617,0.0,7.6094,7.3696,7.1994,7.2066,7.3231,7.5452,7.6231,7.5977,7.4107,7.5263,7.7384,7.8683,8.3065,8.8191,9.2103,9.5666,9.9154,10.2607,10.4513,10.6111,10.7788,10.7114,10.6516,10.7286,10.7997,10.9083,11.0919,11.4494,11.7403,11.829,11.8909,11.8213,11.5389,11.5312,11.5118,11.4306,11.6204,11.9221,12.3194,12.3113,12.4117,12.668,12.641,12.6602,12.7482,12.7601,12.7817,12.8085,12.8219,12.8318,12.8393,12.7495,12.6888,12.6407,12.5197,12.3711,12.211,12.211,12.141,12.0395,12.0707,12.0083,11.9107,11.9419,11.899,11.8287,11.8287,11.8092,11.7701,0.0,0.0,0.0,0.0,0.0,0.0,0.0,0.0,0.0,0.0,0.0,0.0,0.0,0.0,0.0,0.0,0.0,6.1374,6.3833,6.9155,7.3597,7.6644,8.1342,8.527,8.828,9.0446,9.2847,9.5443,9.7426,9.8952,10.0113,10.1199,10.1805,10.2108,10.2411,10.2411,10.2108,10.1616,10.1009,9.9999,9.65,9.4162,9.2278,8.6845,8.2211,0.0,7.4094,7.1455,6.9669,6.8556,6.9156,7.0797,7.268,7.3571,7.3881,7.3499,7.6878,8.1266,8.3803,8.8948,9.4525,9.8404,10.1616,10.4388,10.6921,10.8087,10.8801,10.9099,10.7198,10.5506,10.5404,10.4984,10.5498,10.8186,11.1714,11.4805,11.6882,11.7394,11.6613,11.4189,11.4088,11.3894,11.3118,11.4088,11.691,12.2312,12.2714,12.4092,12.7315,12.729,12.7495,12.8095,12.8184,12.8304,12.8304,12.8411,12.8203,12.7617,12.7305,12.6485,12.5119,12.4806,12.3906,12.2581,12.2581,12.2113,12.1293,12.1605,12.0981,12.0005,12.0005,11.9497,11.8716,11.8404,11.8482,11.8599,0.0,0.0,0.0,0.0,0.0,0.0,0.0,0.0,0.0,0.0,0.0,0.0,0.0,0.0,0.0,0.0,0.0,0.0,6.1276,6.3833,6.694,7.0756,7.4147,7.7047,7.9486,8.1642,8.3714,8.5731,8.8661,9.1112,9.31,9.4742,9.5917,9.6675,9.7509,9.7446,9.6637,9.6599,9.4793,9.1698,8.9216,8.5835,8.2022,7.8697,7.497,7.1422,7.0599,6.8846,6.6904,6.6902,6.7544,6.8575,6.9495,7.1542,7.3943,7.5795,8.0584,8.6124,9.0323,9.5863,10.1305,10.4687,10.6815,10.8308,10.9195,10.989,10.9697,10.7189,10.5794,10.458,10.2911,10.1416,10.1912,10.6207,10.7887,11.019,11.461,11.4515,11.3696,11.3,11.2204,11.2015,11.271,11.2793,11.5212,12.0917,12.2208,12.3981,12.6785,12.7816,12.8304,12.8513,12.8515,12.8515,12.8515,12.8515,12.7695,12.6095,12.6915,12.59,12.3596,12.4416,12.4182,12.3518,12.3401,12.2894,12.2191,12.3089,12.2386,12.0903,12.0785,12.0317,11.9419,11.8599,11.8795,11.9302,0.0,0.0,0.0,0.0,0.0,0.0,0.0,0.0,0.0,0.0,0.0,0.0,0.0,0.0,0.0,0.0,0.0,0.0,5.8877,6.2365,6.4861,6.5888,7.0734,7.4294,7.613,7.7861,7.983,8.1975,8.3546,8.4781,8.5638,8.7007,8.7711,8.795,8.8238,8.8262,8.8035,8.7364,8.6994,8.6521,8.276,8.1029,8.0293,7.6465,7.3222,7.07,7.0566,6.8985,6.7051,6.7575,6.9274,7.1586,7.4411,7.617,7.7877,8.1523,8.5981,9.0675,9.4856,9.9945,10.4683,10.7489,10.9012,11.0101,11.0977,10.9914,10.8387,10.7191,10.219,9.7952,9.7488,9.8236,10.0309,10.4589,11.0414,11.5412,11.8506,11.9284,11.8796,11.6719,11.6802,11.6608,11.5596,11.6207,11.8006,12.1398,12.1894,12.3485,12.679,12.7896,12.8413,12.8515,12.8515,12.8515,12.8515,12.8515,12.8281,12.7891,12.7383,12.6917,12.6212,12.5197,12.4609,12.4299,12.3713,12.3284,12.3089,12.3284,12.2815,12.1683,12.1098,12.0317,11.9419,11.8599,11.8795,11.9419,0.0,0.0,0.0,0.0,0.0,0.0,0.0,0.0,0.0,0.0,0.0,0.0,0.0,0.0,0.0,0.0,0.0,0.0,0.0,6.0137,6.1753,6.2438,6.5521,6.7931,6.9545,7.083,7.253,7.4664,7.6082,7.7578,7.91,8.0336,8.109,8.1419,8.1937,8.1944,8.1565,8.1116,8.0602,0.0,0.0,7.4876,7.44,7.1767,6.9949,6.8939,6.9726,6.9896,7.0011,7.1588,7.2892,7.4348,7.7423,7.9746,8.2208,8.6863,9.1288,9.5765,10.0804,10.4914,10.8218,11.0409,11.0793,11.0289,10.8913,10.7491,10.5305,10.1108,9.6822,9.3495,9.2373,9.4014,9.707,10.1696,10.841,11.4293,11.7712,11.9592,12.02,11.9214,11.9803,11.9998,11.8984,11.9513,12.0714,12.2902,12.2707,12.3796,12.6914,12.7981,12.8515,12.8515,12.8515,12.8515,12.8515,12.8515,12.8281,12.7891,12.7383,12.6995,12.6602,12.5314,12.4687,12.4687,12.3791,12.3401,12.3401,12.3401,12.3089,12.2581,12.1683,12.1098,12.0512,11.9692,11.9888,12.059,0.0,0.0,0.0,0.0,0.0,0.0,0.0,0.0,0.0,0.0,5.2258,5.3171,5.4054,5.5421,0.0,0.0,0.0,0.0,0.0,0.0,5.8621,6.0015,6.0309,6.1031,6.2462,6.3429,6.4757,6.6531,6.8182,7.0303,7.2834,7.3932,7.48,7.5539,7.6333,7.631,7.5697,7.5701,7.451,7.2453,7.0357,6.8693,6.7401,0.0,6.6636,6.7099,6.8671,7.0846,7.3413,7.6454,7.7323,7.7669,8.0431,8.3739,8.7517,9.242,9.6743,10.1101,10.669,10.9493,11.1291,11.2789,11.1808,10.9393,10.5285,10.3784,10.0999,9.3147,9.1097,9.0091,8.8073,9.0072,9.3836,9.9563,10.5397,11.0918,11.5907,11.8492,12.0317,12.1403,12.2191,12.262,12.262,12.262,12.3284,12.4882,12.4299,12.4885,12.7112,12.8008,12.8515,12.8515,12.8515,12.8515,12.8515,12.8515,12.8086,12.7385,12.7307,12.6915,12.629,12.5314,12.4882,12.4804,12.3987,12.3518,12.3401,12.3401,12.3401,12.3284,12.2386,12.211,12.1996,12.1098,12.141,12.211,0.0,0.0,0.0,0.0,0.0,0.0,0.0,0.0,0.0,0.0,5.1302,5.2498,0.0,0.0,0.0,0.0,0.0,0.0,0.0,0.0,0.0,5.84,5.9685,6.0517,6.0823,6.2279,6.3197,6.3529,6.4094,6.4749,6.5471,6.5935,6.6336,6.6611,6.6663,6.6734,6.6795,6.6558,6.6434,6.6385,6.5894,6.5676,6.5727,6.6213,6.6556,0.0,6.8783,7.0213,7.1953,7.6692,8.0554,8.4055,8.797,9.2018,9.6037,9.9824,10.3008,10.6108,10.9308,11.0991,11.2114,11.309,11.101,10.8001,10.51,10.0613,9.5816,9.1522,8.7847,8.572,8.6648,8.9633,9.4806,10.3715,10.8511,11.3882,12.2007,12.2915,12.3311,12.4882,12.5197,12.5314,12.5314,12.5314,12.5704,12.668,12.6602,12.6683,12.719,12.8008,12.8515,12.8515,12.8515,12.8515,12.8515,12.8515,12.8398,12.8281,12.75,12.75,12.8008,12.6485,12.5782,12.5704,12.4885,12.4104,12.3401,12.3401,12.3401,12.3284,12.2386,12.211,12.1996,12.1098,12.141,12.211,0.0,0.0,0.0,0.0,0.0,0.0,0.0,4.8809,4.929,4.9771,5.0878,5.1977,5.2762,5.3408,5.4221,0.0,0.0,0.0,0.0,0.0,0.0,5.8621,5.9343,6.015,6.1006,6.1777,6.2585,6.3466,0.0,6.3464,6.4,6.3493,6.352,6.4025,6.3597,6.3763,6.4344,6.4216,6.4346,6.4662,6.4734,6.4868,6.5103,6.599,6.6992,0.0,6.9075,7.0604,7.2606,7.6031,8.1516,8.7632,9.1864,9.5788,9.9702,10.4119,10.6613,10.8683,11.1787,11.2998,11.3494,11.3881,11.1095,10.6802,10.1115,9.6512,9.1677,8.514,8.3244,8.2857,8.3199,8.7274,9.2692,9.9127,10.4,10.9816,11.8115,12.011,12.2083,12.5587,12.6797,12.7305,12.7305,12.7305,12.75,12.7812,12.7891,12.7891,12.7891,12.8281,12.8515,12.8515,12.8515,12.8515,12.8515,12.8515,12.8515,12.8515,12.8086,12.7891,12.7812,12.6993,12.6095,12.5314,12.4882,12.4182,12.3401,12.3401,12.3401,12.3401,12.2894,12.2815,12.2698,12.2308,12.2386,12.2815,0.0,0.0,0.0,0.0,0.0,0.0,0.0,4.8839,4.9498,4.98,5.07,5.1466,5.1859,5.2723,5.3484,0.0,0.0,0.0,0.0,0.0,0.0,0.0,5.9123,5.9783,6.1043,0.0,0.0,6.3332,6.2818,0.0,0.0,0.0,0.0,0.0,6.2721,6.3014,6.3786,6.3919,6.4118,0.0,0.0,6.4642,6.4772,0.0,0.0,0.0,0.0,7.0807,7.3076,7.5233,8.0823,8.7589,9.2014,9.6863,10.1703,10.5399,10.7884,11.0216,11.3591,11.4601,11.4616,11.4616,11.1095,10.5603,9.7363,9.2953,8.8157,7.9492,7.9453,8.084,8.053,8.488,8.9898,9.4097,9.8562,10.4516,11.2985,11.6384,12.0016,12.5392,12.75,12.8515,12.8515,12.8515,12.8515,12.8515,12.8515,12.8515,12.8515,12.8515,12.8515,12.8515,12.8515,12.8515,12.8515,12.8515,12.8515,12.8515,12.8515,12.8086,12.75,12.7307,12.6407,12.4999,12.4804,12.4182,12.3401,12.3401,12.3401,12.3401,12.3401,12.3401,12.3401,12.3401,12.3401,12.3401,0.0,0.0,0.0,0.0,0.0,0.0,0.0,4.9541,5.0094,5.0314,5.0518,5.0896,5.1478,5.2347,5.3017,0.0,0.0,0.0,0.0,0.0,0.0,0.0,0.0,0.0,0.0,0.0,0.0,6.075,6.0688,0.0,0.0,0.0,0.0,0.0,0.0,6.2287,6.2673,6.3094,0.0,0.0,0.0,0.0,0.0,0.0,0.0,0.0,0.0,6.9942,7.1466,7.4773,7.8046,8.1585,8.6631,9.5298,10.3511,10.2478,10.6216,11.1089,11.3807,11.4607,11.4616,11.4616,11.0206,10.4086,9.7092,9.1135,8.5294,7.8989,7.8525,7.9685,8.111,8.3728,8.7854,9.459,9.6823,10.16,11.2585,11.581,11.9283,12.5312,12.75,12.8515,12.8515,12.8515,12.8515,12.8515,12.8515,12.8515,12.8515,12.8515,12.8515,12.8515,12.8515,12.8515,12.8515,12.8515,12.8515,12.8515,12.8515,12.8515,12.8398,12.7617,12.668,12.5782,12.4999,12.4182,12.3401,12.3401,12.3401,12.3401,12.3401,12.3401,12.3401,12.3401,12.3401,12.3401,0.0,0.0,0.0,0.0,0.0,0.0,4.8225,4.9028,4.9795,5.0422,5.0678,5.0905,5.1212,5.1625,5.201,5.2276,0.0,0.0,0.0,0.0,0.0,0.0,0.0,0.0,0.0,0.0,5.9893,6.0419,6.0419,0.0,0.0,0.0,0.0,0.0,0.0,6.1032,6.2171,6.1886,0.0,0.0,0.0,0.0,0.0,0.0,0.0,0.0,0.0,0.0,7.0155,7.166,7.4928,7.8402,7.8413,8.532,9.4549,10.0105,10.3799,10.7195,11.2393,11.4616,11.5312,11.4693,11.009,10.3815,9.6435,9.013,8.4289,7.8834,7.837,7.9337,8.0492,8.1961,8.4468,8.8872,8.9547,9.309,10.3383,10.652,11.1017,12.02,12.3284,12.5704,12.8203,12.8515,12.8515,12.8515,12.8515,12.8515,12.8515,12.8515,12.8515,12.8515,12.8515,12.8515,12.8515,12.8515,12.8515,12.8515,12.8515,12.8008,12.6993,12.711,12.6212,12.4416,12.4611,12.4182,12.3401,12.3401,12.3401,12.3401,12.3401,12.3401,12.3401,12.3401,12.3401,12.3401,0.0,0.0,0.0,0.0,0.0,4.7056,4.7785,4.8836,4.9819,5.053,5.075,5.0935,5.1085,5.101,5.0968,5.1184,5.2727,0.0,0.0,0.0,0.0,0.0,0.0,0.0,0.0,0.0,5.9123,5.9685,5.9685,5.9685,0.0,0.0,5.9465,6.0505,0.0,0.0,0.0,0.0,0.0,0.0,0.0,0.0,0.0,0.0,0.0,0.0,0.0,0.0,0.0,0.0,0.0,7.5168,7.3067,7.7344,8.4975,9.4443,9.9822,10.4013,11.0189,11.361,11.5312,11.4383,10.9587,10.3011,9.5584,8.924,8.3554,7.868,7.837,7.9272,8.0082,8.0978,8.2259,8.4438,8.5018,8.8196,9.6713,9.9991,10.5006,11.4413,11.7814,12.1098,12.5392,12.75,12.8515,12.8515,12.8515,12.8515,12.8515,12.8515,12.8515,12.8515,12.8515,12.8515,12.8515,12.8515,12.8515,12.8515,12.8515,12.7695,12.6407,12.668,12.5704,12.3791,12.4182,12.3987,12.3401,12.3401,12.3401,12.3401,12.3401,12.3401,12.3401,12.3401,12.3401,12.3401,0.0,0.0,0.0,0.0,0.0,0.0,4.7785,4.9326,5.0429,5.0598,5.0716,5.0886,5.1085,5.0459,5.0083,5.0186,5.1083,0.0,0.0,0.0,0.0,0.0,0.0,0.0,0.0,0.0,5.8033,5.8033,5.8033,5.8033,5.8033,5.8033,5.8033,5.807,0.0,0.0,0.0,0.0,0.0,0.0,0.0,0.0,6.4239,0.0,0.0,0.0,0.0,0.0,0.0,0.0,0.0,0.0,0.0,7.3706,7.674,8.4476,9.3959,10.2895,10.7189,11.1405,11.4383,11.3494,10.8194,10.1386,9.4571,8.8389,8.2896,7.8608,7.837,7.9302,8.024,8.1115,8.2,8.2956,8.5364,8.9192,9.528,9.9218,10.3419,10.8688,11.16,11.4891,11.9185,12.5002,12.8515,12.8515,12.8515,12.8515,12.8515,12.8515,12.8515,12.8515,12.8515,12.8515,12.8515,12.8515,12.8515,12.8515,12.8515,12.8008,12.719,12.6407,12.5509,12.4609,12.3791,12.3401,12.3401,12.3401,12.3401,12.3401,12.3401,12.3401,12.3401,12.3401,12.3401,12.3401,0.0,0.0,0.0,0.0,0.0,0.0,0.0,4.9175,4.9819,5.053,5.027,5.0317,5.1016,5.0444,5.0034,5.0206,5.1226,0.0,0.0,0.0,0.0,0.0,0.0,0.0,0.0,5.6785,5.7178,5.7178,5.774,5.7997,5.7997,5.7997,5.829,5.8792,5.851,5.8833,0.0,0.0,0.0,0.0,0.0,6.3753,6.4036,0.0,0.0,0.0,0.0,0.0,0.0,0.0,0.0,0.0,0.0,0.0,0.0,7.8564,8.5643,9.3263,9.7518,10.0883,10.3088,10.2199,9.864,9.4153,8.9659,8.5372,8.162,7.9105,7.8796,7.9457,8.1016,8.1503,8.2629,8.536,8.6553,8.8644,9.302,9.8699,10.4508,11.03,11.9012,12.4785,12.559,12.7383,12.8515,12.8515,12.8515,12.8515,12.8515,12.8515,12.8515,12.8515,12.8515,12.8515,12.8515,12.8515,12.8515,12.8515,12.7891,12.7188,12.6407,12.5509,12.4611,12.3791,12.3518,12.3401,12.3401,12.3401,12.3401,12.3401,12.3401,12.3401,12.3401,12.3401,12.3401,12.3401,0.0,0.0,0.0,0.0,0.0,0.0,0.0,4.8938,4.9445,5.012,4.9894,4.9939,5.0602,5.0287,5.004,5.012,5.0864,0.0,0.0,0.0,0.0,0.0,0.0,0.0,5.5144,5.5941,5.6492,5.6811,5.7299,5.7703,5.7997,5.7997,5.8253,5.8719,5.8217,5.8428,0.0,0.0,0.0,0.0,6.281,6.36,6.3706,0.0,0.0,0.0,0.0,0.0,0.0,0.0,0.0,0.0,0.0,0.0,0.0,0.0,7.9531,8.5256,9.0787,9.4423,9.659,9.6358,9.3495,8.9936,8.6803,8.347,8.0646,7.9299,7.8989,7.9546,8.1418,8.1755,8.2509,8.4834,8.6319,8.8311,9.1547,9.7989,10.4803,11.149,12.0585,12.6316,12.6097,12.75,12.8515,12.8515,12.8515,12.8515,12.8515,12.8515,12.8515,12.8515,12.8515,12.8515,12.8515,12.8515,12.8281,12.8008,12.75,12.6602,12.5509,12.4882,12.4182,12.3401,12.3401,12.3401,0.0,12.3401,12.3401,12.3401,12.3401,12.3401,12.3401,12.3401,12.3401,12.3401,0.0,0.0,0.0,0.0,0.0,0.0,0.0,4.8614,4.9256,4.9402,4.9585,4.9801,4.9982,5.0011,5.0011,5.0011,0.0,0.0,0.0,0.0,0.0,0.0,0.0,0.0,5.4326,5.5108,5.5915,5.6701,5.6774,5.7226,5.7997,5.7997,5.7997,5.7997,5.8008,5.8145,5.8537,0.0,0.0,0.0,6.2535,6.3355,0.0,0.0,0.0,0.0,0.0,0.0,0.0,0.0,0.0,0.0,0.0,0.0,0.0,0.0,0.0,0.0,0.0,9.0523,9.3231,9.4037,9.1297,8.7738,8.5294,8.2355,0.0,7.9144,7.9034,7.9658,8.1548,8.1863,8.1947,8.2404,8.5302,8.8372,9.0933,9.7728,10.5205,11.2817,11.8281,12.1709,12.2193,12.6095,12.8515,12.8515,12.8515,12.8515,12.8515,12.8515,12.8515,12.8515,12.8515,12.8515,12.8398,12.8398,12.8008,12.7112,12.7112,12.6212,12.4687,12.4609,12.4182,12.3401,12.3401,12.3401,12.3401,12.3401,12.3401,12.3401,12.3401,12.3401,12.3401,12.3401,12.3401,12.3401,0.0,0.0,0.0,0.0,0.0,0.0,0.0,0.0,0.0,0.0,4.9414,4.9967,4.9996,5.0011,5.0011,0.0,0.0,0.0,0.0,0.0,0.0,0.0,0.0,0.0,5.3471,5.4289,5.5071,5.5879,5.6492,5.7226,5.7997,5.7997,5.7997,5.8008,5.8099,5.8268,5.8571,5.9711,0.0,0.0,6.2098,6.2506,0.0,0.0,0.0,0.0,6.4879,6.5609,0.0,0.0,0.0,0.0,0.0,0.0,0.0,0.0,7.4695,7.6945,7.8099,0.0,8.162,8.1813,8.1162,8.0227,0.0,7.9376,7.9221,7.9028,7.9575,8.0616,8.2456,8.2332,8.2872,8.5643,8.7865,9.0001,9.1987,10.2707,11.2789,11.9181,12.4488,12.6707,12.4299,12.6797,12.8515,12.8515,12.8515,12.8515,12.8515,12.8515,12.8515,12.8515,12.8515,12.8203,12.75,12.75,12.711,12.629,12.5587,12.5119,12.4687,12.3987,12.3596,12.3401,12.3401,12.3401,12.3401,12.3401,12.3401,12.3401,12.3401,12.3401,12.3401,12.3401,12.3401,12.3401,0.0,0.0,0.0,0.0,0.0,0.0,0.0,0.0,0.0,0.0,0.0,4.9235,4.8962,4.9366,0.0,0.0,0.0,0.0,0.0,0.0,0.0,0.0,0.0,5.3214,5.3214,5.3618,5.4252,5.506,5.5868,5.6675,5.7446,5.7813,5.7997,5.8008,5.819,5.8171,5.8048,5.934,5.969,5.9563,6.1788,0.0,0.0,0.0,0.0,0.0,6.4855,6.575,0.0,6.8093,6.887,6.959,0.0,0.0,0.0,0.0,7.3574,7.4657,7.4579,7.5817,7.7216,7.7603,7.7983,7.8293,7.8293,7.895,7.9588,7.9647,8.0063,8.0868,8.231,8.2279,8.2793,8.5161,8.7694,9.1625,9.8138,10.6505,11.4588,12.1796,12.5504,12.7214,12.6488,12.7695,12.8515,12.8515,12.8515,12.8515,12.8515,12.8515,12.8515,12.8515,12.8515,12.8086,12.719,12.719,12.6602,12.5392,12.4882,12.4492,12.4104,12.3596,12.3401,12.3401,12.3401,12.3401,12.3401,12.3401,12.3401,12.3401,12.3401,12.3401,12.3401,12.3401,12.3401,12.3401,0.0,0.0,0.0,0.0,0.0,0.0,0.0,0.0,0.0,0.0,0.0,0.0,0.0,0.0,0.0,0.0,0.0,0.0,0.0,0.0,0.0,0.0,5.3006,5.3214,5.3214,5.3324,5.3775,5.4583,5.5401,5.6198,5.6994,5.7666,5.802,5.8065,5.8327,5.8073,5.7624,5.9091,5.9319,5.8904,6.1371,0.0,0.0,0.0,0.0,0.0,0.0,0.0,0.0,6.8262,6.9154,7.0136,7.1872,0.0,0.0,0.0,0.0,0.0,7.3844,7.5503,7.7119,7.7421,7.8156,7.8826,7.8826,7.9573,8.0278,8.0384,8.0542,8.0975,8.2018,8.2302,8.2785,8.3894,8.7557,9.4452,10.6387,11.0217,11.4707,12.2503,12.4493,12.6009,12.7702,12.8286,12.852,12.8515,12.8515,12.8515,12.8515,12.8515,12.8515,12.8515,12.8398,12.7891,12.6993,12.6995,12.6212,12.4492,12.4492,12.4104,12.3401,12.3401,12.3401,12.3401,12.3401,12.3401,12.3401,12.3401,12.3401,12.3401,12.3401,12.3401,12.3401,12.3401,12.3401,12.3401,0.0,0.0,0.0,0.0,0.0,0.0,0.0,0.0,0.0,0.0,0.0,0.0,0.0,0.0,0.0,0.0,0.0,0.0,0.0,0.0,0.0,5.275,5.3049,5.3214,5.3214,5.3885,5.462,5.5438,5.6235,5.7042,5.7813,5.7923,5.8111,5.8349,5.8443,5.8487,5.8518,5.8751,5.8799,5.8841,6.0309,0.0,0.0,0.0,0.0,0.0,0.0,0.0,0.0,6.8064,6.8762,6.928,7.0982,0.0,0.0,0.0,0.0,0.0,7.469,7.7354,7.9325,7.7163,7.7296,7.7987,7.7987,7.9262,8.0456,8.0475,8.1152,8.2014,8.2943,8.3783,8.4904,8.6556,9.2759,10.141,11.2702,11.5912,11.869,12.2908,12.6111,12.7316,12.5502,12.7296,12.8614,12.8515,12.8515,12.8515,12.8515,12.8515,12.8515,12.8515,12.7812,12.6993,12.6212,12.6212,12.5314,12.3596,12.3596,12.3518,12.3401,12.3401,12.3401,12.3401,12.3401,12.3401,12.3401,12.3401,12.3401,12.3401,12.3401,12.3401,12.3401,12.3401,12.3401,12.3401,0.0,0.0,0.0,0.0,0.0,0.0,0.0,0.0,0.0,0.0,0.0,0.0,0.0,0.0,0.0,0.0,0.0,0.0,0.0,0.0,5.2556,5.2883,5.3092,5.3214,5.3214,5.3995,5.4583,5.4961,5.6638,5.7409,5.7373,5.7882,5.7969,5.7728,5.8254,5.8323,5.8093,5.8502,5.876,5.8987,0.0,0.0,0.0,0.0,0.0,0.0,0.0,0.0,0.0,0.0,6.832,6.9004,7.0208,0.0,0.0,0.0,0.0,0.0,7.3535,7.5346,7.7132,7.7752,8.0023,8.1742,8.0329,8.1408,8.2684,8.2702,8.3094,8.3681,8.4652,8.6687,8.9885,9.4905,9.9919,10.579,11.3216,11.541,11.7991,12.2795,12.4787,12.6112,12.6691,12.79,12.86,12.8592,12.8592,12.8587,12.8614,12.8612,12.849,12.8515,12.7695,12.6797,12.6017,12.5509,12.4689,12.3401,12.3414,12.3382,12.3382,12.3393,12.3391,12.3382,12.3382,12.3414,12.3401,12.3401,12.3089,12.2698,12.3206,12.3089,12.2698,12.2698,12.3011,12.3284,0.0,0.0,0.0,0.0,0.0,0.0,0.0,0.0,0.0,0.0,0.0,0.0,0.0,0.0,0.0,0.0,0.0,0.0,0.0,5.2506,5.2772,5.3049,5.3135,5.3287,5.3471,5.4289,5.4876,5.5244,5.7079,5.7678,5.7161,5.791,5.798,5.7503,5.8048,5.8126,5.7878,5.8273,5.8656,5.909,0.0,0.0,0.0,0.0,0.0,0.0,0.0,0.0,0.0,0.0,0.0,0.0,0.0,0.0,0.0,7.1258,7.1297,7.1534,7.264,7.4043,7.5874,7.8591,8.1951,8.4341,8.3367,8.4353,8.5537,8.5788,8.5999,8.6253,8.6634,9.0001,9.5089,10.2182,10.6291,11.0088,11.4903,11.6314,11.8817,12.4013,12.4598,12.5691,12.8306,12.8618,12.8616,12.8614,12.8614,12.8609,12.8595,12.8595,12.851,12.8182,12.7395,12.6497,12.5681,12.4818,12.4108,12.3401,12.3386,12.3317,12.3084,12.31,12.2982,12.2816,12.2816,12.2807,12.2792,12.2792,12.2517,12.2198,12.2785,12.2703,12.211,12.211,12.2503,12.3011,0.0,0.0,0.0,0.0,0.0,0.0,0.0,0.0,0.0,0.0,0.0,0.0,0.0,0.0,0.0,0.0,0.0,0.0,0.0,5.2382,5.293,5.3156,5.3167,5.3544,5.4289,5.5108,5.6246,5.774,5.7923,5.8017,5.8094,5.829,5.8481,5.8662,5.7901,5.8057,5.8843,5.7962,5.8174,5.9112,5.9392,0.0,0.0,0.0,0.0,0.0,0.0,0.0,0.0,0.0,0.0,0.0,0.0,0.0,7.0252,7.1065,7.1297,7.1667,7.3431,7.635,7.9003,7.9391,8.0273,8.2078,8.5936,8.7582,8.8553,8.9333,9.015,9.0289,8.8789,9.3289,9.8963,10.4313,11.011,11.5905,12.1816,12.3389,12.4997,12.789,12.8203,12.828,12.8589,12.8588,12.8585,12.8614,12.8614,12.8613,12.8612,12.8612,12.8182,12.74,12.6487,12.5706,12.4782,12.3909,12.3501,12.3401,12.3386,12.3004,12.2184,12.22,12.1815,12.1112,12.1112,12.111,12.1109,12.1109,12.1493,12.2105,12.2183,12.221,12.211,12.211,12.211,12.2308,0.0,0.0,0.0,0.0,0.0,0.0,0.0,0.0,0.0,0.0,0.0,0.0,0.0,0.0,0.0,0.0,0.0,0.0,0.0,5.2368,5.2941,5.3203,5.3214,5.3812,5.5108,5.5438,5.6136,5.7262,5.7856,5.8391,5.8926,5.8741,5.8432,5.807,5.8471,5.854,5.8456,5.8568,5.8943,5.9488,5.9609,5.989,0.0,0.0,0.0,0.0,0.0,0.0,0.0,0.0,6.7402,6.8424,6.9048,6.9976,7.0871,7.1219,7.1297,7.1589,7.2865,7.5819,7.8974,8.068,8.2994,8.5728,8.8997,9.1238,9.2883,9.3771,9.5497,9.6828,9.6693,10.0298,10.4599,10.8686,11.4492,11.9783,12.3693,12.5386,12.6913,12.8398,12.8593,12.8593,12.8593,12.8593,12.8592,12.8591,12.8591,12.8394,12.7804,12.7803,12.741,12.6504,12.56,12.5015,12.4707,12.3811,12.3382,12.3416,12.2913,12.2485,12.2095,12.1596,12.1206,12.0889,12.0889,12.0885,12.0918,12.0918,12.0798,12.0482,12.0482,12.118,12.1993,12.0889,12.1197,12.2093,0.0,0.0,0.0,0.0,0.0,0.0,0.0,0.0,0.0,0.0,0.0,0.0,0.0,0.0,0.0,0.0,0.0,0.0,5.1164,5.1999,5.2681,5.3167,5.3214,5.3838,5.5181,5.5475,5.6235,5.7545,5.8232,5.881,5.9187,5.8931,5.8607,5.8249,5.8972,5.9027,5.8621,5.9129,5.9516,5.9736,5.9818,6.0076,0.0,0.0,0.0,0.0,0.0,0.0,0.0,0.0,6.6998,6.8037,6.8308,6.9357,7.0556,7.0833,7.1102,7.1556,7.2516,7.4775,7.7676,8.0953,8.4405,8.8232,9.306,9.5287,9.6883,9.8826,9.9995,10.0892,10.1785,10.4289,10.7414,11.0882,11.6493,12.1391,12.3893,12.5818,12.7187,12.8086,12.8398,12.8593,12.8593,12.8593,12.8515,12.8203,12.8203,12.7812,12.6912,12.6911,12.648,12.5616,12.4988,12.4403,12.39,12.3317,12.2889,12.2617,12.1797,12.1484,12.1794,12.0898,12.0312,12.0115,12.0115,12.0112,12.0107,12.0107,11.991,11.9595,11.9592,12.0294,12.119,12.001,12.0315,12.1285,0.0,0.0,0.0,0.0,0.0,0.0,0.0,0.0,0.0,0.0,0.0,0.0,0.0,0.0,0.0,0.0,0.0,0.0,5.0336,5.1271,5.2218,5.313,5.3177,5.3581,5.4363,5.5181,5.6796,5.9196,5.9299,5.9198,5.8777,5.8815,5.9064,5.9569,5.94,5.9418,5.9569,5.9536,5.9621,5.9826,5.9944,6.0167,6.0551,0.0,0.0,0.0,0.0,0.0,0.0,0.0,6.6224,6.6379,6.723,6.8114,6.8965,6.9788,7.0719,7.1711,7.266,7.3617,7.5435,7.9902,8.3612,8.864,9.8162,9.9639,10.021,10.4584,10.3413,10.1781,10.2696,10.4285,10.6583,11.0118,11.5718,12.0494,12.3119,12.4882,12.6289,12.7187,12.8008,12.8593,12.8593,12.8593,12.8203,12.7383,12.7304,12.6914,12.6015,12.6015,12.5586,12.4804,12.4685,12.3905,12.2183,12.2109,12.1716,12.0919,11.9981,12.0109,12.0898,11.9998,11.91,11.8281,11.8281,11.8281,11.8281,11.8281,11.8788,11.9604,11.9595,11.9591,11.9591,11.9591,11.9583,11.9687,0.0,0.0,0.0,0.0,0.0,0.0,0.0,0.0,0.0,0.0,0.0,0.0,0.0,0.0,0.0,0.0,0.0,0.0,4.9663,5.0472,5.1386,5.2307,5.2344,5.3004,5.4363,5.537,5.6509,5.778,5.791,5.8091,5.8241,5.8461,5.871,5.8941,5.9582,5.9562,5.9147,5.97,6.0341,6.0997,6.1058,6.1549,6.241,0.0,0.0,0.0,0.0,0.0,0.0,0.0,0.0,0.0,6.7423,6.8893,7.0479,7.0098,7.1115,7.2554,7.3546,7.583,7.8896,8.2737,8.7642,9.3195,9.9675,10.0489,10.1618,10.7705,10.7405,10.6282,10.721,10.8816,11.0385,11.211,11.689,12.1393,12.4017,12.5311,12.6093,12.6406,12.6601,12.6797,12.6797,12.6797,12.6718,12.6404,12.5898,12.5117,12.4216,12.3593,12.289,12.2109,12.1992,12.1795,12.1285,12.1198,12.1109,12.0787,11.9914,11.9693,11.999,11.9089,11.8508,11.8318,11.8318,11.8319,11.8281,11.8319,11.8785,11.9487,11.8903,11.9412,12.039,11.91,11.9093,11.9583,0.0,0.0,0.0,0.0,0.0,0.0,0.0,0.0,0.0,0.0,4.7428,4.745,0.0,0.0,0.0,0.0,0.0,0.0,4.9375,5.0204,5.1071,5.194,5.2307,5.3277,5.4943,5.5696,5.6375,5.7084,5.7123,5.7501,5.8264,5.8782,5.9271,5.9762,6.1384,6.1279,5.9985,6.15,6.1911,6.1566,6.1946,6.2533,6.3245,0.0,0.0,0.0,0.0,0.0,0.0,0.0,0.0,0.0,6.7384,6.8777,7.0263,7.0137,7.16,7.3505,7.4534,7.7381,8.1087,8.5291,9.0381,9.5853,10.1699,10.4506,10.72,11.1611,11.1192,11.0298,11.1184,11.159,11.2385,11.4306,11.7913,12.1203,12.3396,12.4804,12.5508,12.5508,12.5781,12.5898,12.5586,12.5508,12.5195,12.4488,12.3982,12.3396,12.2491,12.1909,12.1404,12.0898,12.0894,12.0694,12.0382,12.0285,12.0113,11.9791,11.9309,11.9005,11.9106,11.8486,11.8301,11.8312,11.8312,11.8316,11.8319,11.8314,11.8582,11.9005,11.8497,11.8891,11.9718,11.8707,11.8593,11.9097,0.0,0.0,0.0,0.0,0.0,0.0,0.0,0.0,0.0,0.0,4.754,4.7572,0.0,0.0,0.0,0.0,0.0,0.0,0.0,5.0301,5.1169,5.195,5.2879,5.4133,5.5886,5.6075,5.6435,5.6923,5.6827,5.7351,5.8537,5.9425,6.0469,6.1637,6.3967,6.37,6.1682,6.4084,6.378,6.1798,6.2748,6.3262,6.3521,6.4397,0.0,0.0,0.0,0.0,0.0,0.0,0.0,0.0,6.7268,6.8192,6.919,6.9957,7.2166,7.4548,7.5616,7.8503,8.2492,8.7855,9.2767,9.7987,10.4584,11.0518,11.4695,11.5203,11.4307,11.3683,11.45,11.3308,11.3287,11.6582,11.8507,12.0192,12.1797,12.3515,12.4492,12.4492,12.5195,12.5312,12.4492,12.4414,12.3788,12.2183,12.1987,12.1593,12.08,12.0684,12.069,12.0698,12.069,12.0293,11.951,11.9418,11.9011,11.8287,11.8209,11.8209,11.8289,11.8308,11.8286,11.83,11.8302,11.8308,11.8314,11.8305,11.83,11.8416,11.8298,11.8416,11.8495,11.8417,11.8386,11.8512,0.0,0.0,0.0,0.0,0.0,0.0,0.0,0.0,0.0,0.0,0.0,0.0,0.0,0.0,0.0,0.0,0.0,0.0,0.0,5.0352,5.1169,5.195,5.3512,5.4925,5.6112,5.6566,5.694,5.7199,5.7124,5.7404,5.8004,5.9504,6.1042,6.2604,6.3146,6.3107,6.2611,6.3199,6.3136,6.2794,6.365,6.4509,6.5276,6.5536,6.5708,0.0,0.0,0.0,0.0,0.0,0.0,0.0,6.7423,6.9009,7.0683,7.0178,7.2495,7.5584,7.7131,8.0212,8.4544,9.1079,9.9004,10.6302,11.0518,11.3487,11.4891,11.3017,11.45,11.6218,11.6413,11.6117,11.6412,11.7793,11.8897,11.9997,12.1015,12.2109,12.25,12.1797,12.25,12.2695,12.1797,12.1718,12.1597,12.1198,12.0493,12.0097,11.9887,11.9194,11.8889,11.8891,11.8918,11.8792,11.8597,11.7915,11.7784,11.8287,11.7584,11.7584,11.8289,11.8294,11.8306,11.8286,11.8307,11.8307,11.829,11.8298,11.8719,11.9198,11.8497,11.9092,12.0198,11.9612,11.9316,11.9409,0.0,0.0,0.0,0.0,0.0,0.0,0.0,0.0,0.0,0.0,0.0,0.0,0.0,0.0,0.0,0.0,0.0,0.0,0.0,0.0,5.1903,5.3088,5.4891,5.6169,5.6888,5.7375,5.7783,5.8084,5.8099,5.8431,5.9054,6.032,6.1862,6.3541,6.3923,6.3678,6.3019,6.3785,6.3683,6.3176,6.4434,6.5279,6.5795,6.5931,6.6019,6.6107,6.6165,0.0,0.0,0.0,0.0,0.0,0.0,0.0,7.0694,7.0699,7.2988,7.5895,7.767,8.1668,8.7505,9.65,10.3687,10.9386,11.2394,11.4112,11.4813,11.3915,11.5789,11.7584,11.7584,11.7603,11.7894,11.8809,11.9288,11.9919,12.0781,12.1289,12.1406,12.1015,12.1289,12.1211,12.039,12.0312,11.9918,11.9085,11.9005,11.8606,11.78,11.769,11.7503,11.7081,11.7105,11.7099,11.7108,11.6582,11.6608,11.7118,11.6999,11.7506,11.8287,11.8287,11.83,11.8319,11.829,11.8289,11.8319,11.8279,11.8503,11.8912,11.8482,11.9116,12.01,11.9709,11.9801,12.0286,0.0,0.0,0.0,0.0,0.0,0.0,0.0,0.0,0.0,0.0,0.0,0.0,0.0,0.0,0.0,0.0,0.0,0.0,0.0,0.0,0.0,5.4611,5.6166,5.7296,5.8016,5.838,5.88,5.9153,5.929,5.9932,6.1086,6.16,6.2739,6.4428,6.5108,6.4656,6.3504,6.4839,6.4592,6.3474,6.4994,6.5703,6.5864,6.5967,6.6052,6.6118,6.617,6.6185,6.634,6.723,0.0,0.0,0.0,0.0,7.0395,7.1228,7.3376,7.5949,7.7865,8.3679,9.1529,10.1381,10.6693,11.0089,11.2394,11.368,11.4617,11.5281,11.6882,11.8092,11.8287,11.8306,11.8519,11.9313,11.9404,11.9607,12.0312,12.0586,12.0586,12.0508,12.0586,12.0312,11.9297,11.9218,11.8512,11.6895,11.7399,11.7191,11.5793,11.6413,11.6383,11.5697,11.5682,11.5682,11.5699,11.5604,11.5596,11.5713,11.6413,11.7194,11.8092,11.7897,11.7985,11.8313,11.83,11.8302,11.8313,11.83,11.8291,11.8287,11.8287,11.8795,11.9497,11.9497,12.0005,12.0714,0.0,0.0,0.0,0.0,0.0,0.0,0.0,0.0,0.0,0.0,4.7689,4.8021,0.0,0.0,0.0,0.0,0.0,0.0,0.0,0.0,0.0,5.5618,5.6268,5.7417,5.9206,5.9636,5.9969,6.0196,6.0272,6.1506,6.3772,6.3081,6.3618,6.5222,6.5337,6.5306,6.5188,6.5336,6.4973,6.4398,6.5245,6.5763,6.5984,6.6001,6.608,6.6175,6.6185,6.6185,6.634,6.723,6.7998,0.0,0.0,0.0,7.1142,7.1285,7.3301,7.6047,7.8568,8.7598,9.7399,10.1891,10.6693,11.0596,11.1689,11.3212,11.4383,11.45,11.5984,11.7389,11.8209,11.8306,11.8319,11.8517,11.8501,11.8511,11.859,11.9296,11.9492,11.8711,11.9297,11.9101,11.7497,11.7296,11.6896,11.5904,11.6004,11.5914,11.5713,11.5791,11.5791,11.5717,11.5713,11.5713,11.5717,11.501,11.5008,11.5713,11.5791,11.6296,11.7116,11.6413,11.6884,11.8294,11.831,11.8308,11.8294,11.831,11.8306,11.8287,11.8287,11.8795,11.9497,11.9497,11.9614,11.989,0.0,0.0,0.0,0.0,0.0,0.0,0.0,0.0,0.0,0.0,0.0,4.8067,0.0,0.0,0.0,5.1198,0.0,0.0,0.0,0.0,0.0,5.5845,5.7136,5.8362,5.9542,5.9953,6.0239,6.0477,6.1004,6.2327,6.4322,6.4865,6.5494,6.6169,6.5627,6.5213,6.4824,6.4242,6.4207,6.4519,6.4839,6.5628,6.6519,6.6162,6.6378,6.6753,6.6358,6.6185,6.6417,6.7771,6.8462,6.9043,7.0324,0.0,0.0,0.0,7.3646,7.6653,8.2302,8.9543,9.6816,10.2203,10.6302,10.9581,11.1416,11.2783,11.3798,11.4305,11.5008,11.5984,11.7311,11.7593,11.7603,11.7614,11.8019,11.799,11.6981,11.7613,11.7811,11.6912,11.7187,11.7108,11.6405,11.6284,11.5887,11.4984,11.5402,11.5312,11.4284,11.4702,11.4695,11.4307,11.419,11.419,11.419,11.3917,11.411,11.5008,11.5008,11.5398,11.6296,11.5908,11.6689,11.8289,11.779,11.7788,11.8289,11.8298,11.8298,11.8287,11.8287,11.8795,11.9497,11.9497,11.981,12.04,0.0,0.0,0.0,0.0,0.0,0.0,0.0,0.0,0.0,0.0,0.0,0.0,0.0,0.0,0.0,0.0,5.2999,0.0,0.0,0.0,0.0,5.6354,5.7919,5.9071,5.9726,6.0113,6.0384,6.048,6.1454,6.2962,6.5008,6.6535,6.7571,6.808,6.6934,6.6145,6.5573,6.4408,6.4524,6.5468,6.523,6.591,6.7013,6.6582,6.6952,6.7559,6.6809,6.6695,6.7116,6.8594,6.9087,6.9396,7.1098,7.2065,0.0,0.0,0.0,7.7237,8.4111,8.9329,9.4314,10.0608,10.4784,10.7981,11.029,11.1811,11.3019,11.3602,11.3915,11.45,11.6101,11.6491,11.6693,11.6707,11.7183,11.7191,11.5914,11.6318,11.6402,11.5816,11.5703,11.5584,11.5507,11.5388,11.4995,11.4095,11.4714,11.4509,11.3209,11.3699,11.3806,11.3103,11.3099,11.3097,11.3097,11.3097,11.3409,11.411,11.411,11.45,11.5398,11.5088,11.5986,11.7584,11.7194,11.7506,11.8287,11.8287,11.8287,11.8287,11.8287,11.8716,11.9185,11.9185,11.9614,12.0282,0.0,0.0,0.0,0.0,0.0,0.0,0.0,0.0,0.0,0.0,0.0,4.9653,5.1289,5.1636,5.2119,5.3057,5.3875,5.4656,5.5438,5.5718,0.0,5.7564,5.8136,0.0,6.0135,6.0453,6.0539,6.048,6.1499,6.3642,6.6772,6.7756,6.9512,7.1739,6.9978,6.9137,6.8947,6.7374,6.7257,6.8109,6.7242,6.7026,6.728,6.7332,6.7913,6.8626,6.7827,6.8078,6.8883,6.967,6.9943,7.0252,7.1988,7.2568,7.2761,0.0,0.0,0.0,8.1382,8.6196,9.1179,9.5663,10.1201,10.5994,10.7808,11.0103,11.1885,11.1885,11.2587,11.3409,11.4383,11.5203,11.5791,11.5791,11.5809,11.5782,11.5704,11.5688,11.5816,11.5698,11.5702,11.539,11.4606,11.4488,11.4095,11.3187,11.3186,11.3185,11.3106,11.3092,11.3084,11.3084,11.3107,11.3097,11.3097,11.3097,11.3097,11.3214,11.3214,11.3602,11.4383,11.3605,11.419,11.5908,11.6686,11.7506,11.8287,11.8287,11.8287,11.8287,11.8287,11.8287,11.8404,11.8404,11.8404,11.8604,0.0,0.0,0.0,0.0,0.0,0.0,0.0,0.0,0.0,0.0,0.0,0.0,0.0,5.1773,5.2449,5.4012,5.5063,5.5737,5.6033,5.6658,0.0,5.7976,5.8845,5.9611,6.0314,6.0533,6.0642,6.0623,6.2125,6.3713,6.5421,6.7985,6.9952,7.1255,7.0522,6.9656,6.852,6.6811,6.6376,6.6864,6.715,6.796,6.9135,6.988,7.0673,7.1327,7.0522,7.0009,6.9964,7.1319,7.1353,7.1142,7.2877,7.3806,7.4414,7.5415,7.6557,7.8213,8.1343,8.436,8.7819,9.2683,9.761,10.1907,10.4088,10.7489,11.0183,11.021,11.1299,11.2392,11.2704,11.3915,11.4891,11.4891,11.529,11.5294,11.42,11.4496,11.4707,11.4089,11.3982,11.3906,11.371,11.3083,11.2691,11.2419,11.2299,11.2296,11.2296,11.2795,11.31,11.31,11.3086,11.3109,11.3097,11.3097,11.3097,11.3097,11.3097,11.3292,11.3605,11.3214,11.3683,11.4891,11.5203,11.5789,11.6611,11.6611,11.6999,11.7506,11.7506,11.7819,11.8287,11.8287,11.8287,11.8406,0.0,0.0,0.0,0.0,0.0,0.0,0.0,0.0,5.0587,5.0689,0.0,0.0,0.0,0.0,5.3844,5.5569,5.637,5.6907,5.7275,5.7931,5.8576,5.9198,6.002,6.0713,6.1312,6.2087,6.2137,6.1536,6.3597,6.4827,6.5416,6.8019,6.9833,7.0822,7.0503,7.0213,6.9836,6.8109,6.7474,6.7754,6.8421,6.9348,7.0505,7.1633,7.2581,7.3196,7.2719,7.2327,7.2266,7.3671,7.3691,7.3349,7.4504,7.5235,7.5777,7.6531,7.7143,7.8068,8.029,8.2169,8.4804,9.0301,9.3825,9.7106,10.1394,10.4599,10.6983,10.8219,10.9816,11.1104,11.1689,11.2704,11.3605,11.3886,11.439,11.439,11.331,11.3595,11.3802,11.319,11.2888,11.2695,11.2812,11.1991,11.1483,11.1484,11.1718,11.1912,11.1912,11.2688,11.3111,11.3108,11.3099,11.3086,11.3107,11.3107,11.3103,11.3097,11.3097,11.3097,11.3097,11.3097,11.3409,11.3993,11.3993,11.4617,11.5713,11.5713,11.6218,11.6999,11.6999,11.7506,11.8287,11.8287,11.8287,11.8404,0.0,0.0,0.0,0.0,0.0,0.0,0.0,0.0,5.1573,5.162,0.0,0.0,0.0,0.0,0.0,5.764,5.7753,5.8222,5.9257,5.9525,6.0159,6.1256,6.16,6.2207,6.3182,6.4904,6.4943,6.3188,6.5756,6.698,6.6952,6.7903,6.9237,7.0783,7.0052,7.0969,7.2993,7.1497,7.0894,7.0979,7.1186,7.1258,7.1371,7.2526,7.3452,7.4209,7.4332,7.5005,7.592,7.6688,7.6882,7.6816,7.6819,7.6766,7.67,7.6793,7.6819,7.7007,0.0,0.0,0.0,8.8205,8.9805,9.1865,9.9456,10.1204,10.2283,10.5797,10.7903,10.9699,11.1416,11.1689,11.2008,11.2887,11.2992,11.3111,11.2986,11.2989,11.2993,11.308,11.2382,11.1914,11.1914,11.1093,11.0586,11.0586,11.1289,11.1797,11.1797,11.2615,11.3117,11.3108,11.299,11.2985,11.3008,11.3008,11.2999,11.298,11.298,11.3019,11.3097,11.3097,11.3097,11.3097,11.3097,11.4112,11.5596,11.5596,11.6218,11.6999,11.6999,11.7506,11.8287,11.8287,11.8287,11.8287,0.0,0.0,0.0,0.0,0.0,5.3451,5.3288,5.3285,5.356,0.0,0.0,0.0,5.5338,5.664,5.7669,5.811,5.8912,5.95,5.9793,6.0531,6.1172,6.1576,6.2306,6.2893,6.3251,6.3769,6.3769,6.3289,6.4622,6.5269,6.5289,6.6776,6.8052,6.9122,6.9513,7.0097,7.0688,6.9618,6.956,7.0334,7.167,7.3052,7.4464,7.6028,7.7251,7.8207,7.8891,7.8844,7.8562,7.9424,7.8828,7.7637,7.6953,7.6695,7.67,7.6793,7.6837,7.6923,7.7256,0.0,0.0,0.0,0.0,0.0,9.0697,9.4215,9.7692,10.0487,10.3491,10.6302,10.8605,11.0011,11.0993,11.1208,11.1782,11.1889,11.1315,11.1198,11.121,11.1314,11.1083,11.1011,11.1015,11.0195,10.9687,10.9687,10.9883,11.0,11.0,11.0781,11.16,11.218,11.1594,11.1317,11.1305,11.1304,11.1299,11.1283,11.1283,11.1588,11.2197,11.2197,11.2509,11.3097,11.3097,11.3409,11.38,11.38,11.4698,11.6101,11.6101,11.6999,11.8287,11.8287,11.8287,11.8287,0.0,0.0,0.0,5.3135,5.3872,5.4439,5.4472,5.4619,5.4924,0.0,0.0,0.0,5.7675,5.8952,5.98,6.0072,6.0409,6.0829,6.1306,6.1583,6.207,6.288,6.3418,6.4091,6.4852,6.5237,6.5237,6.4897,6.5743,6.582,6.5166,6.6134,6.6859,6.7398,6.7898,6.836,6.8725,6.8576,6.9087,7.0141,7.3116,7.4954,7.621,7.8793,8.0382,8.1304,8.2226,8.2425,8.2395,8.3241,8.1877,7.9606,7.8347,7.7446,7.6812,0.0,0.0,0.0,0.0,0.0,7.8954,8.1235,0.0,0.0,8.7809,9.0543,9.3475,9.7178,10.0106,10.2915,10.5797,10.7518,10.8502,10.8896,10.9707,11.029,11.0502,11.0497,11.0585,11.0613,11.0302,11.0112,11.0117,10.9297,10.8789,10.8789,10.9101,10.9492,10.9804,11.0312,11.0781,11.1287,11.0897,11.0582,11.0614,11.061,11.0601,11.0587,11.0618,11.0804,11.1299,11.1299,11.1689,11.2589,11.2589,11.2785,11.3097,11.3097,11.3917,11.5203,11.5596,11.6491,11.7819,11.8209,11.8287,11.8289,0.0,0.0,5.4042,5.4054,5.4765,5.5356,5.5402,5.5647,5.5902,0.0,5.7165,5.8632,6.052,6.1478,6.2182,6.2588,6.2056,6.2108,6.313,6.2727,6.3104,6.4666,6.4936,6.5705,6.7212,6.8007,6.7975,6.7096,6.7898,6.7436,6.5904,6.5904,6.591,6.5923,6.591,6.6416,6.7283,6.823,6.9264,7.0606,7.5055,7.698,7.7645,8.1179,8.3013,8.3864,8.4819,8.566,8.6492,8.7155,8.5196,8.2181,8.0396,7.8733,7.7402,0.0,7.7205,0.0,0.0,0.0,0.0,0.0,8.2801,0.0,8.7738,8.8629,8.9755,9.4413,9.6878,9.9216,10.2714,10.4092,10.4917,10.5681,10.681,10.819,10.9898,11.0204,11.0088,10.9993,10.9292,10.8903,10.8906,10.8203,10.7695,10.7695,10.8398,10.9297,11.0117,11.0195,11.0195,11.0195,11.0195,11.0195,11.0191,11.0186,11.0215,11.0317,11.03,11.0288,11.0399,11.0399,11.0909,11.1807,11.1807,11.2314,11.3097,11.3097,11.3602,11.45,11.5398,11.6218,11.7116,11.8014,11.8287,11.8291,0.0,5.4757,5.4994,5.5097,5.5789,5.6427,5.668,5.6777,5.7149,5.8087,5.9288,6.062,6.1945,6.2439,6.2696,6.289,6.2877,6.2976,6.3182,6.443,6.5269,6.5628,6.6936,6.7814,6.8122,6.8314,6.7975,6.7096,6.7289,6.6859,6.5904,6.5904,6.5915,6.5967,6.5909,6.6509,6.759,6.8418,7.0137,7.2612,7.616,7.9384,8.2266,8.432,8.5712,8.6706,8.7592,8.8035,8.8091,8.7572,8.6005,8.3855,8.1423,8.041,7.9862,7.846,0.0,0.0,0.0,0.0,0.0,0.0,0.0,0.0,8.2062,8.4247,8.7097,8.8816,9.1082,9.4049,9.8184,9.9669,10.0294,10.0485,10.2984,10.5486,10.7212,10.7483,10.7215,10.6495,10.6311,10.6202,10.6208,10.6013,10.5897,10.6015,10.6093,10.6601,10.7383,10.75,10.75,10.75,10.75,10.75,10.75,10.7499,10.7808,10.8496,10.8492,10.8908,10.9503,10.9503,11.0401,11.1807,11.1807,11.2314,11.3097,11.3097,11.3602,11.45,11.5398,11.6218,11.7116,11.8014,11.8287,11.8291,5.4999,5.5516,5.5912,5.5981,5.7152,5.8142,5.8319,5.8932,5.9712,6.0756,6.2447,6.3812,6.4438,6.468,6.4823,6.4932,6.4658,6.4699,6.5116,6.6,6.6712,6.7128,6.793,6.8584,6.9045,6.8622,6.8199,6.7744,6.7744,6.7321,6.6519,6.7012,6.7263,6.7338,6.7349,6.7687,6.8353,6.9183,7.1392,7.4575,7.7955,8.0958,8.373,8.6731,8.8484,8.941,8.9831,9.0536,9.0971,8.9254,8.8117,8.6942,8.4335,8.3206,8.25,0.0,8.0618,8.082,0.0,0.0,0.0,8.2059,0.0,0.0,0.0,8.3588,8.5185,8.648,8.8123,9.0269,9.3304,9.456,9.5577,9.6857,9.9236,10.15,10.3296,10.5014,10.5685,10.4884,10.4386,10.4317,10.4717,10.4795,10.4916,10.5389,10.5507,10.5703,10.6093,10.6093,10.6093,10.6093,10.6093,10.6289,10.6719,10.6718,10.7105,10.7991,10.7986,10.8205,10.8684,10.8684,10.9308,11.0596,11.0596,11.1299,11.2509,11.2509,11.3017,11.3915,11.5205,11.5984,11.6491,11.778,11.8287,11.8294,5.5696,5.6349,5.6891,5.6937,5.8422,5.9616,5.9726,6.0818,6.2077,6.3239,6.5186,6.6632,6.7034,6.7422,6.7847,6.8443,6.7512,6.7324,6.8339,6.8081,6.8134,6.8629,6.8848,6.9284,6.9977,6.9323,6.886,6.8706,6.8706,6.8244,6.7448,6.8262,6.8696,6.8776,6.8983,6.9263,6.9617,7.0628,7.3178,7.6757,8.0195,8.2411,8.4161,8.8587,9.0703,9.1354,9.186,9.2914,9.37,9.1288,9.0585,9.0272,8.7478,8.6347,0.0,0.0,0.0,0.0,0.0,0.0,0.0,0.0,0.0,8.3585,0.0,0.0,0.0,8.4925,8.5944,8.7191,8.8933,8.9802,9.1016,9.3267,9.5332,9.7206,9.8612,10.1305,10.3185,10.3396,10.2582,10.2392,10.3301,10.3383,10.3818,10.48,10.4804,10.4804,10.5,10.5195,10.5195,10.5,10.5195,10.5586,10.6211,10.6405,10.6909,10.7799,10.7907,10.8011,10.7993,10.7993,10.85,10.9281,10.9281,11.0296,11.1819,11.1819,11.2285,11.3296,11.501,11.5713,11.5908,11.7708,11.8294,11.83,5.7517,5.7672,5.7907,5.8072,5.8936,5.9747,6.0237,6.1156,6.2513,6.4588,6.59,6.7339,6.9043,7.006,7.1595,7.4052,7.218,7.1456,7.2943,7.1702,7.0539,6.9678,7.05,7.1021,7.1137,7.1021,7.0595,6.9828,6.9828,6.9364,6.8518,6.8702,6.8848,6.901,6.9737,7.0622,7.1653,7.3217,7.5957,7.9525,8.297,8.4503,8.5213,8.95,9.1214,9.1602,9.3854,9.4796,9.4651,9.2842,9.2778,9.2869,8.9452,8.939,9.0068,8.7579,0.0,0.0,0.0,0.0,0.0,0.0,8.6392,0.0,0.0,0.0,8.4089,8.1984,0.0,8.4483,8.6236,0.0,0.0,8.8108,9.0999,9.3148,9.3343,9.4395,9.6503,10.0294,9.9956,9.9772,10.0593,10.069,10.1401,10.3082,10.2499,10.2383,10.3203,10.3906,10.3984,10.3203,10.3906,10.4414,10.4492,10.5312,10.6015,10.6909,10.7612,10.7998,10.7987,10.7987,10.8494,10.9316,10.9316,11.0291,11.1892,11.1892,11.2392,11.3315,11.5016,11.5713,11.591,11.7685,11.8315,11.8319,5.8218,5.813,5.839,5.9122,6.0141,6.1127,6.1853,6.43,6.6421,6.7399,6.9299,7.0822,7.1643,7.2198,7.2981,7.4271,7.3845,7.3636,7.3892,7.3262,7.243,7.1528,7.1385,7.1324,7.1348,7.1317,7.0896,7.0046,7.0578,7.0404,6.959,7.0166,7.0736,7.1355,7.2279,7.3237,7.4263,7.5954,7.8155,8.071,8.3642,8.5407,8.6821,9.1105,9.3047,9.3701,9.5295,9.6164,9.6333,9.4598,9.4921,9.5677,9.3204,0.0,0.0,9.0123,0.0,0.0,0.0,0.0,0.0,0.0,0.0,0.0,8.3349,0.0,8.3034,0.0,0.0,0.0,0.0,0.0,0.0,0.0,8.7525,8.9125,9.014,9.0609,9.2248,9.6074,9.491,9.449,9.6333,9.8347,9.9644,9.9878,10.0507,10.1015,10.1406,10.2187,10.2812,10.289,10.3281,10.3711,10.4219,10.5117,10.5897,10.6709,10.7611,10.7998,10.7981,10.7988,10.8499,10.9319,10.8804,10.9782,11.1897,11.1381,11.1886,11.3293,11.4994,11.5684,11.591,11.7687,11.8319,11.8281,5.933,5.9197,5.9414,6.0278,6.1446,6.2598,6.3592,6.6442,6.8671,6.9314,7.1496,7.3243,7.4014,7.4873,7.5859,7.7006,7.7476,7.7378,7.6618,7.5852,7.4878,7.3549,7.2376,7.1906,7.2237,7.1671,7.1114,7.0538,7.1202,7.1344,7.0996,7.1457,7.2315,7.3441,7.441,7.5613,7.6994,7.8997,8.1111,8.3297,8.564,8.7913,9.0187,9.3072,9.4976,9.6254,9.7125,9.7834,9.8107,9.6102,9.6762,9.8013,9.5783,9.4769,9.4108,0.0,0.0,0.0,8.8505,0.0,0.0,0.0,0.0,0.0,0.0,0.0,0.0,0.0,0.0,0.0,0.0,0.0,0.0,0.0,0.0,8.6549,8.7798,8.7407,8.8383,9.2287,9.1546,9.1595,9.3917,9.6432,9.7768,9.7419,9.832,9.9101,9.957,10.039,10.1406,10.25,10.2812,10.3203,10.3789,10.4687,10.5585,10.6397,10.7182,10.7804,10.7989,10.8188,10.87,10.9287,10.889,10.9906,11.1901,11.1189,11.1812,11.3297,11.5013,11.5699,11.591,11.7692,11.8289,11.8295,6.1446,6.1462,6.1392,6.1674,6.2635,6.3807,6.5138,6.6193,6.7536,6.9337,7.1101,7.3137,7.5832,7.8556,8.1593,8.5101,8.4835,8.4042,8.3074,8.0741,7.8221,7.5524,7.3837,7.338,7.4274,7.2569,7.1669,7.163,7.1748,7.2195,7.2977,7.2256,7.2803,7.4507,7.537,7.7189,7.974,8.2329,8.5378,8.8619,9.0377,9.312,9.6015,9.5312,9.6601,9.8904,9.9759,10.0113,9.9726,9.7224,9.8073,9.9613,9.6198,9.6791,9.8284,0.0,0.0,0.0,0.0,0.0,0.0,8.9477,0.0,0.0,0.0,0.0,8.4478,0.0,0.0,0.0,0.0,0.0,0.0,0.0,0.0,0.0,0.0,8.405,8.4401,8.9517,9.1469,9.3122,9.4906,9.5142,9.5578,9.6484,9.582,9.6054,9.7695,9.8594,9.9883,10.1601,10.25,10.289,10.289,10.3789,10.4687,10.5508,10.6404,10.7185,10.8007,10.8904,10.9295,10.9297,11.0195,11.1015,11.1909,11.1909,11.2289,11.3284,11.4989,11.5681,11.5912,11.7706,11.8308,11.8316,6.3342,6.3752,6.3743,6.316,6.3483,6.4381,6.6172,6.821,7.1009,7.5208,7.7254,8.0002,8.4456,8.5793,8.6892,8.8275,8.7635,8.6834,8.6077,8.3066,8.1177,8.0802,7.7437,7.6034,7.6946,7.5234,7.3818,7.2703,7.3298,7.3427,7.317,7.3499,7.4258,7.5409,7.6875,7.8642,8.0795,8.4515,8.7132,8.8962,9.1825,9.4333,9.6445,9.667,9.7646,9.894,9.9244,10.0112,10.0781,9.9412,9.9909,10.0901,9.9087,9.8344,9.8074,9.7755,9.6665,9.5653,9.6232,9.6364,9.5556,9.2099,9.0588,0.0,0.0,0.0,0.0,0.0,0.0,0.0,0.0,0.0,0.0,0.0,0.0,0.0,0.0,8.1864,8.1669,8.4558,8.6872,8.8486,8.9087,9.1241,9.2028,9.0664,9.1289,9.25,9.4219,9.5703,9.7773,10.0586,10.1601,10.2304,10.289,10.3789,10.4296,10.4686,10.6015,10.6913,10.7186,10.8593,10.9609,11.0195,11.0507,11.1405,11.2694,11.2106,11.2417,11.3316,11.4409,11.5186,11.5882,11.7685,11.831,11.8309,6.4973,6.5291,6.5184,6.4791,6.4932,6.5638,6.726,7.0568,7.4209,7.7932,8.1333,8.4821,8.855,8.9827,9.0461,9.0579,9.0713,8.9804,8.7546,8.5853,8.464,8.399,8.0936,7.9527,8.0124,7.8141,7.6258,7.4601,7.4833,7.4839,7.4579,7.4547,7.514,7.6322,7.7776,7.9699,8.2207,8.6158,8.8896,9.0775,9.3865,9.5771,9.6898,9.7665,9.8333,9.8989,9.9894,10.0888,10.1819,10.089,10.1406,10.2298,10.1107,10.0203,9.9497,9.9476,9.826,9.7128,9.7948,9.816,9.7468,9.4598,9.3244,9.1691,8.7959,0.0,8.8852,0.0,0.0,0.0,0.0,0.0,0.0,0.0,0.0,0.0,0.0,8.0224,8.0224,8.1669,8.4104,8.5875,8.6509,8.8585,8.9098,8.7187,8.7734,8.9062,9.1093,9.3164,9.5703,9.8867,10.0703,10.1914,10.2383,10.3281,10.3906,10.4217,10.5584,10.6404,10.6795,10.8513,10.9608,11.0195,11.078,11.1717,11.2694,11.2497,11.2692,11.32,11.4097,11.4682,11.5382,11.7218,11.7997,11.831,6.633,6.6192,6.5915,6.6644,6.7005,6.7472,6.8385,7.3094,7.6887,7.7949,8.3398,8.7634,8.8641,9.1155,9.275,9.2662,9.4276,9.3224,8.8304,8.9306,8.8687,8.5516,8.4384,8.3838,8.3881,8.1265,7.9098,7.7362,7.6456,7.6374,7.7119,7.5456,7.5618,7.7257,7.8196,8.0478,8.3817,8.7293,9.0741,9.4054,9.6442,9.7382,9.7468,9.8346,9.8712,9.9131,10.1708,10.2581,10.2599,10.1804,10.2601,10.3699,10.2109,10.2184,10.2494,10.0897,10.0487,10.0212,9.939,9.9197,9.8768,9.705,9.5918,9.4553,9.2053,0.0,9.3927,0.0,0.0,0.0,0.0,0.0,0.0,0.0,0.0,0.0,0.0,0.0,7.9951,8.0968,8.3129,8.5211,0.0,8.7214,8.6905,8.6013,8.5232,8.5896,8.8435,9.1015,9.3633,9.6367,9.9726,10.1484,10.1601,10.25,10.3281,10.4219,10.4993,10.5891,10.6797,10.8508,10.9291,10.9414,11.1093,11.1913,11.1988,11.2808,11.3195,11.3188,11.4017,11.4406,11.4593,11.6388,11.7606,11.8316,6.8173,6.8656,6.8695,6.8873,6.9452,6.9993,7.0199,7.4827,7.9752,8.3969,8.881,9.3488,9.7663,9.8766,9.9197,9.9195,9.8453,9.7439,9.6111,9.3999,9.2986,9.3386,9.0093,8.8544,8.9213,8.6085,8.3272,8.0891,7.942,7.8461,7.8073,7.7609,7.796,7.9092,8.0615,8.2149,8.3883,8.7944,9.16,9.4739,9.5395,9.5621,9.5804,9.7827,9.8649,9.8981,10.1615,10.301,10.3599,10.3412,10.3616,10.389,10.3507,10.3085,10.2808,10.3116,10.2705,10.2086,10.1891,10.1785,10.1401,9.9708,9.8154,9.6522,9.4555,9.4942,9.5721,0.0,0.0,0.0,0.0,0.0,0.0,0.0,0.0,0.0,0.0,0.0,0.0,8.1647,8.1386,8.1705,8.3424,8.4796,8.4645,8.25,8.2734,8.4101,8.6718,8.8672,9.1484,9.539,9.8203,10.0312,10.1601,10.25,10.3281,10.4219,10.5116,10.5897,10.6795,10.8514,10.9295,10.9412,11.1093,11.1914,11.1992,11.2812,11.3202,11.3202,11.3398,11.3904,11.4602,11.639,11.7609,11.828,6.9145,7.019,7.0667,7.0283,7.2842,7.4725,7.396,7.7061,8.1294,8.6327,9.1499,9.5754,9.8441,10.0391,10.1401,10.1089,10.0102,9.9078,9.7946,9.6386,9.5616,9.5832,9.3468,9.2226,9.234,8.9333,8.6484,8.3906,8.1436,7.9776,7.8975,7.8586,7.8664,7.9209,8.1356,8.2771,8.3918,8.8975,9.2616,9.5079,9.618,9.6567,0.0,9.889,9.9925,10.0485,10.2404,10.3212,10.339,10.3797,10.4199,10.4604,10.4986,10.4788,10.4609,10.4998,10.4587,10.3882,10.3882,10.3889,10.37,10.2791,10.151,10.0187,9.9279,9.8807,9.8729,9.9119,9.8697,9.7687,9.5842,0.0,0.0,0.0,0.0,0.0,0.0,0.0,0.0,0.0,8.1979,8.2337,8.1788,8.3315,8.3396,8.1171,8.2851,8.4296,8.5038,8.8086,9.0976,9.3437,9.7422,10.0,10.1015,10.2695,10.3711,10.4219,10.5115,10.5895,10.6714,10.8119,10.8704,10.8781,11.0581,11.1287,11.1405,11.2694,11.3202,11.3202,11.3117,11.3582,11.448,11.551,11.6582,11.7811,6.9654,7.1206,7.2136,7.1374,7.6124,7.9714,7.8801,8.0604,8.3479,8.7413,9.3164,9.6641,9.5992,9.9355,10.1385,10.0681,10.0603,9.9666,9.7399,9.7831,9.7503,9.6011,9.5701,9.5232,9.4451,9.169,8.8971,8.6444,8.2812,8.0614,7.9678,7.8819,7.8508,7.8859,8.1239,8.2927,8.4271,8.9804,9.3108,9.4871,9.7464,9.8502,9.872,10.0384,10.149,10.2306,10.3216,10.3218,10.2786,10.349,10.4395,10.5305,10.6107,10.6419,10.6506,10.6601,10.6,10.5418,10.5289,10.5289,10.5408,10.5287,10.4702,10.4313,10.4313,10.2986,10.2088,10.2789,10.0995,9.8965,9.7753,0.0,0.0,0.0,0.0,0.0,0.0,0.0,0.0,0.0,0.0,0.0,8.1951,8.2966,8.3045,8.1287,8.4099,8.531,8.4021,8.8398,9.1133,9.1445,9.6992,10.0195,10.0586,10.3008,10.4414,10.4687,10.5305,10.6005,10.6909,10.7712,10.802,10.8106,10.971,11.0496,11.0698,11.2416,11.3117,11.3191,11.3083,11.351,11.419,11.4303,11.5383,11.6902,7.0398,7.2084,7.322,7.3135,7.6463,8.0286,8.3744,8.825,9.1525,9.2269,9.7151,10.0517,10.0407,10.1696,10.2515,10.2398,10.2398,10.2203,10.1696,10.111,10.0706,10.0386,9.8983,9.814,9.7923,9.4023,9.0729,8.8148,8.4023,8.12,7.9678,7.8819,7.9172,8.0616,8.1786,8.355,8.5874,8.8978,9.1238,9.3059,9.6135,9.7754,9.8539,10.0186,10.0897,10.1207,10.2119,10.2917,10.3611,10.3698,10.4395,10.5212,10.5391,10.5513,10.571,10.6388,10.6014,10.519,10.4486,10.491,10.5192,10.4512,10.4819,10.5209,10.5209,10.4389,10.3689,10.3804,10.2411,10.0191,9.7208,9.1467,0.0,0.0,0.0,0.0,0.0,0.0,0.0,0.0,0.0,8.5154,0.0,8.4922,8.3945,8.2187,8.3281,8.4531,8.5664,8.789,9.0156,9.2304,9.6133,9.9531,10.2383,10.3594,10.5312,10.7304,10.6716,10.6906,10.7799,10.7912,10.7983,10.8094,10.908,10.9906,11.0689,11.1705,11.2506,11.3012,11.3011,11.312,11.3318,11.4101,11.4913,11.5809,7.2091,7.3335,7.4848,7.6698,8.0432,8.4498,8.852,9.3663,9.6401,9.4578,9.7312,9.9439,9.9508,10.15,10.2789,10.2789,10.2789,10.2789,10.2789,10.2008,10.1497,10.1405,10.0187,9.933,9.8822,9.5465,9.2242,8.9274,8.5423,8.2224,7.9678,7.9287,7.9522,8.0381,8.2185,8.4358,8.6875,8.9824,9.2015,9.3826,9.7587,9.9301,9.972,10.1013,10.1503,10.1503,10.1891,10.2493,10.2995,10.35,10.3888,10.4406,10.4902,10.5087,10.5198,10.5699,10.5607,10.539,10.5381,10.5791,10.6083,10.6085,10.6085,10.6083,10.6083,10.5115,10.4103,10.4095,10.3083,10.1212,9.7729,9.2542,8.8373,0.0,0.0,0.0,0.0,0.0,0.0,0.0,0.0,0.0,0.0,0.0,8.5234,8.4375,8.5508,8.6445,8.6836,8.8906,9.0625,9.1875,9.6133,9.9414,10.1484,10.3789,10.5507,10.6717,10.6713,10.7212,10.7982,10.8013,10.8003,10.7996,10.8903,10.981,11.0714,11.1897,11.2603,11.291,11.2812,11.2813,11.2801,11.321,11.4216,11.5416,7.5163,7.6159,7.7954,8.1085,8.544,8.9409,9.2198,9.7155,9.9532,9.6585,9.7634,9.8675,9.8764,10.1188,10.2789,10.2789,10.2789,10.2789,10.2789,10.2203,10.17,10.1707,10.0884,9.9983,9.9101,9.6522,9.3446,0.0,8.6657,8.332,7.9966,7.9765,7.9887,8.0291,8.2564,8.4883,8.7387,9.0785,9.3244,9.5204,9.928,10.0981,10.1106,10.1811,10.2082,10.2082,10.2082,10.2117,10.2209,10.2908,10.3296,10.3588,10.4416,10.4795,10.4992,10.5091,10.5289,10.5697,10.621,10.6711,10.7111,10.7589,10.7317,10.6886,10.6688,10.5487,10.4282,10.4117,10.3297,10.1501,9.8299,9.4792,9.1985,0.0,0.0,0.0,0.0,0.0,0.0,0.0,0.0,0.0,8.4765,8.5664,8.6601,8.6992,8.8047,8.8359,8.7539,9.0429,9.1953,9.1601,9.6406,9.9609,10.0781,10.3789,10.5507,10.6013,10.6512,10.7204,10.8014,10.8188,10.8215,10.802,10.8918,10.9818,11.0714,11.219,11.2793,11.2788,11.2611,11.2508,11.2588,11.2691,11.3791,11.5307,8.0611,8.2296,8.4033,8.5957,9.0011,9.3137,9.3524,9.8051,10.1092,9.9941,10.1301,10.2314,10.2281,10.2593,10.2789,10.2789,10.2789,10.2789,10.2789,10.2711,10.2598,10.2604,10.1704,10.0881,9.9994,9.7418,9.4036,0.0,0.0,8.4135,8.0778,8.0021,8.0463,8.1904,8.2959,8.4759,8.7211,9.053,9.3361,9.5899,9.9296,10.1084,10.1796,10.1912,10.1912,10.1912,10.1912,10.1881,10.1889,10.2005,10.2705,10.3504,10.3588,10.4182,10.4789,10.4988,10.5584,10.6203,10.5598,10.6599,10.7694,10.6988,10.7416,10.7688,10.6898,10.6006,10.5112,10.4291,10.281,10.0781,9.8164,9.6718,9.5156,9.2734,0.0,0.0,0.0,0.0,0.0,0.0,0.0,0.0,0.0,8.7265,8.8008,8.9531,8.9062,8.8359,8.7539,9.2148,9.4101,9.2539,9.6719,10.0195,10.2617,10.3789,10.5508,10.7695,10.6984,10.7209,10.7989,10.8818,10.8684,10.802,10.8918,10.97,11.039,11.2011,11.2516,11.2408,11.2505,11.2502,11.2414,11.3399,11.4284,11.5104,8.4606,8.5858,8.7655,9.0446,9.2903,9.5217,9.7349,9.9865,10.1393,10.1112,10.2086,10.2789,10.2789,10.2789,10.2789,10.2789,10.2789,10.2789,10.2789,10.2789,10.2794,10.2682,10.2406,10.1506,10.0111,9.8548,9.5622,0.0,0.0,8.5807,8.2383,8.1085,8.1327,8.2978,8.4771,8.689,8.9384,9.2752,9.5341,9.739,10.0194,10.1587,10.1889,10.1889,10.1889,10.1889,10.1889,10.1889,10.1889,10.1889,10.2213,10.2522,10.2602,10.281,10.3186,10.3389,10.3684,10.421,10.5098,10.5888,10.6601,10.7304,10.7304,10.6992,10.6093,10.5195,10.4412,10.3515,10.2812,10.1795,10.031,9.8902,9.7611,9.6595,0.0,0.0,0.0,0.0,0.0,0.0,0.0,0.0,0.0,8.5468,8.6288,8.9023,8.7461,8.7187,8.8906,9.0976,9.2226,9.2578,9.625,9.9219,10.1289,10.3789,10.5507,10.64,10.7097,10.771,10.8003,10.8887,10.9386,10.9499,10.9804,11.0301,11.1101,11.1989,11.2401,11.2313,11.2302,11.2305,11.2305,11.3188,11.4088,11.4807,8.9131,9.0252,9.2072,9.5039,9.6353,9.7823,10.0308,10.1393,10.201,10.2205,10.2789,10.3101,10.2789,10.2789,10.2789,10.2789,10.2789,10.2789,10.2789,10.2789,10.2794,10.2682,10.2718,10.2012,10.05,9.9639,9.7277,9.3413,9.0874,8.7993,8.4818,8.3432,8.3651,8.5273,8.7488,8.9817,9.2214,9.5144,9.7333,9.9034,10.1121,10.1919,10.1897,10.1896,10.2113,10.2199,10.2005,10.2082,10.2199,10.2005,10.1889,10.1905,10.1997,10.2019,10.2008,10.2295,10.259,10.3106,10.4583,10.5204,10.5699,10.6905,10.6787,10.6084,10.5188,10.4518,10.3888,10.2996,10.28,10.2486,10.1392,10.0214,9.9311,9.9041,0.0,0.0,0.0,0.0,0.0,0.0,0.0,0.0,8.6871,8.5779,8.6327,8.9257,8.7304,8.7187,8.9844,9.0976,9.1874,9.2578,9.6171,9.8788,10.0311,10.3514,10.5191,10.5412,10.7206,10.8092,10.8418,10.931,11.0089,11.0902,11.0702,11.0905,11.1507,11.2013,11.2219,11.2196,11.2091,11.2093,11.2209,11.33,11.4113,11.4809,9.468,9.6412,9.8141,9.99,10.0915,10.1385,10.1502,10.2203,10.3101,10.4001,10.4118,10.3804,10.2906,10.2789,10.2789,10.2789,10.2789,10.2789,10.2789,10.2789,10.2794,10.2682,10.2718,10.2285,10.1397,10.0497,9.8763,9.607,0.0,9.0817,8.8212,8.7417,8.7864,8.9406,9.115,9.3252,9.5552,9.7332,9.9034,10.0721,10.1678,10.1987,10.1881,10.1995,10.2483,10.3088,10.2199,10.2508,10.3088,10.2199,10.1889,10.1889,10.1897,10.1897,10.1881,10.2099,10.2889,10.3602,10.3888,10.4687,10.5396,10.5395,10.5395,10.5204,10.4318,10.4116,10.3911,10.3011,10.2803,10.2281,10.0604,10.0292,9.9985,9.9143,0.0,0.0,0.0,0.0,0.0,0.0,0.0,0.0,9.1324,8.9648,8.9374,9.1129,8.9648,8.9062,8.9961,9.328,9.4371,9.2652,9.6747,9.9399,10.0297,10.2797,10.4516,10.5414,10.7197,10.8516,10.9297,11.0097,11.0987,11.1798,11.139,11.1293,11.13,11.1887,11.2101,11.2101,11.2093,11.2093,11.2286,11.3997,11.4616,11.4809,9.8409,9.9547,10.0682,10.1813,10.2711,10.3493,10.4116,10.4389,10.4702,10.4897,10.4506,10.4001,10.3687,10.3687,10.3413,10.2906,10.2789,10.2789,10.2789,10.2783,10.281,10.2681,10.2691,10.2312,10.1397,10.0508,9.9034,9.6996,9.4423,9.1824,8.9322,9.0128,9.1101,9.2276,9.449,9.6566,9.8492,9.952,10.0618,10.1711,10.2016,10.2113,10.2098,10.2708,10.3115,10.3311,10.2918,10.3011,10.3112,10.2314,10.2014,10.2118,10.2213,10.2086,10.21,10.2312,10.2585,10.3103,10.3917,10.4307,10.4791,10.6001,10.5416,10.4598,10.4913,10.409,10.311,10.2915,10.2793,10.2593,10.2086,10.2008,10.1502,10.0102,9.963,0.0,0.0,0.0,0.0,0.0,8.9575,8.8956,8.8652,8.8148,8.9013,9.1988,8.9451,8.8436,8.9922,9.2186,9.3707,9.4332,9.7371,9.9984,10.2094,10.4007,10.541,10.6299,10.8089,10.9604,11.0997,11.0716,11.1191,11.2492,11.1695,11.161,11.2006,11.2088,11.2093,11.2093,11.2093,11.2093,11.2286,11.3997,11.4616,11.4809,10.0603,10.1383,10.2281,10.3101,10.3687,10.4389,10.5287,10.5404,10.5482,10.5795,10.5092,10.4584,10.4584,10.4311,10.3687,10.2906,10.2789,10.2793,10.28,10.2789,10.2811,10.2714,10.2684,10.24,10.189,10.0994,10.0005,9.8917,9.631,9.4225,9.2699,9.3652,9.4559,9.5501,9.7662,9.9259,10.0281,10.1107,10.1717,10.2189,10.2295,10.2284,10.23,10.2799,10.3184,10.34,10.3212,10.3189,10.3209,10.2688,10.2395,10.2206,10.2386,10.2313,10.2303,10.24,10.2484,10.2683,10.3394,10.3882,10.4313,10.5014,10.4702,10.4194,10.4819,10.4116,10.3296,10.3296,10.3296,10.3101,10.2398,10.2281,10.2008,10.0915,10.0212,9.8924,9.6425,0.0,0.0,0.0,0.0,8.9255,9.0202,9.0285,9.1191,9.3387,9.1515,9.0658,9.1404,9.1869,9.3037,9.5104,9.7672,10.0204,10.2783,10.4501,10.602,10.7219,10.9288,11.0999,11.2314,11.1689,11.1997,11.2906,11.2099,11.2003,11.2299,11.221,11.2093,11.2093,11.2093,11.2093,11.2286,11.3997,11.4616,11.4809,10.1502,10.2281,10.3218,10.4118,10.4319,10.4594,10.5414,10.5496,10.5812,10.671,10.6005,10.5418,10.5412,10.4592,10.3692,10.2906,10.2789,10.2796,10.2815,10.2818,10.2807,10.2706,10.27,10.2683,10.268,10.1794,10.1414,10.1303,9.8784,9.7577,9.7577,9.7652,9.8062,9.8889,10.0593,10.1291,10.1291,10.2095,10.2397,10.2406,10.2499,10.2515,10.2397,10.2513,10.2917,10.3387,10.3319,10.3293,10.3393,10.329,10.2917,10.2397,10.2406,10.2503,10.2588,10.2582,10.2585,10.2611,10.2811,10.3413,10.3882,10.3218,10.3608,10.4313,10.4196,10.4196,10.4196,10.4118,10.4118,10.361,10.1893,10.1619,10.1619,10.1385,10.0095,9.861,9.7597,9.4591,9.2489,9.2504,9.1842,9.235,9.4771,9.5054,9.5095,9.5084,9.5056,9.471,9.4007,9.2483,9.279,9.5277,9.7838,10.0405,10.2984,10.4584,10.6302,10.8213,11.0596,11.2314,11.3097,11.309,11.3006,11.2894,11.2707,11.249,11.2316,11.2202,11.2093,11.2093,11.2093,11.2093,11.2286,11.3997,11.4616,11.4809,10.3181,10.3689,10.4317,10.5815,10.6,10.6287,10.7187,10.6714,10.6506,10.7286,10.62,10.531,10.531,10.4602,10.3691,10.291,10.2789,10.2796,10.2815,10.2796,10.2811,10.2805,10.2711,10.2694,10.2686,10.1794,10.099,10.0319,9.9715,9.9395,9.9395,10.0109,10.0481,10.0885,10.1891,10.241,10.2412,10.25,10.2607,10.2585,10.2598,10.2588,10.2616,10.3314,10.3503,10.3505,10.3393,10.3386,10.3296,10.2784,10.2581,10.2592,10.2713,10.2709,10.2714,10.2605,10.2713,10.2807,10.2785,10.3413,10.4194,10.4702,10.5404,10.5912,10.5209,10.5092,10.4897,10.4194,10.4118,10.3806,10.2711,10.2515,10.2086,10.0798,9.9705,9.7985,9.5137,9.3458,9.2289,9.1669,9.1982,9.2724,9.3971,9.4718,9.5115,9.5083,9.4462,9.4307,9.4776,9.5049,9.6062,9.8012,9.9911,10.2203,10.4819,10.5209,10.6888,10.9892,11.1182,11.2314,11.3095,11.2991,11.2813,11.2702,11.2484,11.2309,11.2108,11.208,11.2093,11.2093,11.2093,11.2093,11.2286,11.3997,11.4616,11.4809,10.3707,10.3982,10.4491,10.6289,10.6206,10.6313,10.7595,10.6994,10.6706,10.759,10.6202,10.5208,10.5302,10.4211,10.3201,10.281,10.2783,10.28,10.2785,10.2798,10.281,10.2809,10.2801,10.2719,10.2685,10.2318,10.1798,10.129,10.129,10.129,10.129,10.1786,10.2101,10.219,10.2597,10.2796,10.2815,10.2705,10.268,10.2707,10.2683,10.2712,10.2683,10.3102,10.3201,10.3201,10.3394,10.3288,10.2917,10.2892,10.279,10.2592,10.2683,10.2802,10.2781,10.2702,10.268,10.2906,10.3296,10.3999,10.4897,10.5795,10.5795,10.5599,10.5912,10.599,10.5912,10.5404,10.5289,10.4897,10.3608,10.3413,10.2711,10.0603,9.9588,9.779,9.4276,9.3068,9.2326,9.1897,9.2951,9.42,9.5449,9.6386,9.6702,9.6322,9.5853,9.5775,9.6246,9.7493,9.843,9.8977,10.0608,10.2789,10.5404,10.7005,10.8681,11.0516,11.1807,11.2611,11.3,11.2994,11.2788,11.249,11.2394,11.2285,11.2093,11.2093,11.2093,11.2093,11.2093,11.2286,11.2797,11.4113,11.4886,11.5389,10.3797,10.4099,10.4601,10.6298,10.6014,10.5888,10.729,10.6909,10.6714,10.7197,10.6007,10.509,10.4981,10.3798,10.3019,10.2888,10.2888,10.2901,10.2882,10.2917,10.2885,10.2811,10.2811,10.2812,10.2812,10.2812,10.2811,10.289,10.289,10.289,10.289,10.289,10.2887,10.2916,10.2913,10.2906,10.278,10.278,10.2818,10.2816,10.2819,10.2808,10.2783,10.2713,10.2595,10.2685,10.3196,10.2999,10.2493,10.3194,10.3196,10.2815,10.2715,10.2884,10.3086,10.2902,10.2984,10.3296,10.3882,10.4819,10.5795,10.6693,10.5717,10.4899,10.638,10.6693,10.6693,10.6497,10.6614,10.6185,10.4584,10.4116,10.3218,10.0915,9.9314,9.736,9.4395,0.0,9.264,9.3029,9.4512,9.6191,9.7909,9.8768,9.8885,9.8143,9.8104,9.8104,9.8104,9.9627,10.0095,9.939,10.0993,10.3101,10.5599,10.8916,11.0516,11.0516,11.2314,11.3017,11.2917,11.2994,11.2784,11.2288,11.251,11.2411,11.2093,11.2093,11.2093,11.2093,11.2093,11.2604,11.33,11.4306,11.508,11.5815,10.459,10.4901,10.5517,10.7212,10.7301,10.711,10.661,10.6386,10.5988,10.5399,10.5213,10.4784,10.3999,10.4382,10.4394,10.3802,10.3817,10.3514,10.2806,10.281,10.2919,10.2888,10.2884,10.2881,10.2918,10.2886,10.289,10.2887,10.2887,10.2887,10.2887,10.2882,10.2882,10.2885,10.279,10.2785,10.2911,10.2911,10.2905,10.2818,10.2907,10.2897,10.2787,10.2815,10.2691,10.2617,10.2716,10.2709,10.2592,10.2709,10.3188,10.3605,10.2985,10.3708,10.461,10.3201,10.3804,10.4897,10.4311,10.5287,10.6693,10.759,10.7005,10.638,10.6614,10.6693,10.6497,10.5795,10.6185,10.638,10.5404,10.3999,10.2593,10.1502,9.8143,9.5527,9.4981,9.3497,9.3302,9.5527,9.6699,9.7987,9.9744,10.0017,10.0017,9.99,9.99,9.99,9.99,10.0798,10.1307,10.1112,10.2791,10.4586,10.6497,10.9191,11.0516,11.0516,11.2314,11.3017,11.291,11.2706,11.2495,11.2313,11.2182,11.2091,11.2093,11.2093,11.2093,11.2093,11.2093,11.2209,11.2488,11.3997,11.4693,11.5002,10.4814,10.5418,10.5909,10.6801,10.6892,10.6681,10.6304,10.6216,10.6215,10.6218,10.5488,10.501,10.5004,10.4197,10.3611,10.3813,10.3787,10.35,10.2681,10.2812,10.2916,10.2881,10.2911,10.2794,10.2803,10.2419,10.2383,10.2886,10.199,10.1718,10.2186,10.2185,10.2184,10.2183,10.2685,10.2915,10.2914,10.2914,10.2907,10.2816,10.2784,10.2813,10.2789,10.28,10.282,10.2699,10.2714,10.268,10.2698,10.3088,10.3595,10.3904,10.3893,10.4212,10.4385,10.3608,10.4319,10.5287,10.4897,10.5404,10.6185,10.7083,10.6614,10.6185,10.72,10.7395,10.7317,10.6888,10.7083,10.7005,10.5599,10.4702,10.3491,10.1188,9.8416,9.6152,9.5215,9.4395,9.4512,9.6189,9.7987,9.9783,10.15,10.1618,10.1618,10.1618,10.1188,10.0915,10.0915,10.1307,10.1893,10.2908,10.4116,10.5599,10.7395,10.9503,11.0711,11.1182,11.2509,11.2988,11.2688,11.2818,11.26,11.2205,11.2182,11.2196,11.2093,11.2093,11.2093,11.2093,11.2093,11.272,11.3494,11.4306,11.5196,11.6085,10.4494,10.5311,10.5993,10.6218,10.6406,10.64,10.6205,10.6409,10.6498,10.649,10.5593,10.5116,10.5305,10.371,10.2888,10.3594,10.3705,10.3489,10.2894,10.2887,10.2917,10.2914,10.2907,10.2797,10.281,10.1992,10.1913,10.2611,10.1092,10.0585,10.1289,10.1484,10.16,10.1595,10.2494,10.288,10.291,10.291,10.2787,10.2816,10.2816,10.2805,10.2791,10.2805,10.2802,10.2791,10.2805,10.2692,10.2809,10.3605,10.3889,10.3891,10.4401,10.4502,10.4295,10.3696,10.4197,10.5087,10.5591,10.5717,10.5912,10.681,10.6302,10.6107,10.7395,10.7708,10.7708,10.7708,10.7903,10.759,10.6302,10.5482,10.4194,10.1305,9.8924,9.7011,9.584,9.5527,9.5879,9.7167,9.9236,10.1188,10.2711,10.2984,10.3101,10.3101,10.2515,10.2088,10.2088,10.1893,10.2595,10.4311,10.5209,10.6497,10.8293,10.9814,11.0909,11.1807,11.2707,11.2901,11.2712,11.2792,11.2611,11.2202,11.228,11.2181,11.2093,11.2093,11.2093,11.2093,11.2093,11.2914,11.4113,11.4499,11.5389,11.6704,10.3504,10.4392,10.5285,10.6095,10.6794,10.7105,10.6283,10.6794,10.649,10.4191,10.4508,10.4314,10.2793,10.3104,10.3492,10.3615,10.3815,10.3911,10.3803,10.3193,10.2883,10.2914,10.2882,10.2888,10.289,10.1992,10.16,10.1704,10.0813,10.0309,10.0387,10.1207,10.1595,10.1587,10.2485,10.2908,10.2818,10.2818,10.2818,10.2816,10.2816,10.2805,10.2789,10.2791,10.2791,10.2789,10.2791,10.2787,10.2887,10.3583,10.3789,10.3603,10.3705,10.4694,10.5384,10.3208,10.3107,10.4192,10.6112,10.6614,10.681,10.7708,10.72,10.6614,10.681,10.681,10.681,10.681,10.7395,10.802,10.7784,10.5795,10.3804,10.2789,9.9158,9.6738,9.7401,9.6816,9.7245,9.9705,10.0798,10.1815,10.2711,10.3491,10.4001,10.4001,10.3884,10.3884,10.3884,10.3101,10.3491,10.5209,10.6107,10.7395,10.9191,11.0089,11.0909,11.1807,11.2707,11.3012,11.2902,11.291,11.2717,11.2299,11.2313,11.2181,11.2093,11.2093,11.2093,11.2093,11.2093,11.2209,11.2488,11.3997,11.4693,11.5002,10.4308,10.5085,10.5784,10.6089,10.6484,10.66,10.6205,10.6484,10.6289,10.5312,10.4619,10.3997,10.392,10.322,10.2987,10.3609,10.3705,10.3585,10.3081,10.3402,10.3397,10.2916,10.241,10.2104,10.2109,10.0702,10.0312,10.0812,9.9373,9.8945,9.9491,10.039,10.0818,10.089,10.2297,10.2914,10.2816,10.2816,10.281,10.2802,10.2812,10.2805,10.2791,10.2815,10.2808,10.2791,10.2802,10.2696,10.2788,10.3609,10.4096,10.4502,10.4905,10.5514,10.5703,10.4296,10.4083,10.4703,10.6018,10.6101,10.6088,10.7619,10.7317,10.7083,10.8684,10.8684,10.8488,10.8996,10.8918,10.8605,10.8098,10.6302,10.4584,10.3687,10.0915,9.8924,9.9275,9.9041,9.9353,10.0915,10.2283,10.3689,10.5092,10.5482,10.5482,10.4897,10.5404,10.5211,10.4196,10.5287,10.6302,10.7005,10.8293,10.9386,11.0011,11.0909,11.1689,11.2589,11.2902,11.2985,11.2708,11.2708,11.2481,11.2212,11.2212,11.2116,11.2093,11.2093,11.2093,11.2093,11.2093,11.2402,11.2914,11.361,11.4499,11.5505,10.4114,10.4813,10.5512,10.5707,10.5784,10.5901,10.6212,10.6205,10.6011,10.5512,10.4813,10.4308,10.4114,10.3298,10.2787,10.322,10.3306,10.311,10.2619,10.3316,10.3394,10.2881,10.2095,10.1593,10.1601,9.988,9.9296,9.9881,9.8437,9.8008,9.8594,9.9492,9.9999,10.0387,10.1793,10.2607,10.2784,10.2818,10.2813,10.2807,10.2808,10.2803,10.28,10.2897,10.2812,10.2787,10.2783,10.2697,10.2688,10.3508,10.3992,10.4605,10.5307,10.5511,10.5511,10.538,10.5094,10.4986,10.621,10.6006,10.5901,10.7802,10.7907,10.7905,10.9585,10.9603,10.9192,10.9504,10.9215,10.861,10.7985,10.6795,10.5404,10.4313,10.2593,10.1383,10.111,10.1305,10.1813,10.2593,10.3804,10.4897,10.5795,10.6107,10.599,10.5404,10.599,10.5795,10.4584,10.6693,10.802,10.802,10.9894,11.0909,11.0909,11.1494,11.2197,11.3097,11.3097,11.2997,11.2802,11.2806,11.2589,11.2298,11.2298,11.2212,11.2093,11.2093,11.2093,11.2093,11.2093,11.2402,11.2991,11.3184,11.419,11.5505,10.2282,10.2987,10.3881,10.4697,10.4891,10.5202,10.6095,10.6205,10.5584,10.3803,10.5079,10.5195,10.2593,10.3104,10.3298,10.2404,10.2499,10.2593,10.2593,10.2794,10.289,10.2886,10.2098,10.159,10.1597,9.9878,9.8982,9.8984,9.8125,9.7695,9.7734,9.8594,9.9452,10.0308,10.1207,10.2102,10.2913,10.2783,10.2785,10.2912,10.2805,10.28,10.2815,10.2796,10.2789,10.2818,10.2617,10.2617,10.2698,10.3211,10.3387,10.3509,10.4211,10.4403,10.479,10.6492,10.5796,10.4807,10.6709,10.6615,10.649,10.8489,10.9011,10.9007,10.9015,10.8914,10.8486,10.7713,10.7598,10.7686,10.7686,10.7186,10.6107,10.4389,10.4116,10.3804,10.2906,10.3608,10.4389,10.5287,10.5404,10.5092,10.4196,10.4897,10.5404,10.5404,10.5404,10.5404,10.5404,10.7083,10.8018,10.8018,11.0518,11.1807,11.1807,11.1807,11.2197,11.3097,11.3097,11.3097,11.3095,11.3095,11.2882,11.2611,11.2611,11.2395,11.2101,11.2101,11.2093,11.2093,11.2093,11.2093,11.2209,11.2991,11.3803,11.4693,10.322,10.3415,10.3881,10.4697,10.4386,10.4502,10.6017,10.5707,10.5318,10.539,10.5318,10.5007,10.4191,10.3803,10.3505,10.3311,10.29,10.2683,10.2797,10.2304,10.1983,10.1981,10.1197,10.0419,9.98,9.8663,9.8081,9.8086,9.7812,9.7695,9.7734,9.8594,9.9452,10.0308,10.1207,10.2102,10.2913,10.2783,10.2819,10.2783,10.2813,10.2803,10.2798,10.2805,10.2694,10.2701,10.2592,10.2392,10.2384,10.3082,10.3713,10.4381,10.5781,10.6183,10.6299,10.681,10.7119,10.7282,10.7788,10.832,10.8815,10.9485,10.9184,10.9101,11.0313,11.059,11.0315,10.9392,10.9817,10.9885,10.8682,10.7893,10.6992,10.5903,10.5293,10.4897,10.4702,10.4819,10.5287,10.6185,10.6302,10.6497,10.681,10.7083,10.7005,10.638,10.6302,10.681,10.8098,10.9191,11.0011,11.0596,11.2002,11.2707,11.2707,11.2707,11.2785,11.3097,11.3097,11.3108,11.3005,11.3005,11.2801,11.2611,11.2611,11.2517,11.2211,11.2211,11.2189,11.2093,11.2093,11.2093,11.2093,11.2411,11.3416,11.4616,10.3492,10.3298,10.3492,10.4697,10.4191,10.3997,10.5007,10.5318,10.5202,10.469,10.5085,10.5007,10.3997,10.3686,10.3489,10.3178,10.2884,10.2688,10.289,10.2105,10.1394,10.1117,10.0298,9.9556,9.9011,9.8153,9.7689,9.7694,9.7383,9.7383,9.7695,9.789,9.8632,9.9803,10.0701,10.1599,10.2416,10.2715,10.2789,10.2792,10.2781,10.2815,10.2812,10.2815,10.2711,10.2691,10.2601,10.2413,10.2294,10.3108,10.4097,10.5216,10.6616,10.7003,10.7003,10.7003,10.739,10.7816,10.7816,10.8501,10.9303,10.9714,10.9682,10.9892,11.0992,11.0892,11.0291,10.9482,10.9506,10.9398,10.8393,10.7904,10.7394,10.6512,10.6299,10.619,10.5986,10.6185,10.6614,10.72,10.72,10.7317,10.7512,10.7512,10.7317,10.6693,10.7317,10.8215,10.9191,11.0401,11.1299,11.1807,11.2589,11.3097,11.3097,11.3097,11.3097,11.3097,11.3097,11.3111,11.2979,11.2979,11.2882,11.2712,11.2712,11.2617,11.2281,11.2281,11.222,11.2093,11.2093,11.2093,11.2093,11.2093,11.2914,11.4113,10.3298,10.2987,10.2987,10.4502,10.4114,10.3609,10.3686,10.5007,10.5079,10.2787,10.4613,10.5195,10.2787,10.3193,10.3316,10.2694,10.2712,10.2798,10.289,10.2107,10.1203,10.0297,9.9477,9.8965,9.8875,9.8114,9.7652,9.7575,9.6874,9.6875,9.7578,9.6836,9.7383,9.9023,9.9922,10.0781,10.1719,10.2492,10.2881,10.2885,10.279,10.2787,10.2913,10.2783,10.2813,10.28,10.2617,10.2486,10.2487,10.3198,10.4502,10.5989,10.6686,10.7003,10.7003,10.7003,10.7119,10.7119,10.7197,10.7893,10.8697,10.9509,11.0415,11.1114,11.1089,11.0298,10.9393,10.8581,10.7912,10.7403,10.7286,10.7491,10.731,10.6587,10.7207,10.7489,10.6909,10.7508,10.802,10.802,10.802,10.7708,10.6888,10.681,10.681,10.681,10.8293,10.9191,10.9308,11.0792,11.1689,11.1807,11.2589,11.3019,11.3097,11.3019,11.3019,11.3097,11.3097,11.3097,11.3097,11.3097,11.302,11.289,11.289,11.2703,11.2414,11.2316,11.2211,11.2088,11.2101,11.2093,11.2093,11.2093,11.2604,11.33,10.2709,10.3492,10.4191,10.392,10.3686,10.3803,10.4502,10.4386,10.4191,10.4308,10.4813,10.5007,10.4386,10.3888,10.3711,10.3602,10.3089,10.289,10.2888,10.2101,10.1194,10.0283,9.9472,9.8694,9.799,9.7805,9.738,9.6757,9.6601,9.6601,9.6758,9.6562,9.7383,9.9023,9.9922,10.0781,10.1719,10.2497,10.2885,10.2886,10.2916,10.2912,10.2913,10.2783,10.2711,10.2605,10.2495,10.2288,10.2383,10.3712,10.5294,10.681,10.6879,10.7003,10.7003,10.7003,10.7506,10.8194,10.8813,10.9587,11.0515,11.128,11.171,11.1713,11.0985,11.0712,11.0283,10.9393,10.9087,10.8779,10.8206,10.82,10.8012,10.7207,10.7397,10.7618,10.7486,10.7788,10.802,10.802,10.802,10.7903,10.7708,10.7708,10.7708,10.7708,10.8098,10.8605,10.9308,11.0206,11.1104,11.1807,11.2002,11.2392,11.3097,11.2392,11.2392,11.3097,11.3097,11.3097,11.3097,11.3097,11.3088,11.3111,11.3111,11.2892,11.2779,11.2616,11.2408,11.2188,11.21,11.2093,11.2093,11.2093,11.2604,11.3494,10.2904,10.3298,10.3609,10.3609,10.3609,10.3609,10.3686,10.3997,10.4114,10.3686,10.3997,10.411,10.3804,10.3379,10.3193,10.3305,10.3112,10.289,10.2887,10.2099,10.1191,10.0318,9.9471,9.8578,9.7719,9.7691,9.7304,9.6484,9.5664,9.5703,9.6484,9.6054,9.6758,9.8437,9.9726,10.0586,10.1094,10.238,10.2886,10.2886,10.2883,10.2918,10.2913,10.2907,10.2807,10.2717,10.2507,10.2887,10.34,10.4211,10.5603,10.7003,10.7003,10.7003,10.7003,10.7003,10.7313,10.7816,10.8194,10.8891,10.9819,11.0584,11.1203,11.1521,11.1396,11.1087,11.0593,10.9703,10.92,10.8697,10.7807,10.7688,10.7692,10.73,10.7293,10.752,10.7589,10.7785,10.7886,10.7886,10.7881,10.802,10.802,10.802,10.802,10.802,10.841,10.8996,10.9816,11.0284,11.0909,11.1807,11.1416,11.1611,11.2509,11.2002,11.2197,11.3097,11.3097,11.3097,11.3097,11.3097,11.3097,11.3097,11.3097,11.3012,11.291,11.2802,11.2589,11.2306,11.1794,11.1784,11.2015,11.159,11.1985,11.2914,10.3305,10.3082,10.2904,10.3492,10.3609,10.3387,10.26,10.3588,10.3893,10.2484,10.2995,10.3205,10.2599,10.2503,10.2614,10.2707,10.281,10.2889,10.2884,10.2214,10.1383,10.0314,9.9626,9.8734,9.7719,9.7576,9.7187,9.6484,9.4883,9.4922,9.6484,9.5625,9.6094,9.7773,9.9375,10.0195,10.039,10.199,10.281,10.2888,10.2888,10.2885,10.2918,10.2915,10.2907,10.281,10.2611,10.3496,10.4587,10.4583,10.568,10.7003,10.7003,10.7003,10.7003,10.7003,10.7119,10.7197,10.7197,10.8001,10.8891,10.9587,11.0399,11.1203,11.1899,11.1396,11.0593,11.009,10.9084,10.8078,10.7498,10.7197,10.699,10.7115,10.7216,10.7301,10.7416,10.761,10.7706,10.7686,10.7699,10.7786,10.802,10.7903,10.7786,10.802,10.8684,10.9386,11.0009,11.0204,11.0596,11.1299,11.0792,11.0909,11.1807,11.1689,11.208,11.3097,11.2902,11.3019,11.3097,11.3097,11.3097,11.3097,11.3097,11.2981,11.2904,11.2898,11.2697,11.229,11.16,11.1593,11.2015,11.128,11.1521,11.2209,10.2814,10.3716,10.4308,10.3686,10.3609,10.3583,10.3496,10.3005,10.2612,10.2484,10.262,10.259,10.2491,10.2582,10.2717,10.289,10.2884,10.2914,10.2784,10.2703,10.1913,10.0413,10.0207,9.9359,9.7758,9.7029,9.6601,9.6484,9.5508,9.5547,9.6484,9.5625,9.6094,9.7734,9.8711,9.9609,10.039,10.1406,10.2187,10.289,10.289,10.289,10.289,10.2881,10.2913,10.2781,10.2495,10.3313,10.4598,10.5301,10.6183,10.7003,10.7003,10.7003,10.7003,10.7003,10.7498,10.8078,10.8078,10.9316,11.0515,11.0593,11.1289,11.2015,11.2093,11.1396,11.1018,11.159,10.9896,10.8504,10.9084,10.8001,10.7011,10.7005,10.7111,10.721,10.7197,10.7405,10.7601,10.7717,10.7192,10.72,10.7903,10.7317,10.72,10.7903,10.8098,10.8215,10.8291,10.9113,10.9503,10.9581,11.0206,11.0909,11.1807,11.1104,11.1494,11.3097,11.2314,11.2392,11.3097,11.3097,11.3097,11.3097,11.3097,11.309,11.3111,11.2797,11.2583,11.2505,11.2096,11.2011,11.2093,11.2015,11.2015,11.2093,10.2599,10.3103,10.3491,10.3101,10.2984,10.3083,10.3099,10.271,10.2499,10.2514,10.2599,10.2585,10.2602,10.2703,10.2812,10.2882,10.2885,10.2882,10.2818,10.2784,10.2116,10.0409,10.0283,9.9476,9.7758,9.7342,9.7187,9.7187,9.5859,9.539,9.5781,9.5898,9.6328,9.7109,9.8398,9.9492,10.039,10.1211,10.2109,10.289,10.289,10.2888,10.2885,10.2917,10.2905,10.2913,10.3005,10.4009,10.5284,10.5612,10.6299,10.7003,10.7003,10.7003,10.7119,10.7622,10.8001,10.8388,10.8813,10.9509,11.009,11.009,11.0399,11.0786,11.1289,11.1095,11.0894,11.128,11.009,10.8891,10.8813,10.7807,10.7003,10.7003,10.7014,10.709,10.709,10.7299,10.7416,10.7211,10.7297,10.7395,10.7317,10.7395,10.759,10.802,10.802,10.8215,10.8684,10.8605,10.8801,10.9308,10.9191,10.9503,11.0401,11.0011,11.0714,11.2392,11.2002,11.2314,11.3097,11.3097,11.3097,11.3097,11.3097,11.3111,11.2979,11.2796,11.2604,11.2401,11.1783,11.1499,11.1396,11.1899,11.1783,11.1396]}]]